[[{"header":{"parameterUnit":"m.s-1","parameterCategory":1,"la1":31.0,"la2":29.5877,"lo1":-88.7671,"lo2":-86.6584,"dy":0.0162,"dx":0.0185,"nx":115,"ny":88,"refTime":"2023-07-12T18:00:00:Z","depth":0,"parameterNumber":2,"parameterNumberName":"U-component_of_WINDS"},"data":[0.0,0.0,0.0,0.0,0.0,0.0,0.0,0.0,0.0,0.0,0.0,0.0,0.0,0.0,0.0,0.0,0.0,0.0,0.0,0.0,0.0,0.0,0.0,0.0,0.0,0.0,0.0,0.0,0.0,0.0,0.0,0.0,0.0,0.0,0.0,0.0,0.0,0.0,0.0,0.0,0.0,0.0,0.0,0.0,0.0,0.0,0.0,0.0,0.0,0.0,0.0,0.0,0.0,0.0,0.0,0.0,0.0,0.0,0.0,0.0,0.0,0.0,0.0,0.0,0.0,0.0,0.0,0.0,0.0,0.0,0.0,0.0,0.0,0.0,0.0,0.0,0.0,0.0,0.0,0.0,0.0,0.0,0.0,0.0,0.0,0.0,0.0,0.0,0.0,0.0,0.0,0.0,0.0,0.0,0.0,0.0,0.0,0.0,0.0,0.0,0.0,0.0,0.0,0.0,0.0,0.0,0.0,0.0,0.0,0.0,0.0,0.0,0.0,0.0,0.0,0.0,0.0,0.0,0.0,0.0,0.0,0.0,0.0,0.0,0.0,0.0,0.0,0.0,0.0,0.0,0.0,0.0,0.0,0.0,0.0,0.0,0.0,0.0,0.0,0.0,0.0,0.0,0.0,0.0,0.0,0.0,0.0,0.0,0.0,0.0,0.0,0.0,0.0,0.0,0.0,0.0,0.0,0.0,0.0,0.0,0.0,0.0,0.0,0.0,0.0,0.0,0.0,0.0,0.0,0.0,0.0,0.0,0.0,0.0,0.0,0.0,0.0,0.0,0.0,0.0,0.0,0.0,0.0,0.0,0.0,0.0,0.0,0.0,0.0,0.0,0.0,0.0,0.0,0.0,0.0,0.0,0.0,0.0,0.0,0.0,0.0,0.0,0.0,0.0,0.0,0.0,0.0,0.0,0.0,0.0,0.0,0.0,0.0,0.0,0.0,0.0,0.0,0.0,0.0,0.0,0.0,0.0,0.0,0.0,0.0,0.0,0.0,0.0,0.0,0.0,0.0,0.0,0.0,0.0,0.0,0.0,0.0,0.0,0.0,0.0,0.0,0.0,0.0,0.0,0.0,0.0,0.0,0.0,0.0,0.0,0.0,0.0,0.0,0.0,0.0,0.0,0.0,0.0,0.0,0.0,0.0,0.0,0.0,0.0,0.0,0.0,0.0,0.0,0.0,0.0,0.0,0.0,0.0,0.0,0.0,0.0,0.0,0.0,0.0,0.0,0.0,0.0,0.0,0.0,0.0,0.0,0.0,0.0,0.0,0.0,0.0,0.0,0.0,0.0,0.0,0.0,0.0,0.0,0.0,0.0,0.0,0.0,0.0,0.0,0.0,0.0,0.0,0.0,0.0,0.0,0.0,0.0,0.0,0.0,0.0,0.0,0.0,0.0,0.0,0.0,0.0,0.0,0.0,0.0,0.0,0.0,0.0,0.0,0.0,0.0,0.0,0.0,0.0,0.0,0.0,0.0,0.0,0.0,0.0,0.0,0.0,0.0,0.0,0.0,0.0,0.0,0.0,0.0,0.0,0.0,0.0,0.0,0.0,0.0,0.0,0.0,0.0,0.0,0.0,0.0,0.0,0.0,0.0,0.0,0.0,0.0,0.0,0.0,0.0,0.0,0.0,0.0,0.0,0.0,0.0,0.0,0.0,0.0,0.0,0.0,0.0,0.0,0.0,0.0,0.0,0.0,0.0,0.0,0.0,0.0,0.0,0.0,0.0,0.0,0.0,0.0,0.0,0.0,0.0,0.0,0.0,0.0,0.0,0.0,0.0,0.0,0.0,0.0,0.0,0.0,0.0,0.0,0.0,0.0,0.0,0.0,0.0,0.0,0.0,0.0,0.0,0.0,0.0,0.0,0.0,0.0,0.0,0.0,0.0,0.0,0.0,0.0,0.0,0.0,0.0,0.0,0.0,0.0,0.0,0.0,0.0,0.0,0.0,0.0,0.0,0.0,0.0,0.0,0.0,0.0,0.0,0.0,0.0,0.0,0.0,0.0,0.0,0.0,0.0,0.0,0.0,0.0,0.0,0.0,0.0,0.0,0.0,0.0,0.0,0.0,0.0,0.0,0.0,0.0,0.0,0.0,0.0,0.0,0.0,0.0,0.0,0.0,0.0,0.0,0.0,0.0,0.0,0.0,0.0,0.0,0.0,0.0,0.0,0.0,0.0,0.0,0.0,0.0,0.0,0.0,0.0,0.0,0.0,0.0,0.0,0.0,0.0,0.0,0.0,0.0,0.0,0.0,0.0,0.0,0.0,0.0,0.0,0.0,0.0,0.0,0.0,0.0,0.0,0.0,0.0,0.0,0.0,0.0,0.0,0.0,0.0,0.0,0.0,0.0,0.0,0.0,0.0,0.0,0.0,0.0,0.0,0.0,0.0,0.0,0.0,0.0,0.0,0.0,0.0,0.0,0.0,0.0,0.0,0.0,0.0,0.0,0.0,0.0,0.0,0.0,0.0,0.0,0.0,0.0,0.0,0.0,0.0,0.0,0.0,0.0,0.0,0.0,0.0,0.0,0.0,0.0,0.0,0.0,0.0,0.0,0.0,0.0,0.0,0.0,0.0,0.0,0.0,0.0,0.0,0.0,0.0,0.0,0.0,0.0,0.0,0.0,0.0,0.0,0.0,0.0,0.0,0.0,0.0,0.0,0.0,0.0,0.0,0.0,0.0,0.0,0.0,0.0,0.0,0.0,0.0,0.0,0.0,0.0,0.0,0.0,0.0,0.0,0.0,0.0,0.0,0.0,0.0,0.0,0.0,0.0,0.0,0.0,0.0,0.0,0.0,0.0,0.0,0.0,0.0,0.0,0.0,0.0,0.0,0.0,0.0,0.0,0.0,0.0,0.0,0.0,0.0,0.0,0.0,0.0,0.0,0.0,0.0,0.0,0.0,0.0,0.0,0.0,0.0,0.0,0.0,0.0,0.0,0.0,0.0,0.0,0.0,0.0,0.0,0.0,0.0,0.0,0.0,0.0,0.0,0.0,0.0,0.0,0.0,0.0,0.0,0.0,0.0,0.0,0.0,0.0,0.0,0.0,0.0,0.0,0.0,0.0,0.0,0.0,0.0,0.0,0.0,0.0,0.0,0.0,0.0,0.0,0.0,0.0,0.0,0.0,0.0,0.0,0.0,0.0,0.0,0.0,0.0,0.0,0.0,0.0,0.0,0.0,0.0,0.0,0.0,0.0,0.0,0.0,0.0,0.0,0.0,0.0,0.0,0.0,0.0,0.0,0.0,0.0,0.0,0.0,0.0,0.0,0.0,0.0,0.0,0.0,0.0,0.0,0.0,0.0,0.0,0.0,0.0,0.0,0.0,0.0,0.0,0.0,0.0,0.0,0.0,0.0,0.0,0.0,0.0,0.0,0.0,0.0,0.0,0.0,0.0,0.0,0.0,0.0,0.0,0.0,0.0,0.0,0.0,0.0,0.0,0.0,0.0,0.0,0.0,0.0,0.0,0.0,0.0,0.0,0.0,0.0,0.0,0.0,0.0,0.0,0.0,0.0,0.0,0.0,0.0,0.0,0.0,0.0,0.0,0.0,0.0,0.0,0.0,0.0,0.0,0.0,0.0,0.0,0.0,0.0,0.0,0.0,0.0,0.0,0.0,0.0,0.0,0.0,0.0,0.0,0.0,0.0,0.0,0.0,0.0,0.0,0.0,0.0,0.0,0.0,0.0,0.0,0.0,0.0,0.0,0.0,0.0,0.0,0.0,0.0,0.0,0.0,0.0,0.0,0.0,0.0,0.0,0.0,0.0,0.0,0.0,0.0,0.0,0.0,0.0,0.0,0.0,0.0,0.0,0.0,0.0,0.0,0.0,0.0,0.0,0.0,0.0,0.0,0.0,0.0,0.0,0.0,0.0,0.0,0.0,0.0,0.0,0.0,0.0,0.0,0.0,0.0,0.0,0.0,0.0,0.0,0.0,0.0,0.0,0.0,0.0,0.0,0.0,0.0,0.0,0.0,0.0,0.0,0.0,0.0,0.0,0.0,0.0,0.0,0.0,0.0,0.0,0.0,0.0,0.0,0.0,0.0,0.0,0.0,0.0,0.0,0.0,0.0,0.0,0.0,0.0,0.0,0.0,0.0,0.0,0.0,0.0,0.0,0.0,0.0,0.0,0.0,0.0,0.0,0.0,0.0,0.0,0.0,0.0,0.0,0.0,0.0,0.0,0.0,0.0,0.0,0.0,0.0,0.0,0.0,0.0,0.0,0.0,0.0,0.0,0.0,0.0,0.0,0.0,0.0,-3.1691,0.0,0.0,0.0,0.0,0.0,0.0,0.0,0.0,0.0,0.0,0.0,0.0,0.0,0.0,0.0,0.0,0.0,0.0,0.0,0.0,0.0,0.0,0.0,0.0,0.0,0.0,0.0,0.0,0.0,0.0,0.0,0.0,0.0,0.0,0.0,0.0,0.0,0.0,0.0,0.0,0.0,0.0,0.0,0.0,0.0,0.0,0.0,0.0,0.0,0.0,0.0,0.0,0.0,0.0,0.0,0.0,0.0,0.0,0.0,0.0,0.0,0.0,0.0,0.0,0.0,0.0,0.0,0.0,0.0,0.0,0.0,0.0,0.0,0.0,0.0,0.0,0.0,0.0,0.0,0.0,0.0,0.0,0.0,0.0,0.0,0.0,0.0,0.0,0.0,0.0,0.0,0.0,0.0,0.0,0.0,0.0,0.0,0.0,0.0,0.0,0.0,0.0,0.0,0.0,0.0,0.0,0.0,0.0,0.0,0.0,-3.1819,-3.169,-3.1671,-3.1634,-3.1557,0.0,0.0,0.0,0.0,0.0,0.0,0.0,0.0,0.0,0.0,0.0,0.0,0.0,0.0,0.0,0.0,0.0,0.0,0.0,0.0,0.0,0.0,0.0,0.0,0.0,0.0,0.0,0.0,0.0,0.0,0.0,0.0,0.0,0.0,0.0,0.0,0.0,0.0,0.0,0.0,0.0,0.0,0.0,0.0,0.0,0.0,0.0,0.0,0.0,0.0,0.0,0.0,0.0,0.0,0.0,0.0,0.0,0.0,0.0,0.0,0.0,0.0,0.0,0.0,0.0,0.0,0.0,0.0,0.0,0.0,0.0,0.0,0.0,0.0,0.0,0.0,0.0,0.0,0.0,0.0,0.0,0.0,0.0,0.0,0.0,0.0,0.0,0.0,0.0,0.0,0.0,0.0,0.0,0.0,0.0,0.0,0.0,0.0,0.0,0.0,0.0,0.0,0.0,0.0,0.0,0.0,0.0,0.0,0.0,0.0,0.0,0.0,-3.1462,-3.1443,-3.144,0.0,0.0,0.0,0.0,0.0,0.0,0.0,0.0,0.0,0.0,0.0,0.0,0.0,0.0,0.0,0.0,0.0,0.0,0.0,0.0,0.0,0.0,0.0,0.0,0.0,0.0,0.0,0.0,0.0,0.0,0.0,0.0,0.0,0.0,0.0,0.0,0.0,0.0,0.0,0.0,0.0,0.0,0.0,0.0,0.0,0.0,0.0,0.0,0.0,0.0,0.0,0.0,0.0,0.0,0.0,0.0,0.0,0.0,0.0,0.0,0.0,0.0,0.0,0.0,0.0,0.0,0.0,0.0,0.0,0.0,0.0,0.0,0.0,0.0,0.0,0.0,0.0,0.0,0.0,0.0,0.0,0.0,0.0,0.0,0.0,0.0,0.0,0.0,0.0,0.0,0.0,0.0,0.0,0.0,0.0,0.0,0.0,0.0,0.0,0.0,0.0,0.0,0.0,0.0,0.0,0.0,0.0,0.0,0.0,0.0,-3.1462,-3.1332,-3.1315,0.0,-3.123,0.0,0.0,0.0,0.0,0.0,0.0,0.0,0.0,0.0,0.0,0.0,0.0,0.0,0.0,0.0,0.0,0.0,0.0,0.0,0.0,0.0,0.0,0.0,0.0,0.0,0.0,0.0,0.0,0.0,0.0,0.0,0.0,0.0,0.0,0.0,0.0,0.0,0.0,0.0,0.0,0.0,0.0,0.0,0.0,0.0,0.0,0.0,0.0,0.0,0.0,0.0,0.0,0.0,0.0,0.0,0.0,0.0,0.0,0.0,0.0,0.0,0.0,0.0,0.0,0.0,0.0,0.0,0.0,0.0,0.0,0.0,0.0,0.0,0.0,0.0,0.0,0.0,0.0,0.0,0.0,0.0,0.0,0.0,0.0,0.0,0.0,0.0,0.0,0.0,0.0,0.0,0.0,0.0,0.0,0.0,0.0,0.0,0.0,0.0,0.0,0.0,0.0,0.0,0.0,0.0,0.0,0.0,0.0,0.0,0.0,-3.1288,-3.1232,-3.1252,-3.1232,0.0,0.0,0.0,0.0,0.0,0.0,0.0,0.0,0.0,0.0,0.0,0.0,0.0,0.0,0.0,0.0,0.0,0.0,0.0,0.0,0.0,0.0,0.0,0.0,0.0,0.0,0.0,0.0,0.0,0.0,0.0,0.0,0.0,0.0,0.0,0.0,0.0,0.0,0.0,0.0,0.0,0.0,0.0,0.0,0.0,0.0,0.0,0.0,0.0,0.0,0.0,0.0,0.0,0.0,0.0,0.0,0.0,0.0,0.0,0.0,0.0,0.0,0.0,0.0,0.0,0.0,0.0,0.0,0.0,0.0,0.0,0.0,0.0,0.0,0.0,0.0,0.0,0.0,0.0,0.0,0.0,0.0,0.0,0.0,0.0,0.0,0.0,0.0,0.0,0.0,0.0,0.0,0.0,0.0,0.0,0.0,0.0,0.0,0.0,0.0,0.0,0.0,0.0,0.0,0.0,0.0,0.0,0.0,0.0,0.0,-3.119,-3.119,-3.119,-3.119,-3.119,-3.119,0.0,0.0,0.0,0.0,0.0,0.0,0.0,0.0,0.0,0.0,0.0,0.0,0.0,0.0,0.0,0.0,0.0,0.0,0.0,0.0,0.0,0.0,0.0,0.0,0.0,0.0,0.0,0.0,0.0,0.0,0.0,0.0,0.0,0.0,0.0,0.0,0.0,0.0,0.0,0.0,0.0,0.0,0.0,0.0,0.0,0.0,0.0,0.0,0.0,0.0,0.0,0.0,0.0,0.0,0.0,0.0,0.0,0.0,0.0,0.0,0.0,0.0,0.0,0.0,0.0,0.0,0.0,0.0,0.0,0.0,0.0,0.0,0.0,0.0,0.0,0.0,0.0,0.0,0.0,0.0,0.0,0.0,0.0,0.0,0.0,0.0,0.0,0.0,0.0,0.0,0.0,0.0,0.0,0.0,0.0,0.0,0.0,0.0,0.0,0.0,0.0,0.0,0.0,0.0,0.0,0.0,0.0,0.0,-3.119,-3.119,-3.119,-3.119,-3.119,-3.119,0.0,0.0,0.0,0.0,0.0,0.0,0.0,0.0,0.0,0.0,0.0,0.0,0.0,0.0,0.0,0.0,0.0,0.0,0.0,0.0,0.0,0.0,0.0,0.0,0.0,0.0,0.0,0.0,0.0,0.0,0.0,0.0,0.0,0.0,0.0,0.0,0.0,0.0,0.0,0.0,0.0,0.0,0.0,0.0,0.0,0.0,0.0,0.0,0.0,0.0,0.0,0.0,0.0,0.0,0.0,0.0,0.0,0.0,0.0,0.0,0.0,0.0,0.0,0.0,0.0,0.0,0.0,0.0,0.0,0.0,0.0,0.0,0.0,0.0,0.0,0.0,0.0,0.0,0.0,0.0,0.0,0.0,0.0,0.0,0.0,0.0,0.0,0.0,0.0,0.0,0.0,0.0,0.0,0.0,0.0,0.0,0.0,0.0,0.0,0.0,0.0,0.0,0.0,0.0,0.0,0.0,0.0,0.0,0.0,-3.119,-3.119,-3.119,-3.119,-3.119,-3.119,0.0,0.0,0.0,0.0,0.0,0.0,0.0,0.0,0.0,0.0,0.0,0.0,0.0,0.0,0.0,0.0,0.0,0.0,0.0,0.0,0.0,0.0,0.0,0.0,0.0,0.0,0.0,0.0,0.0,0.0,0.0,0.0,0.0,0.0,0.0,0.0,0.0,0.0,0.0,0.0,0.0,0.0,0.0,0.0,0.0,0.0,0.0,0.0,0.0,0.0,0.0,0.0,0.0,0.0,0.0,0.0,0.0,0.0,0.0,0.0,0.0,0.0,0.0,0.0,0.0,0.0,0.0,0.0,0.0,0.0,0.0,0.0,0.0,0.0,0.0,0.0,0.0,0.0,0.0,0.0,0.0,0.0,0.0,0.0,0.0,0.0,0.0,0.0,0.0,0.0,0.0,0.0,0.0,0.0,0.0,0.0,0.0,0.0,0.0,0.0,0.0,0.0,0.0,0.0,0.0,0.0,0.0,0.0,0.0,-3.1529,0.0,-3.1546,0.0,-3.1565,-3.1444,0.0,0.0,0.0,0.0,0.0,0.0,0.0,0.0,0.0,0.0,0.0,0.0,0.0,0.0,0.0,0.0,0.0,0.0,0.0,0.0,0.0,0.0,0.0,0.0,0.0,0.0,0.0,0.0,0.0,0.0,0.0,0.0,0.0,0.0,0.0,0.0,0.0,0.0,0.0,0.0,0.0,0.0,0.0,0.0,0.0,0.0,0.0,0.0,0.0,0.0,0.0,0.0,0.0,0.0,0.0,0.0,0.0,0.0,0.0,0.0,0.0,0.0,0.0,0.0,0.0,0.0,0.0,0.0,0.0,0.0,0.0,0.0,0.0,0.0,0.0,0.0,0.0,0.0,0.0,0.0,0.0,0.0,0.0,0.0,0.0,0.0,0.0,0.0,0.0,0.0,0.0,0.0,0.0,0.0,0.0,0.0,0.0,0.0,0.0,0.0,0.0,0.0,0.0,0.0,0.0,0.0,0.0,0.0,-3.1599,-3.2293,-3.2327,-3.2327,-3.2327,-3.2327,-3.1972,0.0,0.0,0.0,0.0,0.0,0.0,0.0,0.0,0.0,0.0,0.0,0.0,0.0,0.0,0.0,0.0,0.0,0.0,0.0,0.0,0.0,0.0,0.0,0.0,0.0,0.0,0.0,0.0,0.0,0.0,0.0,0.0,0.0,0.0,0.0,0.0,0.0,0.0,0.0,0.0,0.0,0.0,0.0,0.0,0.0,0.0,0.0,0.0,0.0,0.0,0.0,0.0,0.0,0.0,0.0,0.0,0.0,0.0,0.0,0.0,0.0,0.0,0.0,0.0,0.0,0.0,0.0,0.0,0.0,0.0,0.0,0.0,0.0,0.0,0.0,0.0,0.0,0.0,0.0,0.0,0.0,0.0,0.0,0.0,0.0,0.0,0.0,0.0,0.0,0.0,0.0,0.0,0.0,0.0,0.0,0.0,0.0,0.0,0.0,0.0,0.0,0.0,0.0,0.0,0.0,0.0,0.0,0.0,0.0,-3.3783,-3.3322,-3.3305,-3.3766,-3.3322,-3.2713,0.0,0.0,0.0,0.0,0.0,0.0,0.0,0.0,0.0,0.0,0.0,0.0,0.0,0.0,0.0,0.0,0.0,0.0,0.0,0.0,0.0,0.0,0.0,0.0,0.0,0.0,0.0,0.0,0.0,0.0,0.0,0.0,0.0,0.0,0.0,0.0,0.0,0.0,0.0,0.0,0.0,0.0,0.0,0.0,0.0,0.0,0.0,0.0,0.0,0.0,0.0,0.0,0.0,0.0,0.0,0.0,0.0,0.0,0.0,0.0,0.0,0.0,0.0,0.0,0.0,0.0,0.0,0.0,0.0,0.0,0.0,0.0,0.0,0.0,0.0,0.0,0.0,0.0,0.0,0.0,0.0,0.0,0.0,0.0,0.0,0.0,0.0,0.0,0.0,0.0,0.0,0.0,0.0,0.0,0.0,0.0,0.0,0.0,0.0,0.0,0.0,0.0,0.0,0.0,0.0,0.0,0.0,0.0,0.0,-3.5605,-3.4941,-3.4773,-3.5228,-3.4498,-3.3616,-3.2622,0.0,0.0,0.0,0.0,0.0,0.0,0.0,0.0,0.0,0.0,0.0,0.0,0.0,0.0,0.0,0.0,0.0,0.0,0.0,0.0,0.0,0.0,0.0,0.0,0.0,0.0,0.0,0.0,0.0,0.0,0.0,0.0,0.0,0.0,0.0,0.0,0.0,0.0,0.0,0.0,0.0,0.0,0.0,0.0,0.0,0.0,0.0,0.0,0.0,0.0,0.0,0.0,0.0,0.0,0.0,0.0,0.0,0.0,0.0,0.0,0.0,0.0,0.0,0.0,0.0,0.0,0.0,0.0,0.0,0.0,0.0,0.0,0.0,0.0,0.0,0.0,0.0,0.0,0.0,0.0,0.0,0.0,0.0,0.0,0.0,0.0,0.0,0.0,0.0,0.0,0.0,0.0,0.0,0.0,0.0,0.0,0.0,0.0,0.0,0.0,0.0,0.0,0.0,0.0,0.0,0.0,0.0,0.0,-3.7706,-3.7002,-3.6649,-3.6606,-3.579,-3.4649,0.0,0.0,0.0,0.0,0.0,0.0,0.0,0.0,0.0,0.0,0.0,0.0,0.0,0.0,0.0,0.0,0.0,0.0,0.0,0.0,0.0,0.0,0.0,0.0,0.0,0.0,0.0,0.0,0.0,0.0,0.0,0.0,0.0,0.0,0.0,0.0,0.0,0.0,0.0,0.0,0.0,0.0,0.0,0.0,0.0,0.0,0.0,0.0,0.0,0.0,0.0,0.0,0.0,0.0,0.0,0.0,0.0,0.0,0.0,0.0,0.0,0.0,0.0,0.0,0.0,0.0,0.0,0.0,0.0,0.0,0.0,0.0,0.0,0.0,0.0,0.0,0.0,0.0,0.0,0.0,0.0,0.0,0.0,0.0,0.0,0.0,0.0,0.0,0.0,0.0,0.0,0.0,0.0,0.0,0.0,0.0,0.0,0.0,0.0,0.0,0.0,0.0,0.0,0.0,0.0,0.0,0.0,0.0,0.0,-3.8062,-3.8273,-3.8275,-3.8045,-3.7317,-3.6188,0.0,0.0,0.0,0.0,0.0,0.0,0.0,0.0,0.0,0.0,0.0,0.0,0.0,0.0,0.0,0.0,0.0,0.0,0.0,0.0,0.0,0.0,0.0,0.0,0.0,0.0,0.0,0.0,0.0,0.0,0.0,0.0,0.0,0.0,0.0,0.0,0.0,0.0,0.0,0.0,0.0,0.0,0.0,0.0,0.0,0.0,0.0,0.0,0.0,0.0,0.0,0.0,0.0,0.0,0.0,0.0,0.0,0.0,0.0,0.0,0.0,0.0,0.0,0.0,0.0,0.0,0.0,0.0,0.0,0.0,0.0,0.0,0.0,0.0,0.0,0.0,0.0,0.0,0.0,0.0,0.0,0.0,0.0,0.0,0.0,0.0,0.0,0.0,0.0,0.0,0.0,0.0,0.0,0.0,0.0,0.0,0.0,0.0,0.0,0.0,0.0,0.0,0.0,0.0,0.0,0.0,0.0,0.0,-3.702,-3.8096,-3.8644,-3.8853,-3.8678,-3.805,-3.697,0.0,0.0,0.0,0.0,0.0,0.0,0.0,0.0,0.0,0.0,0.0,0.0,0.0,0.0,0.0,0.0,0.0,0.0,0.0,0.0,0.0,0.0,0.0,0.0,0.0,0.0,0.0,0.0,0.0,0.0,0.0,0.0,0.0,0.0,0.0,0.0,0.0,0.0,0.0,0.0,0.0,0.0,0.0,0.0,0.0,0.0,0.0,0.0,0.0,0.0,0.0,0.0,0.0,0.0,0.0,0.0,0.0,0.0,0.0,0.0,0.0,0.0,0.0,0.0,0.0,0.0,0.0,0.0,0.0,0.0,0.0,0.0,0.0,0.0,0.0,0.0,0.0,0.0,0.0,0.0,0.0,0.0,0.0,0.0,0.0,0.0,0.0,0.0,0.0,0.0,0.0,0.0,0.0,0.0,0.0,0.0,0.0,0.0,0.0,0.0,0.0,0.0,0.0,0.0,0.0,0.0,0.0,0.0,-3.7237,-3.7912,-3.8434,-3.8722,-3.8706,-3.8323,-3.7357,0.0,0.0,0.0,0.0,0.0,0.0,0.0,0.0,0.0,0.0,0.0,0.0,0.0,0.0,0.0,0.0,0.0,0.0,0.0,0.0,0.0,0.0,0.0,0.0,0.0,0.0,0.0,0.0,0.0,0.0,0.0,0.0,0.0,0.0,0.0,0.0,0.0,0.0,0.0,0.0,0.0,0.0,0.0,0.0,0.0,0.0,0.0,0.0,0.0,0.0,0.0,0.0,0.0,0.0,0.0,0.0,0.0,0.0,0.0,0.0,0.0,0.0,0.0,0.0,0.0,0.0,0.0,0.0,0.0,0.0,0.0,0.0,0.0,0.0,0.0,0.0,0.0,0.0,0.0,0.0,0.0,0.0,0.0,0.0,0.0,0.0,0.0,0.0,0.0,0.0,0.0,0.0,0.0,0.0,0.0,0.0,0.0,0.0,0.0,0.0,0.0,0.0,0.0,0.0,0.0,0.0,0.0,0.0,-3.6918,-3.8012,-3.808,-3.8091,-3.8091,-3.8564,-3.8054,0.0,0.0,0.0,0.0,0.0,0.0,0.0,0.0,0.0,0.0,0.0,0.0,0.0,0.0,0.0,0.0,0.0,0.0,0.0,0.0,0.0,0.0,0.0,0.0,0.0,0.0,0.0,0.0,0.0,0.0,0.0,0.0,0.0,0.0,0.0,0.0,0.0,0.0,0.0,0.0,0.0,0.0,0.0,0.0,0.0,0.0,0.0,0.0,-2.6358,0.0,0.0,0.0,0.0,0.0,0.0,0.0,0.0,0.0,0.0,0.0,0.0,0.0,0.0,0.0,0.0,0.0,0.0,0.0,0.0,0.0,0.0,0.0,0.0,0.0,0.0,0.0,0.0,0.0,0.0,0.0,0.0,0.0,0.0,0.0,0.0,0.0,0.0,0.0,0.0,0.0,0.0,0.0,0.0,0.0,0.0,0.0,0.0,0.0,0.0,0.0,0.0,0.0,0.0,0.0,0.0,0.0,0.0,0.0,-3.6842,-3.7722,-3.7698,-3.7669,-3.7685,-3.8132,-3.7723,0.0,0.0,0.0,0.0,0.0,0.0,0.0,0.0,0.0,0.0,0.0,0.0,0.0,0.0,0.0,0.0,0.0,0.0,0.0,0.0,0.0,0.0,0.0,0.0,0.0,0.0,0.0,0.0,0.0,0.0,0.0,0.0,0.0,0.0,0.0,0.0,0.0,0.0,0.0,0.0,0.0,0.0,0.0,0.0,0.0,0.0,0.0,0.0,0.0,0.0,0.0,0.0,0.0,0.0,0.0,0.0,0.0,0.0,0.0,0.0,0.0,0.0,0.0,0.0,0.0,0.0,0.0,0.0,0.0,0.0,0.0,0.0,0.0,0.0,0.0,0.0,0.0,0.0,0.0,0.0,0.0,0.0,0.0,0.0,0.0,0.0,0.0,0.0,0.0,0.0,0.0,0.0,0.0,0.0,0.0,0.0,0.0,0.0,0.0,0.0,0.0,0.0,0.0,0.0,0.0,0.0,0.0,-3.5927,-3.6796,-3.7296,-3.7328,-3.7344,-3.7344,-3.7478,-3.6946,-3.5661,0.0,0.0,0.0,0.0,0.0,0.0,0.0,0.0,0.0,0.0,0.0,0.0,0.0,0.0,0.0,0.0,0.0,0.0,0.0,0.0,0.0,0.0,0.0,0.0,0.0,0.0,0.0,0.0,0.0,0.0,0.0,0.0,0.0,0.0,0.0,0.0,0.0,0.0,-2.4254,-2.5309,0.0,0.0,0.0,0.0,0.0,0.0,0.0,0.0,-2.7393,0.0,0.0,0.0,0.0,0.0,0.0,0.0,0.0,0.0,0.0,0.0,0.0,0.0,0.0,0.0,0.0,0.0,0.0,0.0,0.0,0.0,0.0,0.0,0.0,0.0,0.0,0.0,0.0,0.0,0.0,0.0,0.0,0.0,0.0,0.0,0.0,0.0,0.0,0.0,0.0,0.0,0.0,0.0,0.0,0.0,0.0,0.0,0.0,0.0,0.0,0.0,0.0,0.0,0.0,0.0,0.0,-3.5018,-3.5791,-3.6474,-3.7029,-3.706,-3.7044,-3.706,-3.6907,-3.6223,-3.4927,0.0,0.0,0.0,0.0,0.0,0.0,0.0,0.0,0.0,0.0,0.0,0.0,0.0,0.0,0.0,0.0,0.0,0.0,0.0,0.0,0.0,0.0,0.0,0.0,0.0,0.0,0.0,0.0,0.0,0.0,0.0,0.0,0.0,0.0,0.0,0.0,0.0,0.0,0.0,-2.6591,-2.7215,0.0,0.0,0.0,0.0,0.0,0.0,0.0,0.0,-2.7268,0.0,0.0,0.0,0.0,0.0,0.0,0.0,0.0,0.0,0.0,0.0,0.0,0.0,0.0,0.0,0.0,0.0,0.0,0.0,0.0,0.0,0.0,0.0,0.0,0.0,0.0,0.0,0.0,0.0,0.0,0.0,0.0,0.0,0.0,0.0,0.0,0.0,0.0,0.0,0.0,0.0,0.0,0.0,0.0,0.0,0.0,0.0,0.0,0.0,0.0,0.0,0.0,0.0,0.0,0.0,-3.4332,-3.5321,-3.6072,-3.6569,-3.6569,-3.6538,-3.6492,-3.6383,-3.5723,0.0,0.0,0.0,0.0,0.0,0.0,0.0,0.0,0.0,0.0,0.0,0.0,0.0,0.0,0.0,0.0,0.0,0.0,0.0,0.0,0.0,0.0,0.0,0.0,0.0,0.0,0.0,0.0,0.0,0.0,0.0,0.0,0.0,0.0,0.0,0.0,0.0,0.0,0.0,0.0,-2.7621,-2.8115,-2.7837,0.0,0.0,0.0,0.0,0.0,0.0,-2.8338,-2.7893,0.0,0.0,0.0,0.0,0.0,0.0,0.0,0.0,0.0,0.0,0.0,0.0,0.0,0.0,0.0,0.0,0.0,0.0,0.0,0.0,0.0,0.0,0.0,0.0,0.0,0.0,0.0,0.0,0.0,0.0,0.0,0.0,0.0,0.0,0.0,0.0,0.0,0.0,0.0,0.0,0.0,0.0,0.0,0.0,0.0,0.0,0.0,0.0,0.0,0.0,0.0,0.0,0.0,0.0,0.0,-3.3743,-3.483,-3.5646,-3.6134,-3.6148,-3.6116,-3.6005,-3.5973,-3.532,0.0,0.0,0.0,0.0,0.0,0.0,0.0,0.0,0.0,0.0,0.0,0.0,0.0,0.0,0.0,0.0,0.0,0.0,0.0,0.0,0.0,0.0,0.0,0.0,0.0,0.0,0.0,0.0,0.0,0.0,0.0,0.0,0.0,0.0,0.0,0.0,0.0,0.0,0.0,0.0,0.0,-2.9029,-2.9029,-2.9088,0.0,0.0,0.0,0.0,-2.9513,-2.9012,0.0,0.0,0.0,0.0,0.0,0.0,0.0,0.0,0.0,0.0,0.0,0.0,0.0,0.0,0.0,0.0,0.0,0.0,0.0,0.0,0.0,0.0,0.0,0.0,0.0,0.0,0.0,0.0,0.0,0.0,0.0,0.0,0.0,0.0,0.0,0.0,0.0,0.0,0.0,0.0,0.0,0.0,0.0,0.0,0.0,0.0,0.0,0.0,0.0,0.0,0.0,0.0,0.0,0.0,0.0,0.0,-3.3892,-3.4684,-3.5353,-3.5991,-3.6037,-3.6005,-3.6005,-3.5831,-3.5116,0.0,0.0,0.0,0.0,0.0,0.0,0.0,0.0,0.0,0.0,0.0,0.0,0.0,0.0,0.0,0.0,0.0,0.0,0.0,0.0,0.0,0.0,0.0,0.0,0.0,0.0,0.0,0.0,0.0,0.0,0.0,0.0,0.0,0.0,0.0,0.0,0.0,0.0,0.0,0.0,0.0,-3.011,-3.011,-3.0477,-3.0742,0.0,0.0,0.0,-3.0806,-2.9693,0.0,0.0,0.0,0.0,0.0,0.0,0.0,0.0,0.0,0.0,0.0,0.0,0.0,0.0,0.0,0.0,0.0,0.0,0.0,0.0,0.0,0.0,0.0,0.0,0.0,0.0,0.0,0.0,0.0,0.0,0.0,0.0,0.0,0.0,0.0,0.0,0.0,0.0,0.0,0.0,0.0,0.0,0.0,0.0,0.0,0.0,0.0,0.0,0.0,0.0,0.0,0.0,0.0,0.0,0.0,-3.184,-3.3407,-3.4121,-3.5077,-3.6328,-3.6388,-3.6356,-3.6258,-3.6079,-3.5203,0.0,0.0,0.0,0.0,0.0,0.0,0.0,0.0,0.0,0.0,0.0,0.0,0.0,0.0,0.0,0.0,0.0,0.0,0.0,0.0,0.0,0.0,0.0,0.0,0.0,0.0,0.0,0.0,0.0,0.0,0.0,0.0,0.0,0.0,0.0,0.0,0.0,0.0,0.0,0.0,0.0,0.0,-3.1065,-3.1269,0.0,0.0,0.0,-3.0715,-3.0944,0.0,0.0,0.0,0.0,0.0,0.0,0.0,0.0,0.0,0.0,0.0,0.0,0.0,0.0,0.0,0.0,0.0,0.0,0.0,0.0,0.0,0.0,0.0,0.0,0.0,0.0,0.0,0.0,0.0,0.0,0.0,0.0,0.0,0.0,0.0,0.0,0.0,0.0,0.0,0.0,0.0,0.0,0.0,0.0,0.0,0.0,0.0,0.0,0.0,0.0,0.0,0.0,0.0,0.0,0.0,0.0,0.0,-3.3078,-3.3577,-3.4633,-3.6265,-3.6274,-3.6207,-3.6089,-3.5941,0.0,0.0,0.0,0.0,0.0,0.0,0.0,0.0,0.0,0.0,0.0,0.0,0.0,0.0,0.0,0.0,0.0,0.0,0.0,0.0,0.0,0.0,0.0,0.0,0.0,0.0,0.0,-2.5738,0.0,0.0,0.0,0.0,0.0,0.0,0.0,0.0,0.0,0.0,0.0,0.0,0.0,0.0,-3.1263,-3.1847,-3.1859,-3.1656,0.0,0.0,-3.0913,-3.0908,-2.9812,-2.8947,0.0,0.0,0.0,0.0,0.0,0.0,0.0,0.0,0.0,0.0,0.0,0.0,0.0,0.0,0.0,0.0,0.0,0.0,0.0,0.0,0.0,0.0,0.0,0.0,0.0,0.0,0.0,0.0,0.0,0.0,0.0,0.0,0.0,0.0,0.0,0.0,0.0,0.0,0.0,0.0,0.0,0.0,0.0,0.0,0.0,0.0,0.0,0.0,0.0,0.0,0.0,0.0,0.0,0.0,0.0,-3.338,-3.3332,-3.3938,-3.5228,-3.5108,-3.5027,-3.5027,-3.5008,-3.4375,0.0,0.0,0.0,0.0,0.0,0.0,0.0,0.0,0.0,0.0,0.0,0.0,0.0,0.0,0.0,0.0,0.0,0.0,0.0,0.0,0.0,0.0,0.0,0.0,0.0,0.0,0.0,0.0,0.0,0.0,0.0,0.0,0.0,0.0,0.0,0.0,0.0,0.0,0.0,0.0,0.0,-3.1533,-3.2498,-3.2294,-3.2006,0.0,0.0,-3.114,-3.102,-2.9881,-2.8925,-2.8749,0.0,0.0,0.0,0.0,0.0,0.0,0.0,0.0,0.0,0.0,0.0,0.0,0.0,0.0,0.0,0.0,0.0,0.0,0.0,0.0,0.0,0.0,0.0,0.0,0.0,0.0,0.0,0.0,0.0,0.0,0.0,0.0,0.0,0.0,0.0,0.0,0.0,0.0,0.0,0.0,0.0,0.0,0.0,0.0,0.0,0.0,0.0,0.0,0.0,0.0,0.0,0.0,0.0,-3.2154,-3.327,-3.3561,-3.4324,-3.5566,-3.5558,-3.5524,-3.5524,-3.5423,-3.4754,0.0,0.0,0.0,0.0,0.0,0.0,0.0,0.0,0.0,0.0,0.0,0.0,0.0,0.0,0.0,0.0,0.0,0.0,0.0,0.0,0.0,0.0,0.0,0.0,0.0,0.0,0.0,0.0,-2.7961,-2.7866,-2.7256,0.0,0.0,0.0,0.0,0.0,0.0,0.0,0.0,0.0,0.0,-3.1041,-3.1893,-3.1873,0.0,0.0,-3.0885,-3.0659,-3.0444,-2.9309,-2.8401,-2.817,-2.6575,0.0,0.0,0.0,0.0,0.0,0.0,0.0,0.0,0.0,0.0,0.0,0.0,0.0,0.0,0.0,0.0,0.0,0.0,0.0,0.0,0.0,0.0,0.0,0.0,0.0,0.0,0.0,0.0,0.0,0.0,0.0,0.0,0.0,0.0,0.0,0.0,0.0,0.0,0.0,0.0,0.0,0.0,0.0,0.0,0.0,0.0,0.0,0.0,0.0,0.0,0.0,0.0,-3.2509,-3.313,-3.3669,-3.4442,-3.5497,-3.5477,-3.5443,-3.5443,-3.5356,-3.4777,0.0,0.0,0.0,0.0,0.0,0.0,0.0,0.0,0.0,0.0,0.0,0.0,0.0,0.0,0.0,0.0,0.0,0.0,0.0,0.0,0.0,0.0,0.0,0.0,0.0,0.0,0.0,0.0,-2.8239,-2.7812,-2.6736,0.0,0.0,0.0,0.0,0.0,0.0,0.0,0.0,0.0,0.0,-3.033,-3.1125,-3.1172,-3.091,-3.0406,-3.0139,-2.9947,-2.9831,-2.875,-2.7853,-2.7717,0.0,0.0,0.0,0.0,0.0,0.0,0.0,0.0,0.0,0.0,0.0,0.0,0.0,0.0,0.0,0.0,0.0,0.0,0.0,0.0,0.0,0.0,0.0,0.0,0.0,0.0,0.0,0.0,0.0,0.0,0.0,0.0,0.0,0.0,0.0,0.0,0.0,0.0,0.0,0.0,0.0,0.0,0.0,0.0,0.0,0.0,0.0,0.0,0.0,0.0,0.0,0.0,0.0,0.0,-3.3004,-3.3492,-3.4039,-3.4712,-3.4544,-3.4443,-3.4443,-3.4443,-3.4138,-3.3503,0.0,0.0,0.0,0.0,0.0,0.0,0.0,0.0,0.0,0.0,0.0,0.0,0.0,0.0,0.0,0.0,0.0,0.0,0.0,0.0,0.0,0.0,0.0,0.0,0.0,0.0,-2.9275,-2.8437,-2.7284,0.0,0.0,0.0,0.0,0.0,0.0,0.0,0.0,0.0,0.0,-2.8974,-2.9509,-3.0302,-3.019,-2.9922,-2.9496,-2.9275,-2.9143,-2.9131,-2.8233,-2.752,0.0,0.0,0.0,0.0,0.0,0.0,0.0,0.0,0.0,0.0,0.0,0.0,0.0,0.0,0.0,0.0,0.0,0.0,0.0,0.0,0.0,0.0,0.0,0.0,0.0,0.0,0.0,0.0,-3.3385,0.0,0.0,0.0,0.0,0.0,0.0,0.0,0.0,0.0,0.0,0.0,-3.3877,-3.3146,0.0,0.0,0.0,0.0,0.0,0.0,0.0,0.0,0.0,0.0,0.0,0.0,-3.2849,-3.3463,-3.3926,-3.4297,-3.4467,-3.4414,-3.438,-3.438,-3.438,-3.4109,-3.3518,0.0,0.0,0.0,0.0,0.0,0.0,0.0,0.0,0.0,0.0,0.0,0.0,0.0,0.0,0.0,0.0,0.0,0.0,0.0,0.0,0.0,0.0,0.0,0.0,0.0,-2.9291,0.0,0.0,0.0,0.0,0.0,0.0,0.0,0.0,0.0,0.0,0.0,-2.6595,-2.779,-2.8234,-2.8654,-2.9126,-2.9426,-2.9496,0.0,0.0,0.0,0.0,0.0,0.0,0.0,0.0,0.0,0.0,0.0,0.0,0.0,0.0,-2.398,-2.4198,-2.3948,-2.369,-2.369,0.0,0.0,0.0,0.0,0.0,0.0,0.0,0.0,0.0,0.0,0.0,0.0,0.0,0.0,0.0,0.0,-3.4656,0.0,0.0,0.0,0.0,0.0,0.0,0.0,0.0,-3.4308,-3.4552,-3.4589,-3.4076,-3.3789,0.0,-3.3592,-3.2646,0.0,0.0,0.0,0.0,0.0,0.0,0.0,0.0,-3.3247,-3.3652,-3.4147,-3.438,-3.438,-3.438,-3.438,-3.438,-3.438,-3.4225,-3.3819,-3.362,-3.3064,0.0,0.0,0.0,0.0,0.0,0.0,0.0,0.0,0.0,0.0,0.0,0.0,0.0,0.0,0.0,0.0,0.0,0.0,0.0,0.0,0.0,0.0,0.0,-2.943,0.0,0.0,0.0,0.0,0.0,0.0,0.0,0.0,0.0,-2.5377,-2.5648,-2.6194,-2.7165,-2.7649,-2.8002,-2.8347,0.0,0.0,0.0,0.0,0.0,0.0,0.0,-2.7755,-2.7859,-2.7348,-2.6958,-2.7138,-2.6741,-2.6538,-2.6875,0.0,0.0,-2.5168,-2.4813,-2.4582,-2.4582,-2.4582,-2.4582,-2.4582,-2.4996,-2.5373,0.0,0.0,0.0,0.0,0.0,0.0,0.0,0.0,-3.7629,-3.7515,0.0,-3.717,0.0,0.0,0.0,0.0,0.0,0.0,0.0,0.0,-3.4754,-3.4666,-3.4941,-3.4212,-3.3788,-3.3743,-3.3556,-3.3355,-3.3311,-3.3311,0.0,0.0,0.0,0.0,0.0,0.0,-3.3652,-3.3561,-3.4109,-3.438,-3.438,-3.438,-3.438,-3.438,-3.438,-3.4414,-3.4351,-3.3833,-3.3518,-3.3474,-3.2266,0.0,0.0,0.0,0.0,0.0,0.0,0.0,0.0,0.0,0.0,0.0,0.0,0.0,0.0,0.0,0.0,0.0,0.0,0.0,0.0,-2.9651,0.0,0.0,0.0,0.0,0.0,0.0,0.0,0.0,0.0,0.0,-2.5385,-2.5363,-2.5667,-2.6574,0.0,0.0,0.0,0.0,-2.8724,-2.855,-2.851,-2.851,-2.851,-2.8077,-2.7714,-2.7714,0.0,0.0,-2.7618,-2.8098,-2.8402,-2.8486,-2.7981,-2.7236,-2.5733,-2.5432,-2.536,-2.536,-2.536,-2.5348,-2.5396,-2.5817,-2.6178,-4.1357,0.0,0.0,0.0,0.0,-3.781,-3.7745,-3.7672,-3.746,-3.7319,-3.727,-3.6942,0.0,0.0,0.0,0.0,0.0,0.0,-3.526,-3.5141,-3.5276,-3.5378,-3.5512,-3.5636,-3.5609,-3.5478,-3.5807,-3.5929,-3.5765,-3.5658,-3.4765,-3.3081,0.0,0.0,0.0,0.0,-3.374,-3.4124,-3.4327,-3.438,-3.438,-3.438,-3.438,-3.438,-3.438,-3.438,-3.438,-3.424,-3.3935,-3.3518,-3.3155,0.0,0.0,0.0,0.0,0.0,0.0,0.0,0.0,0.0,0.0,0.0,0.0,0.0,0.0,0.0,0.0,0.0,0.0,0.0,-2.9814,-2.9752,-2.9279,0.0,0.0,0.0,0.0,0.0,0.0,0.0,0.0,0.0,-2.585,-2.5982,-2.6163,0.0,0.0,-2.769,-2.777,-2.8252,-2.8578,-2.851,0.0,0.0,0.0,-2.8378,-2.8282,-2.8294,-2.8162,-2.8074,-2.8258,-2.8102,-2.8026,-2.8438,-2.8077,-2.7657,-2.7609,-2.6959,-2.6477,-2.6429,-2.6441,-2.6429,-2.6465,-2.6849,-2.7222,-4.3064,-4.0696,-3.9952,-3.9648,-3.9623,-3.9497,-3.9421,-3.9345,-3.9002,-3.8801,-3.8626,-3.8308,-3.7741,-3.6982,-3.6022,0.0,0.0,0.0,-3.6071,-3.609,-3.6338,-3.6453,-3.6385,-3.6623,-3.6682,-3.6575,-3.6793,-3.6845,-3.669,-3.6564,-3.5755,-3.4365,0.0,0.0,-3.4728,-3.4656,-3.4777,-3.514,-3.5169,-3.5134,-3.5154,-3.5169,-3.5038,-3.4806,-3.4777,-3.4675,-3.4428,-3.438,-3.4225,-3.3862,-3.3634,-3.314,0.0,0.0,0.0,0.0,0.0,0.0,0.0,0.0,0.0,0.0,0.0,-2.731,0.0,0.0,0.0,0.0,-2.9199,-2.9638,-2.9884,-2.9696,0.0,0.0,0.0,0.0,0.0,0.0,0.0,-2.5617,-2.5908,-2.6177,-2.6395,-2.6685,-2.6819,-2.6614,-2.7214,-2.7729,-2.7729,0.0,-2.851,-2.851,-2.851,-2.851,-2.851,-2.851,-2.851,-2.851,-2.851,-2.851,-2.8498,-2.8234,-2.815,-2.8378,-2.8258,-2.8098,-2.845,-2.793,-2.7534,-2.7522,-2.756,-2.7522,-2.7522,-2.7813,-2.799,-4.435,-4.3511,-4.2844,-4.2455,-4.226,-4.2159,-4.1997,-4.1821,-4.1493,-4.1181,-4.0831,-4.0572,-3.9445,-3.768,-3.6303,0.0,0.0,-3.6841,-3.7268,-3.7673,-3.7673,-3.7556,-3.7385,-3.7223,-3.7164,-3.7144,-3.6872,-3.676,-3.6739,-3.6547,-3.646,-3.646,-3.6446,-3.6402,-3.6315,-3.6286,-3.6286,-3.6286,-3.6286,-3.6286,-3.6286,-3.6286,-3.6025,-3.5494,-3.5421,-3.5116,-3.4516,-3.4443,-3.438,-3.4399,-3.3862,-3.3561,-3.3474,0.0,0.0,0.0,0.0,0.0,0.0,0.0,0.0,0.0,0.0,0.0,0.0,0.0,0.0,0.0,-2.9543,0.0,-2.9602,-2.9571,0.0,0.0,0.0,-2.7093,-2.6073,-2.5861,-2.5924,-2.6181,0.0,0.0,0.0,0.0,-2.757,-2.709,-2.7438,-2.775,-2.775,-2.821,-2.851,-2.8595,-2.8582,-2.8595,-2.8727,-2.8727,-2.8727,-2.8739,-2.8607,-2.8607,-2.8595,-2.851,-2.851,-2.851,-2.851,-2.851,-2.851,-2.8462,-2.851,-2.8462,-2.8462,-2.8486,-2.8438,-2.845,-2.8462,-4.6346,-4.5162,-4.4976,-4.3855,-4.2132,-4.2013,-4.1777,-4.1481,-4.1054,-4.0763,-4.0542,-3.9999,-3.9188,-3.8305,-3.7943,-3.7617,-3.734,-3.7473,-3.7523,-3.7488,-3.7488,-3.7351,-3.7174,-3.7629,-3.7689,-3.7447,-3.7865,-3.7989,-3.7826,-3.7752,-3.7752,-3.7752,-3.7752,-3.7259,-3.633,-3.6286,-3.6286,-3.6286,-3.6286,-3.6286,-3.6286,-3.6286,-3.6228,-3.6083,-3.5654,-3.5319,-3.5174,-3.4661,-3.438,-3.438,-3.4269,-3.3964,-3.3532,-3.3198,0.0,0.0,0.0,0.0,0.0,0.0,0.0,0.0,0.0,-2.8269,-2.8898,0.0,-2.9109,0.0,-2.9645,-2.9634,-2.9602,-2.9352,0.0,0.0,-2.8357,-2.8037,-2.7399,-2.7414,-2.7426,-2.7188,-2.742,-2.7597,-2.7512,-2.7993,-2.8242,-2.815,-2.8246,-2.833,-2.833,-2.8414,-2.8655,-2.9027,-2.9112,-2.9256,-2.9605,-2.9713,-2.9689,-2.9713,-2.9388,-2.9112,-2.9112,-2.8775,-2.851,-2.851,-2.851,-2.851,-2.851,-2.851,-2.851,-2.851,-2.851,-2.851,-2.851,-2.851,-2.851,-4.7212,-4.6194,-4.6089,-4.5231,-4.391,-4.3086,-4.2603,-4.2328,-4.1784,-4.1421,-4.1112,-3.9991,-3.9284,-3.8906,-3.8366,-3.8144,-3.8144,-3.8041,-3.8137,-3.8287,-3.8182,-3.8076,-3.8,-3.8191,-3.8157,-3.7967,-3.8243,-3.8329,-3.8202,-3.8202,-3.8202,-3.8202,-3.8202,-3.7839,-3.7186,-3.7157,-3.7157,-3.7143,-3.7157,-3.7157,-3.7143,-3.7157,-3.7027,-3.6751,-3.6417,-3.5988,-3.5421,-3.5058,-3.4704,-3.4428,-3.438,-3.4254,-3.3939,-3.3649,-3.3184,0.0,0.0,0.0,0.0,0.0,0.0,0.0,0.0,0.0,0.0,0.0,-2.9438,0.0,-2.9873,0.0,-2.9883,-2.9988,-2.9816,-2.9307,-2.9105,-2.8739,-2.8132,-2.7945,-2.7792,-2.774,-2.778,-2.7917,-2.8053,-2.8546,-2.8859,-2.8871,-2.9063,-2.9124,-2.8931,-2.9039,-2.9328,-2.9593,-2.9653,-2.9737,-3.0062,-3.0086,-3.0086,-3.0074,-2.9845,-2.9653,-2.9653,-2.9424,-2.9148,-2.8931,-2.8871,-2.8763,-2.8558,-2.851,-2.851,-2.851,-2.851,-2.851,-2.851,-2.851,-2.851,-4.7584,-4.6891,-4.6709,-4.6495,-4.6129,-4.4617,-4.3906,-4.3743,-4.3,-4.2382,-4.1819,-4.0298,-3.9579,-3.9431,-3.844,-3.8245,-3.8787,-3.8612,-3.8841,-3.9373,-3.9177,-3.9104,-3.9031,-3.8664,-3.8478,-3.8441,-3.8277,-3.8202,-3.8202,-3.8202,-3.8202,-3.8202,-3.8202,-3.8202,-3.8202,-3.8202,-3.8202,-3.8202,-3.8202,-3.8202,-3.8202,-3.8202,-3.7955,-3.7447,-3.7346,-3.678,-3.5712,-3.5479,-3.5145,-3.4574,-3.4457,-3.438,-3.4366,-3.3891,-3.3558,0.0,-3.2608,0.0,0.0,0.0,0.0,0.0,0.0,0.0,0.0,-2.9721,-2.9757,-2.9841,-3.0301,-3.0513,-3.0364,-3.0818,-3.0868,-3.0171,-2.9794,-2.9282,-2.8588,-2.8014,-2.7851,-2.8185,-2.8026,-2.8126,-2.8667,-2.9124,-2.94,-2.9436,-2.9833,-2.9989,-2.9641,-2.9809,-3.0037,-3.0158,-3.0254,-3.0417,-3.0386,-3.035,-3.035,-3.0326,-3.0242,-3.0236,-3.0236,-3.0098,-2.9917,-2.9508,-2.9412,-2.9256,-2.8787,-2.8739,-2.8739,-2.8787,-2.8811,-2.8739,-2.8558,-2.851,-2.851,-4.8267,-4.747,-4.7423,-4.6795,-4.5829,-4.5217,-4.4864,-4.4673,-4.3573,-4.221,-4.0783,-4.0454,-4.0063,-3.9662,-3.9451,-3.9309,-3.9281,-3.923,-3.9305,-3.9388,-3.9177,-3.9031,-3.8819,-3.8627,-3.8404,-3.824,-3.8202,-3.8202,-3.8202,-3.8202,-3.8202,-3.8202,-3.8202,-3.8202,0.0,0.0,0.0,0.0,-3.8202,-3.8202,-3.8202,-3.8202,-3.8159,-3.8028,-3.7549,0.0,-3.691,-3.5973,-3.5334,-3.5203,-3.469,0.0,0.0,0.0,0.0,0.0,0.0,0.0,0.0,0.0,0.0,0.0,-3.1054,-3.0604,-2.9732,-3.0052,-3.0558,-3.1078,-3.1114,-3.1037,-3.1018,-3.0819,-3.0535,-3.0137,-3.0037,-2.9736,-2.911,-2.8885,-2.8915,-2.9269,-2.9101,-2.9196,-2.9665,-2.9893,-2.9941,-2.9965,-3.0398,-3.0706,-3.0591,-3.0314,-3.0266,-3.0651,-3.1067,-3.1368,-3.1404,-3.1368,-3.1308,-3.1356,-3.0975,-3.0802,-3.0742,-3.0374,-3.011,-2.9941,-2.9941,-2.9917,-2.9773,-2.9797,-2.9725,-2.9785,-2.9773,-2.9532,-2.8703,-2.8522,-2.851,-4.8933,0.0,-4.7899,-4.7446,0.0,-4.6307,-4.5876,-4.5541,-4.409,-4.2708,-4.1489,-4.1326,-4.1039,-4.0691,-4.0566,-4.0492,-4.0397,-4.0382,-4.0308,-4.0196,-3.9684,-3.932,-3.9119,-3.8624,-3.8329,-3.8202,-3.8202,-3.8202,-3.8202,-3.8202,-3.8202,-3.8202,-3.8202,-3.8202,-3.8202,-3.8202,-3.8202,-3.8202,-3.8202,-3.8202,-3.8202,-3.8202,-3.8202,-3.8202,0.0,0.0,0.0,0.0,0.0,0.0,0.0,0.0,0.0,0.0,0.0,-3.3667,-3.3397,-3.2942,-3.2259,-3.2035,-3.1822,-3.1499,-3.1485,-3.1218,-3.0586,-3.0825,-3.1115,-3.1324,-3.1517,-3.1562,-3.1378,-3.1419,-3.1303,-3.0896,-3.0679,-3.0282,-2.9618,-2.9466,-2.9462,-2.9488,-2.9603,-2.9797,-3.005,-3.038,-3.047,-3.0549,-3.0927,-3.1296,-3.1284,-3.1091,-3.1043,-3.1271,-3.15,-3.1705,-3.1705,-3.1705,-3.1705,-3.1669,-3.1488,-3.1332,-3.1308,-3.1091,-3.0795,-3.0555,-3.0513,-3.0453,-3.0146,-3.0086,-3.0086,-3.0086,-3.0086,-2.9953,-2.9388,-2.9292,-2.928,-4.9697,-4.9093,-4.8429,-4.8134,-4.7985,-4.7147,-4.6477,-4.5885,0.0,0.0,0.0,-4.2095,-4.1813,-4.1626,-4.146,-4.1422,-4.1422,-4.1422,-4.1285,-4.108,-4.0341,-3.9847,-3.9613,-3.8897,-3.8536,-3.8536,-3.8536,-3.8478,-3.8376,-3.8376,-3.8318,-3.8217,-3.8202,-3.8202,-3.8202,-3.8202,-3.8202,-3.8202,-3.8202,-3.8202,-3.8202,-3.8202,-3.8202,-3.8202,-3.8202,-3.797,-3.7476,-3.736,-3.6809,-3.5813,-3.5625,-3.5276,-3.4632,-3.4369,-3.4209,-3.4074,-3.3764,-3.3378,-3.2849,-3.267,-3.2342,-3.1836,-3.1808,-3.1752,-3.1668,-3.1654,-3.1629,-3.1511,-3.195,-3.2055,-3.1691,-3.2066,-3.2141,-3.1633,-3.1303,-3.0814,-3.0008,-2.9973,-2.9935,-2.9675,-2.9977,-3.0278,-3.041,-3.0802,-3.1055,-3.1103,-3.1404,-3.1705,-3.1705,-3.1645,-3.1621,-3.1657,-3.1681,-3.1705,-3.1705,-3.1705,-3.1705,-3.1705,-3.1705,-3.1705,-3.1705,-3.1705,-3.1524,-3.1139,-3.1067,-3.0898,-3.0482,-3.0446,-3.0374,-3.0362,-3.0362,-3.0362,-3.0362,-3.0405,-3.029,-5.0674,-5.0358,-4.9344,-4.8676,-4.8166,-4.6926,-4.5801,-4.4796,-4.3979,-4.3021,-4.2073,-4.185,-4.1626,-4.146,-4.1422,-4.1422,-4.1422,-4.1422,-4.127,0.0,-4.0799,-4.0509,-4.0247,-3.995,-3.9828,-3.9828,-3.9842,-3.9567,-3.9102,-3.9059,-3.8783,-3.8275,-3.8202,-3.8202,-3.8202,-3.8202,-3.8202,-3.8202,-3.8202,-3.8202,-3.8202,-3.8202,-3.8202,-3.8202,-3.8202,-3.8173,-3.8072,-3.7578,-3.723,-3.7041,-3.6489,-3.588,-3.5319,-3.5074,-3.462,-3.3974,-3.3709,-3.3493,-3.3234,-3.3199,-3.3122,-3.3038,-3.3024,-3.2848,-3.2328,-3.2272,-3.2414,-3.2702,-3.2652,-3.2508,-3.2294,-3.2245,-3.2073,-3.1686,-3.1659,-3.1319,-3.0497,-3.0555,-3.0648,-3.0604,-3.0711,-3.0983,-3.132,-3.15,-3.1548,-3.1585,-3.1633,-3.1705,-3.1705,-3.1705,-3.1705,-3.1705,-3.1705,-3.1705,-3.1705,-3.1705,-3.1705,-3.1705,-3.1705,-3.1705,-3.1705,-3.1705,-3.1669,-3.1597,-3.1548,-3.1512,-3.1372,-3.1476,-3.1392,-3.1356,-3.1356,-3.1392,-3.1368,-3.138,-3.1151,-5.1095,-5.0476,-4.9704,-4.9124,-4.8567,-4.7073,-4.5708,-4.4594,-4.4021,-4.348,-4.2939,-4.2824,-4.2655,-4.2447,-4.2432,-4.2447,-4.2447,-4.2447,-4.2291,-4.1947,-4.1474,-4.1131,-4.0785,-4.0317,-4.0104,-4.0104,-4.0104,-3.9944,-3.9712,-3.9683,-3.9363,-3.8754,-3.8391,-3.8202,-3.8202,-3.8202,-3.8202,-3.8202,-3.8202,-3.8202,-3.8202,-3.8202,-3.8202,-3.8202,-3.8202,-3.8202,-3.8202,-3.7941,-3.7636,-3.7317,-3.7027,-3.6562,-3.5909,-3.5301,-3.4759,-3.4382,-3.3789,-3.3396,-3.3276,-3.3276,-3.3276,-3.3276,-3.3276,-3.3178,-3.2918,-3.2904,-3.2877,-3.2854,-3.2739,-3.2596,-3.2336,-3.2241,-3.2144,-3.2046,-3.1884,-3.1565,-3.1143,-3.11,-3.1113,-3.0941,-3.1175,-3.144,-3.1681,-3.1705,-3.1705,-3.1705,-3.1705,-3.1705,-3.1705,-3.1705,-3.1705,-3.1705,-3.1705,-3.1705,-3.1705,-3.1705,-3.1705,-3.1705,-3.1705,-3.1705,-3.1705,-3.1705,-3.1705,-3.1705,-3.1705,-3.1705,-3.1705,-3.1705,-3.1705,-3.1705,-3.1705,-3.1705,-3.1705,-3.1705,-3.1524,-5.1562,-5.079,-5.007,-4.9339,-4.8549,-4.6959,-4.5663,-4.4649,-4.4165,-4.3793,-4.3651,-4.3596,-4.3503,-4.3305,-4.3305,-4.329,-4.3305,-4.3305,-4.309,-4.2684,-4.2172,-4.1712,-4.132,-4.0786,-4.0554,-4.0554,-4.0554,-4.0466,-4.035,-4.0321,-4.0002,-3.9392,-3.8754,-3.8434,-3.842,-3.8275,-3.8202,-3.8202,-3.8202,-3.8202,-3.8202,-3.8202,-3.8202,-3.8202,-3.8202,-3.8202,-3.8202,-3.8202,-3.7984,-3.7549,-3.7506,-3.723,-3.6541,-3.5734,-3.5211,-3.4968,-3.4236,-3.3698,-3.3522,-3.3375,-3.3276,-3.3276,-3.3276,-3.3276,-3.3276,-3.3276,-3.3171,-3.281,-3.2739,-3.2616,-3.2504,-3.2436,-3.2455,-3.2579,-3.2383,-3.2082,-3.1672,-3.1645,-3.1565,-3.1226,-3.1464,-3.1705,-3.1705,-3.1705,-3.1705,-3.1705,-3.1705,-3.1705,-3.1705,-3.1705,-3.1705,-3.1705,-3.1705,-3.1705,-3.1705,-3.1705,-3.1705,-3.1705,-3.1705,-3.1705,-3.1705,-3.1705,-3.1705,-3.1705,-3.1705,-3.1705,-3.1705,-3.1705,-3.1705,-3.1705,-3.1705,-3.1705,-3.1705,-3.1705,-3.1705,-5.2527,-5.1974,-5.0812,-4.927,-4.7608,-4.6284,-4.5455,-4.4871,-4.4104,-4.3596,-4.3384,-4.3344,-4.3344,-4.3305,-4.3305,-4.3305,-4.3305,-4.3305,-4.309,-4.2729,-4.2629,-4.2386,-4.2003,-4.1903,-4.1903,-4.186,-4.1845,-4.1512,-4.1018,-4.0974,-4.0655,-4.0017,-3.9407,-3.9088,-3.903,-3.8507,-3.8217,-3.8202,-3.8202,-3.8202,-3.8202,-3.8202,-3.8202,-3.8202,-3.8202,-3.8202,-3.8202,-3.8202,-3.8173,-3.8115,-3.8115,-3.7839,-3.7251,-3.6909,-3.6423,-3.5682,-3.5386,-3.4978,-3.4197,-3.3599,-3.3368,-3.3276,-3.3382,-3.3347,-3.3347,-3.3319,-3.3206,-3.3057,-3.2852,-3.2858,-3.3156,-3.3081,-3.3076,-3.3206,-3.3251,-3.3051,-3.2302,-3.2228,-3.214,-3.1677,-3.1657,-3.1705,-3.1705,-3.1705,-3.1705,-3.1705,-3.1705,-3.1705,-3.1705,-3.1705,-3.1705,-3.1705,-3.1705,-3.1705,-3.1705,-3.1705,-3.1705,-3.1705,-3.1705,-3.1705,-3.1705,-3.1705,-3.1705,-3.1705,-3.1705,-3.1705,-3.1705,-3.1705,-3.1705,-3.1705,-3.1705,-3.1705,-3.1705,-3.1705,-3.1705,-5.2589,-5.2076,-5.1341,-4.9936,-4.8137,-4.7159,-4.6088,-4.4959,-4.4463,-4.3888,-4.3319,-4.3305,-4.3305,-4.3305,-4.3305,-4.3305,-4.3305,-4.3305,-4.3105,-4.2729,-4.2688,-4.2474,-4.2133,-4.2092,-4.2092,-4.2092,-4.2092,-4.1961,-4.1657,-4.1294,-4.0945,-4.0655,-4.0046,-3.9552,-3.9218,-3.8928,-3.8609,-3.8217,-3.8202,-3.8202,-3.8202,-3.8202,-3.8202,-3.8202,-3.8202,-3.8202,-3.8202,-3.8202,-3.8202,-3.8202,-3.8202,-3.8086,-3.7854,-3.7321,-3.6804,-3.6282,-3.5668,-3.5164,-3.4823,-3.457,-3.4407,-3.443,-3.4444,-3.4393,-3.4444,-3.4444,-3.4393,-3.4228,-3.3645,-3.3395,-3.3796,-3.368,-3.3632,-3.3766,-3.3659,-3.3297,-3.2764,-3.25,-3.2213,-3.1805,-3.1705,-3.1705,-3.1705,-3.1705,-3.1705,-3.1705,-3.1705,-3.1705,-3.1705,-3.1705,-3.1705,-3.1705,-3.1705,-3.1705,-3.1705,-3.1705,-3.1705,-3.1705,-3.1705,-3.1705,-3.1705,-3.1705,-3.1705,-3.1705,-3.1705,-3.1705,-3.1705,-3.1705,-3.1705,-3.1705,-3.1705,-3.1705,-3.1705,-3.1705,-3.1705,-5.2518,-5.1908,-5.1317,-5.0192,-4.8725,-4.7802,-4.6635,-4.5278,-4.4755,-4.4063,-4.3334,-4.3305,-4.3305,-4.3305,-4.3305,-4.3305,-4.3305,-4.3305,-4.309,-4.2729,-4.2688,-4.2459,-4.2133,-4.2092,-4.2092,-4.2092,-4.2092,-4.2092,-4.2049,-4.1628,-4.1366,-4.1265,-4.0699,-4.0075,-3.9494,-3.9305,-3.887,-3.826,-3.8202,-3.8202,-3.8202,-3.8202,-3.8202,-3.8202,-3.8202,-3.8202,-3.8202,-3.8202,-3.8202,-3.8202,-3.8202,-3.8202,-3.8188,-3.7632,-3.7253,-3.6971,-3.6079,-3.5517,-3.5517,-3.5325,-3.5189,-3.5189,-3.5189,-3.5189,-3.5189,-3.5189,-3.5273,-3.5363,-3.4664,-3.4375,-3.4503,-3.4383,-3.4345,-3.4393,-3.4028,-3.354,-3.3054,-3.2636,-3.2213,-3.1805,-3.1705,-3.1705,-3.1705,-3.1705,-3.1705,-3.1705,-3.1705,-3.1705,-3.1705,-3.1705,-3.1705,-3.1705,-3.1705,-3.1705,-3.1705,-3.1705,-3.1705,-3.1705,-3.1705,-3.1705,-3.1705,-3.1705,-3.1705,-3.1705,-3.1705,-3.1705,-3.1705,-3.1705,-3.1705,-3.1705,-3.1705,-3.1705,-3.1705,-3.1705,-3.1705,-5.2447,-5.1668,-5.0502,-4.9725,-4.9141,-4.7707,-4.6624,-4.5769,-4.4835,-4.3988,-4.3349,-4.3334,-4.3305,-4.3305,-4.3305,-4.3305,-4.3305,-4.329,-4.309,-4.2729,-4.2688,-4.2459,-4.2092,-4.2092,-4.2092,-4.2092,-4.2092,-4.2092,-4.2092,-4.2049,-4.2049,-4.199,-4.1366,-4.0713,-4.0075,-3.9523,-3.8884,-3.8347,-3.8231,-3.8202,-3.8202,-3.8202,-3.8202,-3.8202,-3.8202,-3.8202,-3.8202,-3.8202,-3.8202,-3.8202,-3.8202,-3.8202,-3.8202,-3.8121,-3.7979,-3.7724,-3.6907,-3.6339,-3.6269,-3.5746,-3.5339,-3.5245,-3.5381,-3.5245,-3.5372,-3.5372,-3.5569,-3.6019,-3.5805,-3.5561,-3.5372,-3.5205,-3.5045,-3.4967,-3.4622,-3.3956,-3.3104,-3.2636,-3.2201,-3.1793,-3.1705,-3.1705,-3.1705,-3.1705,-3.1705,-3.1705,-3.1705,-3.1705,-3.1705,-3.1705,-3.1705,-3.1705,-3.1705,-3.1705,-3.1705,-3.1705,-3.1705,-3.1705,-3.1705,-3.1705,-3.1705,-3.1705,-3.1705,-3.1705,-3.1705,-3.1705,-3.1705,-3.1705,-3.1705,-3.1705,-3.1705,-3.1705,-3.1705,-3.1705,-3.1705,-5.2017,-5.1162,-5.0113,-4.9477,-4.899,-4.8042,-4.6936,-4.5818,-4.5668,-4.4695,-4.3529,-4.3723,-4.3693,-4.3305,-4.3305,-4.3305,-4.329,-4.317,-4.2955,-4.2688,-4.2581,-4.2366,-4.2133,-4.2092,-4.2092,-4.2092,-4.2092,-4.2092,-4.2092,-4.2092,-4.2092,-4.2078,-4.186,-4.1395,-4.0728,-4.0089,-3.9465,-3.8855,-3.8449,-3.8202,-3.8202,-3.8202,-3.8202,-3.8202,-3.8202,-3.8202,-3.8202,-3.8202,-3.8202,-3.8202,-3.8202,-3.8202,-3.8202,-3.8066,-3.7953,-3.7877,-3.7448,-3.7168,-3.7139,-3.6893,-3.6675,-3.6561,-3.6561,-3.6443,-3.637,-3.637,-3.6455,-3.6599,-3.6617,-3.6437,-3.6099,-3.5876,-3.56,-3.5155,-3.466,-3.4063,-3.3215,-3.2624,-3.2213,-3.1793,-3.1705,-3.1705,-3.1705,-3.1705,-3.1705,-3.1705,-3.1705,-3.1705,-3.1705,-3.1705,-3.1705,-3.1705,-3.1705,-3.1705,-3.1705,-3.1705,-3.1705,-3.1705,-3.1705,-3.1705,-3.1705,-3.1705,-3.1705,-3.1705,-3.1705,-3.1705,-3.1705,-3.1705,-3.1705,-3.1705,-3.1705,-3.1705,-3.1705,-3.1705,-3.1705,-5.1524,-5.0727,-4.9916,-4.9316,-4.8831,-4.826,-4.7243,-4.6056,-4.6196,-4.5278,-4.3932,-4.4122,-4.3902,-4.3364,-4.3305,-4.3305,-4.3305,-4.3115,-4.2875,-4.2688,-4.25,-4.2284,-4.2133,-4.2092,-4.2092,-4.2092,-4.2092,-4.2092,-4.2092,-4.2092,-4.2092,-4.2092,-4.2092,-4.1758,-4.1105,-4.0423,-3.9799,-3.9189,-3.8536,-3.8202,-3.8202,-3.8202,-3.8202,-3.8202,-3.8202,-3.8202,-3.8202,-3.8202,-3.8202,-3.8202,-3.8202,-3.8202,-3.8202,-3.8066,-3.7991,-3.7953,-3.7815,-3.7701,-3.7701,-3.7663,-3.7519,-3.7404,-3.7341,-3.7226,-3.7095,-3.7017,-3.6978,-3.6978,-3.6978,-3.6836,-3.6549,-3.6325,-3.5912,-3.5208,-3.4729,-3.4134,-3.3258,-3.2766,-3.2288,-3.1849,-3.1705,-3.1705,-3.1705,-3.1705,-3.1705,-3.1705,-3.1705,-3.1705,-3.1705,-3.1705,-3.1705,-3.1705,-3.1705,-3.1705,-3.1705,-3.1705,-3.1705,-3.1705,-3.1705,-3.1705,-3.1705,-3.1705,-3.1705,-3.1705,-3.1705,-3.1705,-3.1705,-3.1705,-3.1705,-3.1705,-3.1705,-3.1705,-3.1705,-3.1705,-3.1705,-5.1092,-5.0448,-4.9821,-4.9194,-4.8563,-4.8099,-4.7413,-4.6572,-4.6376,-4.5514,-4.4287,-4.4347,-4.4032,-4.3394,-4.3305,-4.3305,-4.325,-4.3076,-4.289,-4.2688,-4.2474,-4.2284,-4.2092,-4.2092,-4.2092,-4.2092,-4.2092,-4.2092,-4.2092,-4.2092,-4.2092,-4.2092,-4.2092,-4.1802,-4.1134,-4.0481,-3.9813,-3.9247,-3.8594,-3.8217,-3.8202,-3.8202,-3.8202,-3.8202,-3.8202,-3.8202,-3.8202,-3.8202,-3.8202,-3.8202,-3.8202,-3.8202,-3.8202,-3.8165,-3.8202,-3.8142,-3.8005,-3.7906,-3.7891,-3.7739,-3.7649,-3.7572,-3.7419,-3.7341,-3.7264,-3.7095,-3.7017,-3.6993,-3.6978,-3.6915,-3.6721,-3.6484,-3.6072,-3.5249,-3.4853,-3.4301,-3.3556,-3.297,-3.245,-3.1881,-3.1705,-3.1705,-3.1705,-3.1705,-3.1705,-3.1705,-3.1705,-3.1705,-3.1705,-3.1705,-3.1705,-3.1705,-3.1705,-3.1705,-3.1705,-3.1705,-3.1705,-3.1705,-3.1705,-3.1705,-3.1705,-3.1705,-3.1705,-3.1705,-3.1705,-3.1705,-3.1705,-3.1705,-3.1705,-3.1705,-3.1705,-3.1705,-3.1705,-3.1705,-3.1705,-5.0804,-5.0253,-4.9661,-4.8975,-4.835,-4.7604,-4.6921,-4.6406,-4.6322,-4.5517,-4.4556,-4.4796,-4.4392,-4.3484,-4.3305,-4.3305,-4.325,-4.297,-4.2769,-4.2648,-4.2351,-4.216,-4.2092,-4.2092,-4.2092,-4.2092,-4.2092,-4.2092,-4.2092,-4.2092,-4.2092,-4.2092,-4.2092,-4.199,-4.1715,-4.0699,-3.9973,-3.9726,-3.8739,-3.8202,-3.8202,-3.8202,-3.8202,-3.8202,-3.8202,-3.8202,-3.8202,-3.8202,-3.8202,-3.8202,-3.8202,-3.8202,-3.8202,-3.8202,-3.8202,-3.8188,-3.8127,-3.8104,-3.8104,-3.8028,-3.7953,-3.7815,-3.7739,-3.7572,-3.7341,-3.7226,-3.7134,-3.7031,-3.6978,-3.6915,-3.6707,-3.6524,-3.6152,-3.5575,-3.5018,-3.4426,-3.3628,-3.2797,-3.2157,-3.1805,-3.1705,-3.1705,-3.1705,-3.1705,-3.1705,-3.1705,-3.1705,-3.1705,-3.1705,-3.1705,-3.1705,-3.1705,-3.1705,-3.1705,-3.1705,-3.1705,-3.1705,-3.1705,-3.1705,-3.1705,-3.1705,-3.1705,-3.1705,-3.1705,-3.1705,-3.1705,-3.1705,-3.1705,-3.1705,-3.1705,-3.1705,-3.1705,-3.1705,-3.1705,-3.1705,-5.0441,-4.9924,-4.93,-4.8702,-4.8084,-4.7236,-4.6795,-4.6621,-4.6384,-4.5693,-4.493,-4.5095,-4.4571,-4.3499,-4.3305,-4.3305,-4.325,-4.289,-4.2688,-4.2622,-4.2284,-4.2092,-4.2092,-4.2092,-4.2092,-4.2092,-4.2092,-4.2092,-4.2092,-4.2092,-4.2092,-4.2092,-4.2092,-4.2092,-4.1976,-4.08,-4.0104,-3.9915,-3.8855,-3.8202,-3.8202,-3.8202,-3.8202,-3.8202,-3.8202,-3.8202,-3.8202,-3.8202,-3.8202,-3.8202,-3.8202,-3.8202,-3.8202,-3.8202,-3.8202,-3.8202,-3.8202,-3.8202,-3.8202,-3.8202,-3.8179,-3.8043,-3.7929,-3.7815,-3.7534,-3.7419,-3.7226,-3.7134,-3.7017,-3.6954,-3.6811,-3.6628,-3.6351,-3.6018,-3.5304,-3.4509,-3.367,-3.2754,-3.2113,-3.1893,-3.1761,-3.1717,-3.1705,-3.1705,-3.1705,-3.1705,-3.1705,-3.1705,-3.1705,-3.1705,-3.1705,-3.1705,-3.1705,-3.1705,-3.1705,-3.1705,-3.1705,-3.1705,-3.1705,-3.1705,-3.1705,-3.1705,-3.1705,-3.1705,-3.1705,-3.1705,-3.1705,-3.1705,-3.1705,-3.1705,-3.1705,-3.1705,-3.1705,-3.1705,-3.1705,-5.0136,-4.9557,-4.8893,-4.8366,-4.7824,-4.6906,-4.6713,-4.701,-4.6501,-4.5828,-4.5334,-4.5259,-4.4571,-4.3514,-4.3305,-4.3305,-4.3225,-4.289,-4.2688,-4.2581,-4.2284,-4.2092,-4.2092,-4.2092,-4.2092,-4.2092,-4.2092,-4.2092,-4.2092,-4.2092,-4.2092,-4.2092,-4.2092,-4.2092,-4.1845,-4.0771,-4.0104,-3.9929,-3.8841,-3.8217,-3.8202,-3.8202,-3.8202,-3.8202,-3.8202,-3.8202,-3.8202,-3.8202,-3.8202,-3.8202,-3.8202,-3.8202,-3.8202,-3.8202,-3.8202,-3.8202,-3.8202,-3.8202,-3.8202,-3.8202,-3.8202,-3.8179,-3.8028,-3.7891,-3.7815,-3.7534,-3.7341,-3.7264,-3.7095,-3.6978,-3.6954,-3.6772,-3.6549,-3.6258,-3.548,-3.4564,-3.3556,-3.281,-3.2332,-3.2038,-3.1849,-3.1705,-3.1705,-3.1705,-3.1705,-3.1705,-3.1705,-3.1705,-3.1705,-3.1705,-3.1705,-3.1705,-3.1705,-3.1705,-3.1705,-3.1705,-3.1705,-3.1705,-3.1705,-3.1705,-3.1705,-3.1705,-3.1705,-3.1705,-3.1705,-3.1705,-3.1705,-3.1705,-3.1705,-3.1705,-3.1705,-3.1705,-3.1705,-3.1705,-3.1705,-5.0018,-4.9557,-4.8852,-4.8079,-4.7217,-4.6316,-4.6172,-4.6456,-4.5858,-4.5499,-4.5304,-4.5289,-4.4571,-4.3379,-4.3305,-4.3305,-4.321,-4.289,-4.2688,-4.2607,-4.2284,-4.2092,-4.2092,-4.2092,-4.2092,-4.2092,-4.2092,-4.2092,-4.2092,-4.2092,-4.2092,-4.2092,-4.2092,-4.2092,-4.1889,-4.0771,-4.0147,-3.9929,-3.8841,-3.8202,-3.8202,-3.8202,-3.8202,-3.8202,-3.8202,-3.8202,-3.8202,-3.8202,-3.8202,-3.8202,-3.8202,-3.8202,-3.8202,-3.8202,-3.8202,-3.8202,-3.8202,-3.8202,-3.8202,-3.8202,-3.8202,-3.8202,-3.8142,-3.8066,-3.7906,-3.7663,-3.7457,-3.7303,-3.7095,-3.6978,-3.6993,-3.6811,-3.647,-3.5924,-3.5304,-3.4509,-3.3768,-3.3043,-3.2463,-3.2069,-3.1849,-3.1749,-3.1705,-3.1705,-3.1705,-3.1705,-3.1705,-3.1705,-3.1705,-3.1705,-3.1705,-3.1705,-3.1705,-3.1705,-3.1705,-3.1705,-3.1705,-3.1705,-3.1705,-3.1705,-3.1705,-3.1705,-3.1705,-3.1705,-3.1705,-3.1705,-3.1705,-3.1705,-3.1705,-3.1705,-3.1705,-3.1705,-3.1705,-3.1705,-3.1705,-4.9821,-4.9412,-4.8646,-4.7821,-4.6917,-4.5962,-4.5818,-4.6097,-4.5603,-4.5289,-4.5289,-4.5289,-4.4571,-4.3379,-4.3305,-4.3305,-4.3235,-4.289,-4.2688,-4.2607,-4.2284,-4.2092,-4.2092,-4.2092,-4.2092,-4.2092,-4.2092,-4.2092,-4.2092,-4.2092,-4.2092,-4.2092,-4.2092,-4.2092,-4.2005,-4.08,-4.0104,-3.9871,-3.887,-3.8202,-3.8202,-3.8202,-3.8202,-3.8202,-3.8202,-3.8202,-3.8202,-3.8202,-3.8202,-3.8202,-3.8202,-3.8202,-3.8202,-3.8202,-3.8202,-3.8202,-3.8202,-3.8202,-3.8202,-3.8202,-3.8202,-3.8202,-3.8202,-3.8142,-3.8043,-3.7853,-3.7625,-3.7471,-3.7226,-3.7095,-3.6954,-3.6747,-3.6417,-3.6018,-3.5304,-3.4605,-3.3937,-3.3283,-3.2736,-3.23,-3.1981,-3.1793,-3.1717,-3.1705,-3.1705,-3.1705,-3.1705,-3.1705,-3.1705,-3.1705,-3.1705,-3.1705,-3.1705,-3.1705,-3.1705,-3.1705,-3.1705,-3.1705,-3.1705,-3.1705,-3.1705,-3.1705,-3.1705,-3.1705,-3.1705,-3.1705,-3.1705,-3.1705,-3.1705,-3.1705,-3.1705,-3.1705,-3.1705,-3.1705,-3.1705,-4.9637,-4.9219,-4.837,-4.7581,-4.6754,-4.5781,-4.5618,-4.5992,-4.5424,-4.52,-4.5244,-4.5229,-4.4421,-4.3319,-4.3305,-4.3305,-4.329,-4.293,-4.2729,-4.2581,-4.2284,-4.2092,-4.2092,-4.2092,-4.2092,-4.2092,-4.2092,-4.2092,-4.2092,-4.2092,-4.2092,-4.2092,-4.2092,-4.202,-4.1686,-4.0684,-4.0133,-3.9741,-3.8797,-3.8231,-3.8202,-3.8202,-3.8202,-3.8202,-3.8202,-3.8202,-3.8202,-3.8202,-3.8202,-3.8202,-3.8202,-3.8202,-3.8202,-3.8202,-3.8202,-3.8202,-3.8202,-3.8202,-3.8202,-3.8202,-3.8202,-3.8202,-3.8202,-3.8202,-3.8142,-3.7967,-3.7777,-3.7586,-3.7419,-3.7226,-3.6993,-3.6668,-3.6445,-3.6206,-3.5616,-3.4867,-3.4256,-3.3539,-3.2939,-3.2487,-3.2169,-3.195,-3.1761,-3.1705,-3.1705,-3.1705,-3.1705,-3.1705,-3.1705,-3.1705,-3.1705,-3.1705,-3.1705,-3.1705,-3.1705,-3.1705,-3.1705,-3.1705,-3.1705,-3.1705,-3.1705,-3.1705,-3.1705,-3.1705,-3.1705,-3.1705,-3.1705,-3.1705,-3.1705,-3.1705,-3.1705,-3.1705,-3.1705,-3.1705,-3.1705,-4.9501,-4.9235,-4.837,-4.7323,-4.6223,-4.5571,-4.5379,-4.5454,-4.4825,-4.4885,-4.5095,-4.4766,-4.4092,-4.3305,-4.3305,-4.3305,-4.3265,-4.301,-4.2769,-4.2433,-4.2201,-4.2092,-4.2092,-4.2092,-4.2092,-4.2092,-4.2092,-4.2092,-4.2092,-4.2092,-4.2092,-4.2092,-4.2063,-4.1831,-4.1265,-4.0583,-3.9828,-3.9349,-3.8594,-3.8231,-3.8202,-3.8202,-3.8202,-3.8202,-3.8202,-3.8202,-3.8202,-3.8202,-3.8202,-3.8202,-3.8202,-3.8202,-3.8202,-3.8202,-3.8202,-3.8202,-3.8202,-3.8202,-3.8202,-3.8202,-3.8202,-3.8202,-3.8202,-3.8202,-3.8202,-3.8028,-3.7815,-3.7625,-3.7433,-3.7264,-3.6993,-3.6628,-3.6445,-3.6286,-3.5777,-3.5154,-3.4564,-3.3852,-3.3227,-3.2723,-3.23,-3.1937,-3.1749,-3.1749,-3.1705,-3.1705,-3.1705,-3.1705,-3.1705,-3.1705,-3.1705,-3.1705,-3.1705,-3.1705,-3.1705,-3.1705,-3.1705,-3.1705,-3.1705,-3.1705,-3.1705,-3.1705,-3.1705,-3.1705,-3.1705,-3.1705,-3.1705,-3.1705,-3.1705,-3.1705,-3.1705,-3.1705,-3.1705,-3.1705,-3.1705,-4.9477,-4.9163,-4.8033,-4.6958,-4.6026,-4.5496,-4.5125,-4.4885,-4.4825,-4.4781,-4.4766,-4.4436,-4.3902,-4.3319,-4.3305,-4.3305,-4.3225,-4.297,-4.2688,-4.2392,-4.2216,-4.2092,-4.2092,-4.2092,-4.2092,-4.2092,-4.2092,-4.2092,-4.2092,-4.2092,-4.2092,-4.2092,-4.2078,-4.1744,-4.1091,-4.0423,-3.9799,-3.9204,-3.8551,-3.8202,-3.8202,-3.8202,-3.8202,-3.8202,-3.8202,-3.8202,-3.8202,-3.8202,-3.8202,-3.8202,-3.8202,-3.8202,-3.8202,-3.8202,-3.8202,-3.8202,-3.8202,-3.8202,-3.8202,-3.8202,-3.8202,-3.8202,-3.8202,-3.8202,-3.8202,-3.8104,-3.7877,-3.7649,-3.7495,-3.7341,-3.7031,-3.6747,-3.6563,-3.6312,-3.5884,-3.5399,-3.4964,-3.4356,-3.3611,-3.3068,-3.2692,-3.2288,-3.2057,-3.1925,-3.1793,-3.1793,-3.1717,-3.1717,-3.1705,-3.1705,-3.1705,-3.1705,-3.1705,-3.1705,-3.1705,-3.1705,-3.1705,-3.1705,-3.1705,-3.1705,-3.1705,-3.1705,-3.1705,-3.1705,-3.1705,-3.1705,-3.1705,-3.1705,-3.1705,-3.1705,-3.1705,-3.1705,-3.1693,-3.1681,-3.1681,-4.9374,-4.9048,-4.762,-4.6665,-4.5981,-4.5432,-4.4941,-4.4631,-4.4811,-4.4616,-4.4362,-4.4242,-4.3738,-4.3394,-4.3305,-4.3305,-4.3225,-4.297,-4.2703,-4.2474,-4.2284,-4.2175,-4.2133,-4.2092,-4.2092,-4.2092,-4.2092,-4.2092,-4.2092,-4.2092,-4.2092,-4.2078,-4.1932,-4.1482,-4.0902,-4.0278,-3.9567,-3.8942,-3.8463,-3.8202,-3.8202,-3.8202,-3.8202,-3.8202,-3.8202,-3.8202,-3.8202,-3.8202,-3.8202,-3.8202,-3.8202,-3.8202,-3.8202,-3.8202,-3.8202,-3.8202,-3.8202,-3.8202,-3.8202,-3.8202,-3.8202,-3.8202,-3.8202,-3.8202,-3.8202,-3.8165,-3.7991,-3.7725,-3.7495,-3.7303,-3.7031,-3.6772,-3.6628,-3.6431,-3.6018,-3.5683,-3.5386,-3.4895,-3.423,-3.3454,-3.3111,-3.2754,-3.2407,-3.2145,-3.2013,-3.1837,-3.1805,-3.1761,-3.1761,-3.1705,-3.1705,-3.1705,-3.1705,-3.1705,-3.1705,-3.1705,-3.1705,-3.1705,-3.1705,-3.1705,-3.1705,-3.1705,-3.1705,-3.1705,-3.1705,-3.1705,-3.1705,-3.1705,-3.1705,-3.1705,-3.1705,-3.1705,-3.1681,-3.1633,-3.156,-4.8988,-4.8424,-4.7599,-4.6788,-4.593,-4.5087,-4.4884,-4.4915,-4.4107,-4.3902,-4.4212,-4.3723,-4.3454,-4.3305,-4.3305,-4.3305,-4.325,-4.3036,-4.285,-4.2662,-4.2433,-4.2284,-4.2133,-4.2092,-4.2092,-4.2092,-4.2092,-4.2092,-4.2092,-4.2092,-4.2049,-4.1976,-4.157,-4.0989,-4.0307,-3.9668,-3.9117,-3.8594,-3.8289,-3.8217,-3.8202,-3.8202,-3.8202,-3.8202,-3.8202,-3.8202,-3.8202,-3.8202,-3.8202,-3.8202,-3.8202,-3.8202,-3.8202,-3.8202,-3.8202,-3.8202,-3.8202,-3.8202,-3.8202,-3.8202,-3.8202,-3.8202,-3.8202,-3.8202,-3.8202,-3.8202,-3.7991,-3.7649,-3.7341,-3.7056,-3.7017,-3.6836,-3.6707,-3.6549,-3.6272,-3.5938,-3.5683,-3.5304,-3.4853,-3.4118,-3.3654,-3.3227,-3.2884,-3.2581,-3.2407,-3.2232,-3.2113,-3.2038,-3.1994,-3.1849,-3.1749,-3.1705,-3.1705,-3.1705,-3.1705,-3.1705,-3.1705,-3.1705,-3.1705,-3.1705,-3.1705,-3.1705,-3.1705,-3.1573,-3.1633,-3.1705,-3.1705,-3.1681,-3.1609,-3.1524,-3.1597,-3.1657,-3.1416,-3.1175,-3.1067,-4.8537,-4.7707,-4.7161,-4.6391,-4.5536,-4.5304,-4.4789,-4.4257,-4.3917,-4.3768,-4.3678,-4.3439,-4.3305,-4.3305,-4.3305,-4.3305,-4.325,-4.3076,-4.2955,-4.2809,-4.2541,-4.2351,-4.2242,-4.2175,-4.2092,-4.2092,-4.2092,-4.2092,-4.2092,-4.2092,-4.1903,-4.1555,-4.1221,-4.0612,-3.9813,-3.9378,-3.8826,-3.8347,-3.8202,-3.8202,-3.8202,-3.8202,-3.8202,-3.8202,-3.8202,-3.8202,-3.8202,-3.8202,-3.8202,-3.8202,-3.8202,-3.8202,-3.8202,-3.8202,-3.8202,-3.8202,-3.8202,-3.8202,-3.8202,-3.8202,-3.8202,-3.8202,-3.8202,-3.8202,-3.8202,-3.8165,-3.7991,-3.7649,-3.7264,-3.6978,-3.6978,-3.6875,-3.6811,-3.6668,-3.6431,-3.6152,-3.5898,-3.5616,-3.5195,-3.4743,-3.4314,-3.381,-3.3343,-3.3086,-3.2884,-3.268,-3.2463,-3.2344,-3.2257,-3.2069,-3.1881,-3.1805,-3.1761,-3.1705,-3.1705,-3.1705,-3.1705,-3.1705,-3.1609,-3.1621,-3.1597,-3.1548,-3.1416,-3.1259,-3.1392,-3.15,-3.1548,-3.1464,-3.1404,-3.1216,-3.1067,-3.0898,-3.0826,-3.0663,-3.053,-4.8246,-4.7162,-4.6841,-4.6082,-4.5318,-4.5253,-4.4649,-4.3733,-4.3888,-4.3738,-4.3349,-4.3305,-4.3305,-4.3305,-4.3305,-4.3305,-4.329,-4.313,-4.3036,-4.2955,-4.2688,-4.25,-4.2351,-4.2242,-4.2133,-4.2092,-4.2092,-4.2092,-4.2049,-4.1889,-4.1555,-4.1163,-4.096,-4.0292,-3.9392,-3.903,-3.8638,-3.8391,-3.8202,-3.8202,-3.8202,-3.8202,-3.8202,-3.8202,-3.8202,-3.8202,-3.8202,-3.8202,-3.8202,-3.8202,-3.8202,-3.8202,-3.8202,-3.8202,-3.8202,-3.8202,-3.8202,-3.8202,-3.8202,-3.8202,-3.8202,-3.8202,-3.8202,-3.8202,-3.8165,-3.8089,-3.7915,-3.761,-3.7264,-3.6978,-3.6978,-3.6978,-3.6915,-3.6786,-3.6549,-3.6312,-3.6072,-3.5831,-3.5575,-3.5154,-3.4853,-3.4439,-3.4008,-3.3725,-3.3556,-3.327,-3.3013,-3.2766,-3.2649,-3.2376,-3.2189,-3.1981,-3.1849,-3.1761,-3.1705,-3.1705,-3.1705,-3.1705,-3.15,-3.1356,-3.1344,-3.132,-3.106,-3.0771,-3.0891,-3.1031,-3.1139,-3.1127,-3.091,-3.0603,-3.0302,-3.023,-3.035,-3.0194,-2.9965,-4.8223,-4.7162,-4.6943,-4.6462,-4.5723,-4.4707,-4.4257,-4.4092,-4.3633,-4.3379,-4.3305,-4.3305,-4.3305,-4.3305,-4.3305,-4.3305,-4.3305,-4.325,-4.3155,-4.3036,-4.2915,-4.2688,-4.2433,-4.2392,-4.2242,-4.209,-4.2034,-4.2092,-4.1903,-4.1497,-4.1178,-4.0844,-4.0017,-3.9305,-3.9088,-3.8681,-3.8289,-3.8217,-3.8202,-3.8202,-3.8202,-3.8202,-3.8202,-3.8202,-3.8202,-3.8202,-3.8202,-3.8202,-3.8202,-3.8202,-3.8202,-3.8202,-3.8202,-3.8202,-3.8202,-3.8202,-3.8202,-3.8202,-3.8202,-3.8202,-3.8202,-3.8202,-3.8202,-3.8202,-3.8127,-3.7901,-3.7687,-3.761,-3.7226,-3.7017,-3.6978,-3.6978,-3.6978,-3.6836,-3.6628,-3.6431,-3.6286,-3.5898,-3.5642,-3.5562,-3.5223,-3.4977,-3.4634,-3.4426,-3.4189,-3.3894,-3.3611,-3.3326,-3.3025,-3.2754,-3.245,-3.2245,-3.1937,-3.1805,-3.1641,-3.1665,-3.1524,-3.1573,-3.1284,-3.1019,-3.0946,-3.0795,-3.0458,-3.0278,-3.0386,-3.0314,-3.0206,-3.0158,-3.0158,-3.005,-2.9833,-2.9917,-3.011,-2.9821,-2.9412,-4.7855,-4.667,-4.6928,-4.622,-4.4908,-4.4634,-4.4237,-4.3743,-4.3424,-4.3305,-4.3305,-4.3305,-4.3305,-4.3305,-4.3305,-4.3305,-4.3305,-4.3305,-4.325,-4.3155,-4.3036,-4.285,-4.2622,-4.2433,-4.2269,-4.2029,-4.1729,-4.1482,-4.1395,-4.1192,-4.0844,-4.0002,-3.9494,-3.9,-3.8739,-3.8376,-3.8246,-3.8202,-3.8202,-3.8202,-3.8202,-3.8202,-3.8202,-3.8202,-3.8202,-3.8202,-3.8202,-3.8202,-3.8202,-3.8202,-3.8202,-3.8202,-3.8202,-3.8202,-3.8202,-3.8202,-3.8202,-3.8202,-3.8202,-3.8202,-3.8202,-3.8202,-3.8202,-3.8202,-3.8127,-3.7825,-3.761,-3.7572,-3.7226,-3.7017,-3.6978,-3.6978,-3.6978,-3.6875,-3.6654,-3.651,-3.6325,-3.5938,-3.5669,-3.5629,-3.5588,-3.5345,-3.5141,-3.4936,-3.4688,-3.4384,-3.4147,-3.3907,-3.3569,-3.3185,-3.284,-3.2506,-3.2201,-3.1893,-3.168,-3.1528,-3.1175,-3.1091,-3.0718,-3.0501,-3.0441,-3.023,-2.9893,-2.9701,-2.9713,-2.9581,-2.9352,-2.9436,-2.9617,-2.9532,-2.9388,-2.9424,-2.9436,-2.922,-2.8883,-4.751,-4.6303,-4.6748,-4.5912,-4.43,-4.461,-4.4206,-4.3374,-4.3305,-4.3305,-4.3305,-4.3305,-4.3305,-4.3305,-4.3305,-4.3305,-4.3305,-4.3305,-4.3305,-4.325,-4.3115,-4.297,-4.2695,-4.2478,-4.2059,-4.1898,-4.116,-4.0771,-4.0597,-4.0481,-4.0017,-3.9204,-3.9015,-3.8696,-3.8362,-3.8217,-3.8202,-3.8202,-3.8202,-3.8202,-3.8202,-3.8202,-3.8202,-3.8202,-3.8202,-3.8202,-3.8202,-3.8202,-3.8202,-3.8202,-3.8202,-3.8202,-3.8202,-3.8202,-3.8202,-3.8202,-3.8202,-3.8202,-3.8202,-3.8202,-3.8202,-3.8202,-3.8202,-3.8202,-3.8165,-3.7839,-3.761,-3.761,-3.7226,-3.7056,-3.6978,-3.6978,-3.6978,-3.6875,-3.6654,-3.651,-3.6312,-3.591,-3.5669,-3.5669,-3.5669,-3.5669,-3.5467,-3.5358,-3.5141,-3.4922,-3.4688,-3.4413,-3.4011,-3.3483,-3.3025,-3.2578,-3.2185,-3.1754,-3.1295,-3.1119,-3.0821,-3.0585,-3.0212,-2.9941,-2.9881,-2.9665,-2.9352,-2.922,-2.916,-2.9027,-2.8907,-2.9015,-2.91,-2.9027,-2.8931,-2.8739,-2.8631,-2.851,-2.8522,-4.7246,-4.6202,-4.6233,-4.5743,-4.4847,-4.4276,-4.3799,-4.3305,-4.3305,-4.3305,-4.3305,-4.3305,-4.3305,-4.3305,-4.3305,-4.3305,-4.3305,-4.3305,-4.3305,-4.3305,-4.325,-4.3026,-4.2648,-4.2124,-4.1615,-4.1328,-4.0615,-3.9915,-3.9509,-3.9523,-3.9349,-3.916,-3.8667,-3.8362,-3.8217,-3.8202,-3.8202,-3.8202,-3.8202,-3.8202,-3.8202,-3.8202,-3.8202,-3.8202,-3.8202,-3.8202,-3.8202,-3.8202,-3.8202,-3.8202,-3.8202,-3.8202,-3.8202,-3.8202,-3.8202,-3.8202,-3.8202,-3.8202,-3.8202,-3.8202,-3.8202,-3.8202,-3.8202,-3.8202,-3.8202,-3.7839,-3.761,-3.7534,-3.7226,-3.7017,-3.6978,-3.6978,-3.6978,-3.6875,-3.6665,-3.6385,-3.612,-3.5761,-3.556,-3.5669,-3.5574,-3.533,-3.5289,-3.4995,-3.5144,-3.4888,-3.4512,-3.4283,-3.4033,-3.354,-3.3024,-3.2559,-3.2134,-3.1544,-3.076,-3.0488,-3.041,-3.0144,-2.9747,-2.9513,-2.9352,-2.91,-2.8919,-2.8823,-2.8775,-2.8619,-2.8546,-2.8703,-2.8763,-2.8619,-2.851,-2.851,-2.851,-2.851,-2.851,-4.6579,-4.5609,-4.5466,-4.4995,-4.4376,-4.4094,-4.3738,-4.3344,-4.3305,-4.3305,-4.3305,-4.3305,-4.3305,-4.3305,-4.3305,-4.3305,-4.3305,-4.3305,-4.3275,-4.3125,-4.2946,-4.2643,-4.2164,-4.1627,-4.0994,-4.0666,-3.9974,-3.9494,-3.9262,-3.8855,-3.8623,-3.8463,-3.8333,-3.826,-3.8202,-3.8202,-3.8202,-3.8202,-3.8202,-3.8202,-3.8202,-3.8202,-3.8202,-3.8202,-3.8202,-3.8202,-3.8202,-3.8202,-3.8202,-3.8202,-3.8202,-3.8202,-3.8202,-3.8202,-3.8202,-3.8202,-3.8202,-3.8202,-3.8202,-3.8202,-3.8202,-3.8202,-3.8202,-3.8202,-3.8202,-3.7839,-3.7649,-3.7457,-3.7226,-3.7017,-3.6978,-3.6978,-3.6978,-3.6915,-3.6607,-3.6205,-3.5792,-3.5406,-3.5058,-3.4991,-3.4707,-3.4463,-3.4477,-3.4517,-3.4736,-3.4859,-3.4459,-3.4073,-3.3832,-3.3562,-3.3027,-3.2493,-3.2051,-3.1609,-3.0852,-3.0421,-3.0069,-2.9687,-2.9375,-2.9185,-2.8984,-2.8799,-2.8643,-2.8522,-2.851,-2.8522,-2.8522,-2.851,-2.851,-2.851,-2.851,-2.851,-2.851,-2.851,-2.851,-4.5886,-4.5198,-4.4927,-4.4549,-4.4089,-4.4026,-4.3778,-4.3463,-4.3344,-4.3305,-4.3305,-4.3305,-4.3305,-4.3305,-4.3305,-4.3305,-4.323,-4.3135,-4.3045,-4.2776,-4.2402,-4.204,-4.1564,-4.1015,-4.0371,-4.0032,-3.9363,-3.887,-3.8812,-3.8405,-3.8304,-3.8275,-3.8202,-3.8202,-3.8202,-3.8202,-3.8202,-3.8202,-3.8202,-3.8202,-3.8202,-3.8202,-3.8202,-3.8202,-3.8202,-3.8202,-3.8202,-3.8202,-3.8202,-3.8202,-3.8202,-3.8202,-3.8202,-3.8202,-3.8202,-3.8202,-3.8202,-3.8202,-3.8202,-3.8202,-3.8202,-3.8202,-3.8202,-3.8202,-3.8127,-3.7839,-3.761,-3.7534,-3.7226,-3.6964,-3.6936,-3.681,-3.6641,-3.6504,-3.585,-3.5438,-3.5184,-3.4829,-3.4444,-3.4179,-3.403,-3.403,-3.3935,-3.4002,-3.4084,-3.4302,-3.4265,-3.3935,-3.37,-3.341,-3.3028,-3.2501,-3.1976,-3.1529,-3.1069,-3.0473,-2.9918,-2.9459,-2.9144,-2.8875,-2.8674,-2.855,-2.851,-2.851,-2.851,-2.851,-2.851,-2.851,-2.851,-2.851,-2.851,-2.851,-2.851,-2.851,-2.851,-4.5204,-4.5145,-4.4746,-4.4442,-4.4281,-4.4089,-4.3871,-4.3636,-4.3423,-4.3305,-4.3305,-4.3305,-4.3305,-4.3275,-4.323,-4.3125,-4.2991,-4.2641,-4.2425,-4.2261,-4.1728,-4.1459,-4.1009,-4.0463,-3.9837,-3.9576,-3.8975,-3.8443,-3.8318,-3.826,-3.8202,-3.8202,-3.8202,-3.8202,-3.8202,-3.8202,-3.8202,-3.8202,-3.8202,-3.8202,-3.8202,-3.8202,-3.8202,-3.8202,-3.8202,-3.8202,-3.8202,-3.8202,-3.8202,-3.8202,-3.8202,-3.8202,-3.8202,-3.8202,-3.8202,-3.8202,-3.8202,-3.8202,-3.8202,-3.8202,-3.8202,-3.8202,-3.8202,-3.8202,-3.8142,-3.7877,-3.761,-3.7572,-3.7127,-3.6933,-3.6778,-3.6497,-3.6244,-3.5919,-3.5308,-3.483,-3.4554,-3.4227,-3.3859,-3.3485,-3.3664,-3.3826,-3.3637,-3.3566,-3.3512,-3.3623,-3.384,-3.3738,-3.3398,-3.3083,-3.2664,-3.2366,-3.181,-3.1436,-3.0971,-3.0314,-2.975,-2.9285,-2.8971,-2.8828,-2.8657,-2.855,-2.851,-2.851,-2.851,-2.851,-2.851,-2.851,-2.851,-2.851,-2.851,-2.851,-2.851,-2.851,-2.851,-4.4045,-4.4413,-4.4096,-4.4172,-4.4442,-4.4281,-4.4026,-4.369,-4.3438,-4.3305,-4.3305,-4.3305,-4.3305,-4.32,-4.2895,-4.2716,-4.2551,-4.2028,-4.1752,-4.1624,-4.1025,-4.0816,-4.0472,-3.9899,-3.9306,-3.9054,-3.8597,-3.8329,-3.8231,-3.8202,-3.8202,-3.8202,-3.8202,-3.8202,-3.8202,-3.8202,-3.8202,-3.8202,-3.8202,-3.8202,-3.8202,-3.8202,-3.8202,-3.8202,-3.8202,-3.8202,-3.8202,-3.8202,-3.8202,-3.8202,-3.8202,-3.8202,-3.8202,-3.8202,-3.8202,-3.8202,-3.8202,-3.8202,-3.8202,-3.8202,-3.8202,-3.8202,-3.8202,-3.8202,-3.8165,-3.7839,-3.7663,-3.7405,-3.6844,-3.6578,-3.63,-3.5822,-3.5555,-3.5424,-3.4924,-3.4473,-3.4107,-3.3643,-3.3227,-3.2793,-3.2752,-3.2888,-3.282,-3.2942,-3.2955,-3.2888,-3.3064,-3.2996,-3.2698,-3.2479,-3.2131,-3.1993,-3.1662,-3.1283,-3.085,-3.0483,-3.0088,-2.9663,-2.926,-2.8934,-2.8776,-2.8618,-2.851,-2.8498,-2.851,-2.851,-2.851,-2.851,-2.851,-2.851,-2.851,-2.851,-2.851,-2.851,-2.851,-4.3415,-4.3697,-4.3422,-4.3538,-4.3941,-4.4197,-4.4065,-4.3729,-4.3503,-4.3384,-4.3344,-4.3305,-4.314,-4.2925,-4.2635,-4.2186,-4.2021,-4.1392,-4.104,-4.095,-4.0367,-4.0127,-3.9815,-3.9482,-3.9113,-3.8797,-3.859,-3.8404,-3.8202,-3.8202,-3.8202,-3.8202,-3.8202,-3.8202,-3.8202,-3.8202,-3.8202,-3.8202,-3.8202,-3.8202,-3.8202,-3.8202,-3.8202,-3.8202,-3.8202,-3.8202,-3.8202,-3.8202,-3.8202,-3.8202,-3.8202,-3.8202,-3.8202,-3.8202,-3.8202,-3.8202,-3.8202,-3.8202,-3.8202,-3.8202,-3.8202,-3.8202,-3.8202,-3.8202,-3.8127,-3.7839,-3.7477,-3.7111,-3.6476,-3.6094,-3.5738,-3.5231,-3.4885,-3.4755,-3.4306,-3.3808,-3.35,-3.3078,-3.2803,-3.2354,-3.2232,-3.2218,-3.2205,-3.2259,-3.2372,-3.2327,-3.2273,-3.2205,-3.2205,-3.2073,-3.1963,-3.1853,-3.1793,-3.1535,-3.1237,-3.0924,-3.0495,-3.0075,-2.965,-2.9209,-2.8882,-2.8685,-2.8618,-2.8498,-2.851,-2.851,-2.851,-2.851,-2.851,-2.851,-2.851,-2.851,-2.851,-2.851,-2.851,-4.3228,-4.3067,-4.2869,-4.2716,-4.2848,-4.3722,-4.3952,-4.3684,-4.3675,-4.3542,-4.3305,-4.3245,-4.297,-4.2485,-4.2321,-4.1901,-4.1309,-4.0681,-4.0442,-4.0247,-3.9813,-3.9619,-3.9457,-3.9258,-3.9017,-3.8833,-3.8612,-3.8464,-3.824,-3.8202,-3.8202,-3.8202,-3.8202,-3.8202,-3.8202,-3.8202,-3.8202,-3.8202,-3.8202,-3.8202,-3.8202,-3.8202,-3.8202,-3.8202,-3.8202,-3.8202,-3.8202,-3.8202,-3.8202,-3.8202,-3.8202,-3.8202,-3.8202,-3.8202,-3.8202,-3.8202,-3.8202,-3.8202,-3.8202,-3.8202,-3.8202,-3.8188,-3.8101,-3.8159,-3.7988,-3.7647,-3.7177,-3.6655,-3.6019,-3.5587,-3.5203,-3.4688,-3.4225,-3.382,-3.3376,-3.3066,-3.2861,-3.259,-3.24,-3.2218,-3.2218,-3.2205,-3.2205,-3.2205,-3.2205,-3.2205,-3.2205,-3.2205,-3.2205,-3.2205,-3.2109,-3.2109,-3.2,-3.189,-3.1619,-3.1248,-3.0911,-3.0457,-2.9934,-2.9495,-2.9131,-2.8803,-2.8657,-2.8578,-2.851,-2.851,-2.851,-2.851,-2.851,-2.851,-2.851,-2.851,-2.851,-2.851,-2.851,-4.2168,-4.2535,-4.2221,-4.2324,-4.2767,-4.3002,-4.3098,-4.3228,-4.3527,-4.3557,-4.326,-4.2851,-4.256,-4.2336,-4.1399,-4.095,-4.0516,-4.0083,-3.9783,-3.9589,-3.9508,-3.9418,-3.9388,-3.9301,-3.9104,-3.887,-3.8671,-3.8523,-3.8277,-3.8202,-3.8202,-3.8202,-3.8202,-3.8202,-3.8202,-3.8202,-3.8202,-3.8202,-3.8202,-3.8202,-3.8202,-3.8202,-3.8202,-3.8202,-3.8202,-3.8202,-3.8202,-3.8202,-3.8202,-3.8202,-3.8202,-3.8202,-3.8202,-3.8202,-3.8202,-3.8202,-3.8202,-3.8202,-3.8202,-3.8202,-3.8159,-3.8014,-3.7796,-3.7593,-3.7453,-3.7115,-3.661,-3.6071,-3.5439,-3.493,-3.4548,-3.4112,-3.3768,-3.3486,-3.3078,-3.2808,-3.2632,-3.2444,-3.2241,-3.2205,-3.2205,-3.2205,-3.2205,-3.2205,-3.2205,-3.2205,-3.2205,-3.2205,-3.2205,-3.2205,-3.2205,-3.2169,-3.2146,-3.2036,-3.1817,-3.1471,-3.1174,-3.0836,-3.0318,-2.9818,-2.9365,-2.904,-2.8776,-2.8618,-2.855,-2.851,-2.851,-2.851,-2.851,-2.851,-2.851,-2.851,-2.851,-2.851,-2.851,-4.1757,-4.1985,-4.1676,-4.1682,-4.1897,-4.2114,-4.2245,-4.237,-4.3068,-4.3124,-4.2551,-4.247,-4.2111,-4.1512,-4.0786,-4.0307,-3.9993,-3.9709,-3.9448,-3.9448,-3.9388,-3.9388,-3.9388,-3.9352,-3.9141,-3.8929,-3.8745,-3.8575,-3.8315,-3.8202,-3.8202,-3.8202,-3.8202,-3.8202,-3.8202,-3.8202,-3.8202,-3.8202,-3.8202,-3.8202,-3.8202,-3.8202,-3.8202,-3.8202,-3.8202,-3.8202,-3.8202,-3.8202,-3.8202,-3.8202,-3.8202,-3.8202,-3.8202,-3.8202,-3.8202,-3.8202,-3.8202,-3.8202,-3.8173,-3.7912,-3.7883,-3.7694,-3.7273,-3.6751,-3.6526,-3.6236,-3.5855,-3.5381,-3.4723,-3.4133,-3.3824,-3.3543,-3.3417,-3.329,-3.3002,-3.2725,-3.2525,-3.2372,-3.2277,-3.2205,-3.2205,-3.2205,-3.2205,-3.2205,-3.2205,-3.2205,-3.2205,-3.2205,-3.2205,-3.2205,-3.2205,-3.2169,-3.2169,-3.2132,-3.1913,-3.1693,-3.1434,-3.1099,-3.0647,-3.0152,-2.9664,-2.9197,-2.8895,-2.8657,-2.851,-2.851,-2.851,-2.851,-2.851,-2.851,-2.851,-2.851,-2.851,-2.851,-2.851,-4.1784,-4.162,-4.1236,-4.0941,-4.0632,-4.1263,-4.1311,-4.111,-4.2242,-4.2357,-4.1685,-4.1976,-4.1489,-4.0756,-4.0292,-3.9933,-3.9694,-3.9433,-3.9388,-3.9388,-3.9388,-3.9388,-3.9388,-3.9388,-3.9141,-3.8929,-3.8745,-3.8612,-3.8315,-3.8202,-3.8202,-3.8202,-3.8202,-3.8202,-3.8202,-3.8202,-3.8202,-3.8202,-3.8202,-3.8202,-3.8202,-3.8202,-3.8202,-3.8202,-3.8202,-3.8202,-3.8202,-3.8202,-3.8202,-3.8202,-3.8202,-3.8202,-3.8202,-3.8202,-3.8202,-3.8115,-3.8072,-3.7984,-3.7825,-3.7506,-3.7273,-3.7012,-3.662,-3.6056,-3.5769,-3.5612,-3.5304,-3.4775,-3.4086,-3.3817,-3.3529,-3.3431,-3.3333,-3.3206,-3.2966,-3.2761,-3.2618,-3.2431,-3.2241,-3.2205,-3.2205,-3.2205,-3.2205,-3.2205,-3.2205,-3.2205,-3.2205,-3.2205,-3.2205,-3.2205,-3.2205,-3.2205,-3.2169,-3.2182,-3.2109,-3.189,-3.1693,-3.1347,-3.0949,-3.0495,-2.9985,-2.9482,-2.8934,-2.8736,-2.859,-2.851,-2.851,-2.851,-2.851,-2.851,-2.851,-2.851,-2.851,-2.851,-2.851,-4.198,-4.18,-4.1303,-4.0848,-4.0555,-4.0674,-4.0662,-4.0527,-4.1161,-4.1444,-4.1355,-4.1025,-4.0741,-4.0352,-3.9888,-3.9574,-3.9448,-3.9388,-3.9388,-3.9388,-3.9388,-3.9388,-3.9388,-3.9388,-3.9156,-3.8907,-3.8745,-3.8575,-3.8277,-3.8202,-3.8202,-3.8202,-3.8202,-3.8202,-3.8202,-3.8202,-3.8202,-3.8202,-3.8202,-3.8202,-3.8202,-3.8202,-3.8202,-3.8202,-3.8202,-3.8202,-3.8202,-3.8202,-3.8202,-3.8202,-3.8202,-3.8202,-3.8202,-3.8202,-3.8188,-3.813,-3.7752,-3.7564,-3.7331,-3.6954,-3.662,-3.6359,-3.5975,-3.5542,-3.5214,-3.511,-3.4725,-3.4122,-3.3727,-3.3487,-3.3361,-3.3319,-3.3241,-3.3086,-3.2931,-3.281,-3.269,-3.2467,-3.2205,-3.2205,-3.2205,-3.2205,-3.2205,-3.2205,-3.2205,-3.2205,-3.2205,-3.2205,-3.2205,-3.2205,-3.2205,-3.2205,-3.2205,-3.2182,-3.2146,-3.2073,-3.1877,-3.1606,-3.1248,-3.0785,-3.0343,-2.9677,-2.9091,-2.8855,-2.8657,-2.8618,-2.855,-2.851,-2.851,-2.851,-2.851,-2.851,-2.851,-2.851,-2.851,-4.2109,-4.1899,-4.1337,-4.0932,-4.0662,-4.0524,-4.0436,-4.0373,-4.0583,-4.0667,-4.0649,-4.0471,-4.0247,-4.0023,-3.9523,-3.9388,-3.9388,-3.9388,-3.9388,-3.9388,-3.9388,-3.9388,-3.9388,-3.9388,-3.9104,-3.887,-3.8612,-3.8389,-3.824,-3.8202,-3.8202,-3.8202,-3.8202,-3.8202,-3.8202,-3.8202,-3.8202,-3.8202,-3.8202,-3.8202,-3.8202,-3.8202,-3.8202,-3.8202,-3.8202,-3.8202,-3.8202,-3.8202,-3.8202,-3.8202,-3.8202,-3.8202,-3.8115,-3.7912,-3.7796,-3.7607,-3.7273,-3.6867,-3.6678,-3.6344,-3.5923,-3.5706,-3.5328,-3.4868,-3.4548,-3.4382,-3.4298,-3.3768,-3.3529,-3.3319,-3.3319,-3.329,-3.3192,-3.3072,-3.286,-3.2704,-3.2538,-3.2314,-3.2218,-3.2205,-3.2205,-3.2205,-3.2205,-3.2205,-3.2205,-3.2205,-3.2205,-3.2205,-3.2205,-3.2205,-3.2205,-3.2205,-3.2205,-3.2205,-3.2182,-3.2109,-3.2,-3.1767,-3.1545,-3.1011,-3.0482,-2.9793,-2.9248,-2.9052,-2.8882,-2.8685,-2.8657,-2.859,-2.851,-2.851,-2.851,-2.851,-2.851,-2.851,-2.851,-4.227,-4.1996,-4.137,-4.0984,-4.078,-4.0593,-4.0436,-4.0347,-4.0327,-4.0152,-3.9969,-4.0184,-3.9895,-3.9589,-3.9388,-3.9388,-3.9388,-3.9388,-3.9388,-3.9388,-3.9388,-3.9388,-3.9388,-3.9388,-3.9104,-3.8797,-3.8449,-3.8315,-3.8202,-3.8202,-3.8202,-3.8202,-3.8202,-3.8202,-3.8202,-3.8202,-3.8202,-3.8202,-3.8202,-3.8202,-3.8202,-3.8202,-3.8202,-3.8202,-3.8202,-3.8202,-3.8202,-3.8202,-3.8202,-3.8115,-3.8072,-3.7984,-3.7781,-3.7476,-3.7244,-3.7012,-3.6562,-3.6272,-3.6069,-3.5619,-3.5392,-3.5131,-3.4632,-3.4322,-3.4063,-3.389,-3.3807,-3.3585,-3.3361,-3.3276,-3.3276,-3.3276,-3.3157,-3.3002,-3.2789,-3.2574,-3.2386,-3.2218,-3.2218,-3.2205,-3.2205,-3.2205,-3.2205,-3.2205,-3.2205,-3.2205,-3.2205,-3.2205,-3.2205,-3.2205,-3.2205,-3.2205,-3.2205,-3.2205,-3.2205,-3.2169,-3.2109,-3.2,-3.1693,-3.1198,-3.0659,-3.0139,-2.9677,-2.9443,-2.9236,-2.9,-2.8816,-2.8697,-2.863,-2.859,-2.851,-2.851,-2.851,-2.851,-2.851,-4.2334,-4.1898,-4.1337,-4.0984,-4.0799,-4.0593,-4.0455,-4.0436,-4.0331,-4.0226,-4.0132,-3.9864,-3.9628,-3.9388,-3.9388,-3.9388,-3.9388,-3.9388,-3.9388,-3.9388,-3.9388,-3.9388,-3.9388,-3.9301,-3.9126,-3.8782,-3.8412,-3.824,-3.8202,-3.8202,-3.8202,-3.8202,-3.8202,-3.8202,-3.8202,-3.8202,-3.8202,-3.8202,-3.8202,-3.8202,-3.8202,-3.8202,-3.8202,-3.8202,-3.8202,-3.8202,-3.8202,-3.8202,-3.8202,-3.8072,-3.7781,-3.7593,-3.7259,-3.6896,-3.6606,-3.6359,-3.5894,-3.5619,-3.5378,-3.5024,-3.4854,-3.4733,-3.4395,-3.4273,-3.4083,-3.3945,-3.3758,-3.3466,-3.3276,-3.3276,-3.3276,-3.3276,-3.3206,-3.2931,-3.2704,-3.248,-3.2241,-3.2218,-3.2218,-3.2205,-3.2205,-3.2205,-3.2205,-3.2205,-3.2205,-3.2205,-3.2205,-3.2205,-3.2205,-3.2205,-3.2205,-3.2205,-3.2205,-3.2205,-3.2205,-3.2205,-3.2146,-3.2073,-3.1927,-3.1508,-3.1048,-3.0596,-3.0203,-2.9947,-2.9586,-2.9314,-2.9118,-2.8973,-2.8816,-2.8776,-2.859,-2.851,-2.851,-2.851,-2.851]},{"header":{"parameterUnit":"m.s-1","parameterCategory":1,"la1":31.0,"la2":29.5877,"lo1":-88.7671,"lo2":-86.6584,"dy":0.0162,"dx":0.0185,"nx":115,"ny":88,"refTime":"2023-07-12T18:00:00:Z","depth":0,"parameterNumber":3,"parameterNumberName":"V-component_of_WINDS"},"data":[0.0,0.0,0.0,0.0,0.0,0.0,0.0,0.0,0.0,0.0,0.0,0.0,0.0,0.0,0.0,0.0,0.0,0.0,0.0,0.0,0.0,0.0,0.0,0.0,0.0,0.0,0.0,0.0,0.0,0.0,0.0,0.0,0.0,0.0,0.0,0.0,0.0,0.0,0.0,0.0,0.0,0.0,0.0,0.0,0.0,0.0,0.0,0.0,0.0,0.0,0.0,0.0,0.0,0.0,0.0,0.0,0.0,0.0,0.0,0.0,0.0,0.0,0.0,0.0,0.0,0.0,0.0,0.0,0.0,0.0,0.0,0.0,0.0,0.0,0.0,0.0,0.0,0.0,0.0,0.0,0.0,0.0,0.0,0.0,0.0,0.0,0.0,0.0,0.0,0.0,0.0,0.0,0.0,0.0,0.0,0.0,0.0,0.0,0.0,0.0,0.0,0.0,0.0,0.0,0.0,0.0,0.0,0.0,0.0,0.0,0.0,0.0,0.0,0.0,0.0,0.0,0.0,0.0,0.0,0.0,0.0,0.0,0.0,0.0,0.0,0.0,0.0,0.0,0.0,0.0,0.0,0.0,0.0,0.0,0.0,0.0,0.0,0.0,0.0,0.0,0.0,0.0,0.0,0.0,0.0,0.0,0.0,0.0,0.0,0.0,0.0,0.0,0.0,0.0,0.0,0.0,0.0,0.0,0.0,0.0,0.0,0.0,0.0,0.0,0.0,0.0,0.0,0.0,0.0,0.0,0.0,0.0,0.0,0.0,0.0,0.0,0.0,0.0,0.0,0.0,0.0,0.0,0.0,0.0,0.0,0.0,0.0,0.0,0.0,0.0,0.0,0.0,0.0,0.0,0.0,0.0,0.0,0.0,0.0,0.0,0.0,0.0,0.0,0.0,0.0,0.0,0.0,0.0,0.0,0.0,0.0,0.0,0.0,0.0,0.0,0.0,0.0,0.0,0.0,0.0,0.0,0.0,0.0,0.0,0.0,0.0,0.0,0.0,0.0,0.0,0.0,0.0,0.0,0.0,0.0,0.0,0.0,0.0,0.0,0.0,0.0,0.0,0.0,0.0,0.0,0.0,0.0,0.0,0.0,0.0,0.0,0.0,0.0,0.0,0.0,0.0,0.0,0.0,0.0,0.0,0.0,0.0,0.0,0.0,0.0,0.0,0.0,0.0,0.0,0.0,0.0,0.0,0.0,0.0,0.0,0.0,0.0,0.0,0.0,0.0,0.0,0.0,0.0,0.0,0.0,0.0,0.0,0.0,0.0,0.0,0.0,0.0,0.0,0.0,0.0,0.0,0.0,0.0,0.0,0.0,0.0,0.0,0.0,0.0,0.0,0.0,0.0,0.0,0.0,0.0,0.0,0.0,0.0,0.0,0.0,0.0,0.0,0.0,0.0,0.0,0.0,0.0,0.0,0.0,0.0,0.0,0.0,0.0,0.0,0.0,0.0,0.0,0.0,0.0,0.0,0.0,0.0,0.0,0.0,0.0,0.0,0.0,0.0,0.0,0.0,0.0,0.0,0.0,0.0,0.0,0.0,0.0,0.0,0.0,0.0,0.0,0.0,0.0,0.0,0.0,0.0,0.0,0.0,0.0,0.0,0.0,0.0,0.0,0.0,0.0,0.0,0.0,0.0,0.0,0.0,0.0,0.0,0.0,0.0,0.0,0.0,0.0,0.0,0.0,0.0,0.0,0.0,0.0,0.0,0.0,0.0,0.0,0.0,0.0,0.0,0.0,0.0,0.0,0.0,0.0,0.0,0.0,0.0,0.0,0.0,0.0,0.0,0.0,0.0,0.0,0.0,0.0,0.0,0.0,0.0,0.0,0.0,0.0,0.0,0.0,0.0,0.0,0.0,0.0,0.0,0.0,0.0,0.0,0.0,0.0,0.0,0.0,0.0,0.0,0.0,0.0,0.0,0.0,0.0,0.0,0.0,0.0,0.0,0.0,0.0,0.0,0.0,0.0,0.0,0.0,0.0,0.0,0.0,0.0,0.0,0.0,0.0,0.0,0.0,0.0,0.0,0.0,0.0,0.0,0.0,0.0,0.0,0.0,0.0,0.0,0.0,0.0,0.0,0.0,0.0,0.0,0.0,0.0,0.0,0.0,0.0,0.0,0.0,0.0,0.0,0.0,0.0,0.0,0.0,0.0,0.0,0.0,0.0,0.0,0.0,0.0,0.0,0.0,0.0,0.0,0.0,0.0,0.0,0.0,0.0,0.0,0.0,0.0,0.0,0.0,0.0,0.0,0.0,0.0,0.0,0.0,0.0,0.0,0.0,0.0,0.0,0.0,0.0,0.0,0.0,0.0,0.0,0.0,0.0,0.0,0.0,0.0,0.0,0.0,0.0,0.0,0.0,0.0,0.0,0.0,0.0,0.0,0.0,0.0,0.0,0.0,0.0,0.0,0.0,0.0,0.0,0.0,0.0,0.0,0.0,0.0,0.0,0.0,0.0,0.0,0.0,0.0,0.0,0.0,0.0,0.0,0.0,0.0,0.0,0.0,0.0,0.0,0.0,0.0,0.0,0.0,0.0,0.0,0.0,0.0,0.0,0.0,0.0,0.0,0.0,0.0,0.0,0.0,0.0,0.0,0.0,0.0,0.0,0.0,0.0,0.0,0.0,0.0,0.0,0.0,0.0,0.0,0.0,0.0,0.0,0.0,0.0,0.0,0.0,0.0,0.0,0.0,0.0,0.0,0.0,0.0,0.0,0.0,0.0,0.0,0.0,0.0,0.0,0.0,0.0,0.0,0.0,0.0,0.0,0.0,0.0,0.0,0.0,0.0,0.0,0.0,0.0,0.0,0.0,0.0,0.0,0.0,0.0,0.0,0.0,0.0,0.0,0.0,0.0,0.0,0.0,0.0,0.0,0.0,0.0,0.0,0.0,0.0,0.0,0.0,0.0,0.0,0.0,0.0,0.0,0.0,0.0,0.0,0.0,0.0,0.0,0.0,0.0,0.0,0.0,0.0,0.0,0.0,0.0,0.0,0.0,0.0,0.0,0.0,0.0,0.0,0.0,0.0,0.0,0.0,0.0,0.0,0.0,0.0,0.0,0.0,0.0,0.0,0.0,0.0,0.0,0.0,0.0,0.0,0.0,0.0,0.0,0.0,0.0,0.0,0.0,0.0,0.0,0.0,0.0,0.0,0.0,0.0,0.0,0.0,0.0,0.0,0.0,0.0,0.0,0.0,0.0,0.0,0.0,0.0,0.0,0.0,0.0,0.0,0.0,0.0,0.0,0.0,0.0,0.0,0.0,0.0,0.0,0.0,0.0,0.0,0.0,0.0,0.0,0.0,0.0,0.0,0.0,0.0,0.0,0.0,0.0,0.0,0.0,0.0,0.0,0.0,0.0,0.0,0.0,0.0,0.0,0.0,0.0,0.0,0.0,0.0,0.0,0.0,0.0,0.0,0.0,0.0,0.0,0.0,0.0,0.0,0.0,0.0,0.0,0.0,0.0,0.0,0.0,0.0,0.0,0.0,0.0,0.0,0.0,0.0,0.0,0.0,0.0,0.0,0.0,0.0,0.0,0.0,0.0,0.0,0.0,0.0,0.0,0.0,0.0,0.0,0.0,0.0,0.0,0.0,0.0,0.0,0.0,0.0,0.0,0.0,0.0,0.0,0.0,0.0,0.0,0.0,0.0,0.0,0.0,0.0,0.0,0.0,0.0,0.0,0.0,0.0,0.0,0.0,0.0,0.0,0.0,0.0,0.0,0.0,0.0,0.0,0.0,0.0,0.0,0.0,0.0,0.0,0.0,0.0,0.0,0.0,0.0,0.0,0.0,0.0,0.0,0.0,0.0,0.0,0.0,0.0,0.0,0.0,0.0,0.0,0.0,0.0,0.0,0.0,0.0,0.0,0.0,0.0,0.0,0.0,0.0,0.0,0.0,0.0,0.0,0.0,0.0,0.0,0.0,0.0,0.0,0.0,0.0,0.0,0.0,0.0,0.0,0.0,0.0,0.0,0.0,0.0,0.0,0.0,0.0,0.0,0.0,0.0,0.0,0.0,0.0,0.0,0.0,0.0,0.0,0.0,0.0,0.0,0.0,0.0,0.0,0.0,0.0,0.0,0.0,0.0,0.0,0.0,0.0,0.0,0.0,0.0,0.0,0.0,0.0,0.0,0.0,0.0,0.0,0.0,0.0,0.0,0.0,0.0,0.0,0.0,0.0,0.0,0.0,0.0,0.0,0.0,0.0,0.0,0.0,0.0,0.0,0.0,0.0,0.0,0.0,0.0,0.0,0.0,-1.7028,0.0,0.0,0.0,0.0,0.0,0.0,0.0,0.0,0.0,0.0,0.0,0.0,0.0,0.0,0.0,0.0,0.0,0.0,0.0,0.0,0.0,0.0,0.0,0.0,0.0,0.0,0.0,0.0,0.0,0.0,0.0,0.0,0.0,0.0,0.0,0.0,0.0,0.0,0.0,0.0,0.0,0.0,0.0,0.0,0.0,0.0,0.0,0.0,0.0,0.0,0.0,0.0,0.0,0.0,0.0,0.0,0.0,0.0,0.0,0.0,0.0,0.0,0.0,0.0,0.0,0.0,0.0,0.0,0.0,0.0,0.0,0.0,0.0,0.0,0.0,0.0,0.0,0.0,0.0,0.0,0.0,0.0,0.0,0.0,0.0,0.0,0.0,0.0,0.0,0.0,0.0,0.0,0.0,0.0,0.0,0.0,0.0,0.0,0.0,0.0,0.0,0.0,0.0,0.0,0.0,0.0,0.0,0.0,0.0,0.0,-1.683,-1.7072,-1.7107,-1.7176,-1.7358,0.0,0.0,0.0,0.0,0.0,0.0,0.0,0.0,0.0,0.0,0.0,0.0,0.0,0.0,0.0,0.0,0.0,0.0,0.0,0.0,0.0,0.0,0.0,0.0,0.0,0.0,0.0,0.0,0.0,0.0,0.0,0.0,0.0,0.0,0.0,0.0,0.0,0.0,0.0,0.0,0.0,0.0,0.0,0.0,0.0,0.0,0.0,0.0,0.0,0.0,0.0,0.0,0.0,0.0,0.0,0.0,0.0,0.0,0.0,0.0,0.0,0.0,0.0,0.0,0.0,0.0,0.0,0.0,0.0,0.0,0.0,0.0,0.0,0.0,0.0,0.0,0.0,0.0,0.0,0.0,0.0,0.0,0.0,0.0,0.0,0.0,0.0,0.0,0.0,0.0,0.0,0.0,0.0,0.0,0.0,0.0,0.0,0.0,0.0,0.0,0.0,0.0,0.0,0.0,0.0,0.0,0.0,0.0,0.0,0.0,0.0,0.0,-1.7529,-1.7564,-1.7608,0.0,0.0,0.0,0.0,0.0,0.0,0.0,0.0,0.0,0.0,0.0,0.0,0.0,0.0,0.0,0.0,0.0,0.0,0.0,0.0,0.0,0.0,0.0,0.0,0.0,0.0,0.0,0.0,0.0,0.0,0.0,0.0,0.0,0.0,0.0,0.0,0.0,0.0,0.0,0.0,0.0,0.0,0.0,0.0,0.0,0.0,0.0,0.0,0.0,0.0,0.0,0.0,0.0,0.0,0.0,0.0,0.0,0.0,0.0,0.0,0.0,0.0,0.0,0.0,0.0,0.0,0.0,0.0,0.0,0.0,0.0,0.0,0.0,0.0,0.0,0.0,0.0,0.0,0.0,0.0,0.0,0.0,0.0,0.0,0.0,0.0,0.0,0.0,0.0,0.0,0.0,0.0,0.0,0.0,0.0,0.0,0.0,0.0,0.0,0.0,0.0,0.0,0.0,0.0,0.0,0.0,0.0,0.0,0.0,0.0,-1.7529,-1.7681,-1.7672,0.0,-1.794,0.0,0.0,0.0,0.0,0.0,0.0,0.0,0.0,0.0,0.0,0.0,0.0,0.0,0.0,0.0,0.0,0.0,0.0,0.0,0.0,0.0,0.0,0.0,0.0,0.0,0.0,0.0,0.0,0.0,0.0,0.0,0.0,0.0,0.0,0.0,0.0,0.0,0.0,0.0,0.0,0.0,0.0,0.0,0.0,0.0,0.0,0.0,0.0,0.0,0.0,0.0,0.0,0.0,0.0,0.0,0.0,0.0,0.0,0.0,0.0,0.0,0.0,0.0,0.0,0.0,0.0,0.0,0.0,0.0,0.0,0.0,0.0,0.0,0.0,0.0,0.0,0.0,0.0,0.0,0.0,0.0,0.0,0.0,0.0,0.0,0.0,0.0,0.0,0.0,0.0,0.0,0.0,0.0,0.0,0.0,0.0,0.0,0.0,0.0,0.0,0.0,0.0,0.0,0.0,0.0,0.0,0.0,0.0,0.0,0.0,-1.7837,-1.7896,-1.7862,-1.7896,0.0,0.0,0.0,0.0,0.0,0.0,0.0,0.0,0.0,0.0,0.0,0.0,0.0,0.0,0.0,0.0,0.0,0.0,0.0,0.0,0.0,0.0,0.0,0.0,0.0,0.0,0.0,0.0,0.0,0.0,0.0,0.0,0.0,0.0,0.0,0.0,0.0,0.0,0.0,0.0,0.0,0.0,0.0,0.0,0.0,0.0,0.0,0.0,0.0,0.0,0.0,0.0,0.0,0.0,0.0,0.0,0.0,0.0,0.0,0.0,0.0,0.0,0.0,0.0,0.0,0.0,0.0,0.0,0.0,0.0,0.0,0.0,0.0,0.0,0.0,0.0,0.0,0.0,0.0,0.0,0.0,0.0,0.0,0.0,0.0,0.0,0.0,0.0,0.0,0.0,0.0,0.0,0.0,0.0,0.0,0.0,0.0,0.0,0.0,0.0,0.0,0.0,0.0,0.0,0.0,0.0,0.0,0.0,0.0,0.0,-1.8008,-1.8008,-1.8008,-1.8008,-1.8008,-1.8008,0.0,0.0,0.0,0.0,0.0,0.0,0.0,0.0,0.0,0.0,0.0,0.0,0.0,0.0,0.0,0.0,0.0,0.0,0.0,0.0,0.0,0.0,0.0,0.0,0.0,0.0,0.0,0.0,0.0,0.0,0.0,0.0,0.0,0.0,0.0,0.0,0.0,0.0,0.0,0.0,0.0,0.0,0.0,0.0,0.0,0.0,0.0,0.0,0.0,0.0,0.0,0.0,0.0,0.0,0.0,0.0,0.0,0.0,0.0,0.0,0.0,0.0,0.0,0.0,0.0,0.0,0.0,0.0,0.0,0.0,0.0,0.0,0.0,0.0,0.0,0.0,0.0,0.0,0.0,0.0,0.0,0.0,0.0,0.0,0.0,0.0,0.0,0.0,0.0,0.0,0.0,0.0,0.0,0.0,0.0,0.0,0.0,0.0,0.0,0.0,0.0,0.0,0.0,0.0,0.0,0.0,0.0,0.0,-1.8008,-1.8008,-1.8008,-1.8008,-1.8008,-1.8008,0.0,0.0,0.0,0.0,0.0,0.0,0.0,0.0,0.0,0.0,0.0,0.0,0.0,0.0,0.0,0.0,0.0,0.0,0.0,0.0,0.0,0.0,0.0,0.0,0.0,0.0,0.0,0.0,0.0,0.0,0.0,0.0,0.0,0.0,0.0,0.0,0.0,0.0,0.0,0.0,0.0,0.0,0.0,0.0,0.0,0.0,0.0,0.0,0.0,0.0,0.0,0.0,0.0,0.0,0.0,0.0,0.0,0.0,0.0,0.0,0.0,0.0,0.0,0.0,0.0,0.0,0.0,0.0,0.0,0.0,0.0,0.0,0.0,0.0,0.0,0.0,0.0,0.0,0.0,0.0,0.0,0.0,0.0,0.0,0.0,0.0,0.0,0.0,0.0,0.0,0.0,0.0,0.0,0.0,0.0,0.0,0.0,0.0,0.0,0.0,0.0,0.0,0.0,0.0,0.0,0.0,0.0,0.0,0.0,-1.8008,-1.8008,-1.8008,-1.8008,-1.8008,-1.8008,0.0,0.0,0.0,0.0,0.0,0.0,0.0,0.0,0.0,0.0,0.0,0.0,0.0,0.0,0.0,0.0,0.0,0.0,0.0,0.0,0.0,0.0,0.0,0.0,0.0,0.0,0.0,0.0,0.0,0.0,0.0,0.0,0.0,0.0,0.0,0.0,0.0,0.0,0.0,0.0,0.0,0.0,0.0,0.0,0.0,0.0,0.0,0.0,0.0,0.0,0.0,0.0,0.0,0.0,0.0,0.0,0.0,0.0,0.0,0.0,0.0,0.0,0.0,0.0,0.0,0.0,0.0,0.0,0.0,0.0,0.0,0.0,0.0,0.0,0.0,0.0,0.0,0.0,0.0,0.0,0.0,0.0,0.0,0.0,0.0,0.0,0.0,0.0,0.0,0.0,0.0,0.0,0.0,0.0,0.0,0.0,0.0,0.0,0.0,0.0,0.0,0.0,0.0,0.0,0.0,0.0,0.0,0.0,0.0,-1.8203,0.0,-1.8213,0.0,-1.8178,-1.8154,0.0,0.0,0.0,0.0,0.0,0.0,0.0,0.0,0.0,0.0,0.0,0.0,0.0,0.0,0.0,0.0,0.0,0.0,0.0,0.0,0.0,0.0,0.0,0.0,0.0,0.0,0.0,0.0,0.0,0.0,0.0,0.0,0.0,0.0,0.0,0.0,0.0,0.0,0.0,0.0,0.0,0.0,0.0,0.0,0.0,0.0,0.0,0.0,0.0,0.0,0.0,0.0,0.0,0.0,0.0,0.0,0.0,0.0,0.0,0.0,0.0,0.0,0.0,0.0,0.0,0.0,0.0,0.0,0.0,0.0,0.0,0.0,0.0,0.0,0.0,0.0,0.0,0.0,0.0,0.0,0.0,0.0,0.0,0.0,0.0,0.0,0.0,0.0,0.0,0.0,0.0,0.0,0.0,0.0,0.0,0.0,0.0,0.0,0.0,0.0,0.0,0.0,0.0,0.0,0.0,0.0,0.0,0.0,-1.8198,-1.8598,-1.8617,-1.8617,-1.8617,-1.8617,-1.8412,0.0,0.0,0.0,0.0,0.0,0.0,0.0,0.0,0.0,0.0,0.0,0.0,0.0,0.0,0.0,0.0,0.0,0.0,0.0,0.0,0.0,0.0,0.0,0.0,0.0,0.0,0.0,0.0,0.0,0.0,0.0,0.0,0.0,0.0,0.0,0.0,0.0,0.0,0.0,0.0,0.0,0.0,0.0,0.0,0.0,0.0,0.0,0.0,0.0,0.0,0.0,0.0,0.0,0.0,0.0,0.0,0.0,0.0,0.0,0.0,0.0,0.0,0.0,0.0,0.0,0.0,0.0,0.0,0.0,0.0,0.0,0.0,0.0,0.0,0.0,0.0,0.0,0.0,0.0,0.0,0.0,0.0,0.0,0.0,0.0,0.0,0.0,0.0,0.0,0.0,0.0,0.0,0.0,0.0,0.0,0.0,0.0,0.0,0.0,0.0,0.0,0.0,0.0,0.0,0.0,0.0,0.0,0.0,0.0,-1.9455,-1.9238,-1.9228,-1.9446,-1.9238,-1.8887,0.0,0.0,0.0,0.0,0.0,0.0,0.0,0.0,0.0,0.0,0.0,0.0,0.0,0.0,0.0,0.0,0.0,0.0,0.0,0.0,0.0,0.0,0.0,0.0,0.0,0.0,0.0,0.0,0.0,0.0,0.0,0.0,0.0,0.0,0.0,0.0,0.0,0.0,0.0,0.0,0.0,0.0,0.0,0.0,0.0,0.0,0.0,0.0,0.0,0.0,0.0,0.0,0.0,0.0,0.0,0.0,0.0,0.0,0.0,0.0,0.0,0.0,0.0,0.0,0.0,0.0,0.0,0.0,0.0,0.0,0.0,0.0,0.0,0.0,0.0,0.0,0.0,0.0,0.0,0.0,0.0,0.0,0.0,0.0,0.0,0.0,0.0,0.0,0.0,0.0,0.0,0.0,0.0,0.0,0.0,0.0,0.0,0.0,0.0,0.0,0.0,0.0,0.0,0.0,0.0,0.0,0.0,0.0,0.0,-2.0712,-2.0377,-2.0279,-2.0544,-2.0169,-1.9703,-1.912,0.0,0.0,0.0,0.0,0.0,0.0,0.0,0.0,0.0,0.0,0.0,0.0,0.0,0.0,0.0,0.0,0.0,0.0,0.0,0.0,0.0,0.0,0.0,0.0,0.0,0.0,0.0,0.0,0.0,0.0,0.0,0.0,0.0,0.0,0.0,0.0,0.0,0.0,0.0,0.0,0.0,0.0,0.0,0.0,0.0,0.0,0.0,0.0,0.0,0.0,0.0,0.0,0.0,0.0,0.0,0.0,0.0,0.0,0.0,0.0,0.0,0.0,0.0,0.0,0.0,0.0,0.0,0.0,0.0,0.0,0.0,0.0,0.0,0.0,0.0,0.0,0.0,0.0,0.0,0.0,0.0,0.0,0.0,0.0,0.0,0.0,0.0,0.0,0.0,0.0,0.0,0.0,0.0,0.0,0.0,0.0,0.0,0.0,0.0,0.0,0.0,0.0,0.0,0.0,0.0,0.0,0.0,0.0,-2.2266,-2.1959,-2.175,-2.167,-2.1399,-2.0871,0.0,0.0,0.0,0.0,0.0,0.0,0.0,0.0,0.0,0.0,0.0,0.0,0.0,0.0,0.0,0.0,0.0,0.0,0.0,0.0,0.0,0.0,0.0,0.0,0.0,0.0,0.0,0.0,0.0,0.0,0.0,0.0,0.0,0.0,0.0,0.0,0.0,0.0,0.0,0.0,0.0,0.0,0.0,0.0,0.0,0.0,0.0,0.0,0.0,0.0,0.0,0.0,0.0,0.0,0.0,0.0,0.0,0.0,0.0,0.0,0.0,0.0,0.0,0.0,0.0,0.0,0.0,0.0,0.0,0.0,0.0,0.0,0.0,0.0,0.0,0.0,0.0,0.0,0.0,0.0,0.0,0.0,0.0,0.0,0.0,0.0,0.0,0.0,0.0,0.0,0.0,0.0,0.0,0.0,0.0,0.0,0.0,0.0,0.0,0.0,0.0,0.0,0.0,0.0,0.0,0.0,0.0,0.0,0.0,-2.3153,-2.3742,-2.3628,-2.2803,-2.2422,-2.1798,0.0,0.0,0.0,0.0,0.0,0.0,0.0,0.0,0.0,0.0,0.0,0.0,0.0,0.0,0.0,0.0,0.0,0.0,0.0,0.0,0.0,0.0,0.0,0.0,0.0,0.0,0.0,0.0,0.0,0.0,0.0,0.0,0.0,0.0,0.0,0.0,0.0,0.0,0.0,0.0,0.0,0.0,0.0,0.0,0.0,0.0,0.0,0.0,0.0,0.0,0.0,0.0,0.0,0.0,0.0,0.0,0.0,0.0,0.0,0.0,0.0,0.0,0.0,0.0,0.0,0.0,0.0,0.0,0.0,0.0,0.0,0.0,0.0,0.0,0.0,0.0,0.0,0.0,0.0,0.0,0.0,0.0,0.0,0.0,0.0,0.0,0.0,0.0,0.0,0.0,0.0,0.0,0.0,0.0,0.0,0.0,0.0,0.0,0.0,0.0,0.0,0.0,0.0,0.0,0.0,0.0,0.0,0.0,-2.302,-2.3805,-2.4619,-2.4692,-2.4052,-2.3546,-2.2878,0.0,0.0,0.0,0.0,0.0,0.0,0.0,0.0,0.0,0.0,0.0,0.0,0.0,0.0,0.0,0.0,0.0,0.0,0.0,0.0,0.0,0.0,0.0,0.0,0.0,0.0,0.0,0.0,0.0,0.0,0.0,0.0,0.0,0.0,0.0,0.0,0.0,0.0,0.0,0.0,0.0,0.0,0.0,0.0,0.0,0.0,0.0,0.0,0.0,0.0,0.0,0.0,0.0,0.0,0.0,0.0,0.0,0.0,0.0,0.0,0.0,0.0,0.0,0.0,0.0,0.0,0.0,0.0,0.0,0.0,0.0,0.0,0.0,0.0,0.0,0.0,0.0,0.0,0.0,0.0,0.0,0.0,0.0,0.0,0.0,0.0,0.0,0.0,0.0,0.0,0.0,0.0,0.0,0.0,0.0,0.0,0.0,0.0,0.0,0.0,0.0,0.0,0.0,0.0,0.0,0.0,0.0,0.0,-2.3666,-2.4386,-2.5019,-2.5327,-2.5316,-2.465,-2.3914,0.0,0.0,0.0,0.0,0.0,0.0,0.0,0.0,0.0,0.0,0.0,0.0,0.0,0.0,0.0,0.0,0.0,0.0,0.0,0.0,0.0,0.0,0.0,0.0,0.0,0.0,0.0,0.0,0.0,0.0,0.0,0.0,0.0,0.0,0.0,0.0,0.0,0.0,0.0,0.0,0.0,0.0,0.0,0.0,0.0,0.0,0.0,0.0,0.0,0.0,0.0,0.0,0.0,0.0,0.0,0.0,0.0,0.0,0.0,0.0,0.0,0.0,0.0,0.0,0.0,0.0,0.0,0.0,0.0,0.0,0.0,0.0,0.0,0.0,0.0,0.0,0.0,0.0,0.0,0.0,0.0,0.0,0.0,0.0,0.0,0.0,0.0,0.0,0.0,0.0,0.0,0.0,0.0,0.0,0.0,0.0,0.0,0.0,0.0,0.0,0.0,0.0,0.0,0.0,0.0,0.0,0.0,0.0,-2.4726,-2.576,-2.611,-2.6302,-2.6302,-2.5284,-2.4419,0.0,0.0,0.0,0.0,0.0,0.0,0.0,0.0,0.0,0.0,0.0,0.0,0.0,0.0,0.0,0.0,0.0,0.0,0.0,0.0,0.0,0.0,0.0,0.0,0.0,0.0,0.0,0.0,0.0,0.0,0.0,0.0,0.0,0.0,0.0,0.0,0.0,0.0,0.0,0.0,0.0,0.0,0.0,0.0,0.0,0.0,0.0,0.0,-2.3733,0.0,0.0,0.0,0.0,0.0,0.0,0.0,0.0,0.0,0.0,0.0,0.0,0.0,0.0,0.0,0.0,0.0,0.0,0.0,0.0,0.0,0.0,0.0,0.0,0.0,0.0,0.0,0.0,0.0,0.0,0.0,0.0,0.0,0.0,0.0,0.0,0.0,0.0,0.0,0.0,0.0,0.0,0.0,0.0,0.0,0.0,0.0,0.0,0.0,0.0,0.0,0.0,0.0,0.0,0.0,0.0,0.0,0.0,0.0,-2.5737,-2.6659,-2.6828,-2.6869,-2.688,-2.6207,-2.5385,0.0,0.0,0.0,0.0,0.0,0.0,0.0,0.0,0.0,0.0,0.0,0.0,0.0,0.0,0.0,0.0,0.0,0.0,0.0,0.0,0.0,0.0,0.0,0.0,0.0,0.0,0.0,0.0,0.0,0.0,0.0,0.0,0.0,0.0,0.0,0.0,0.0,0.0,0.0,0.0,0.0,0.0,0.0,0.0,0.0,0.0,0.0,0.0,0.0,0.0,0.0,0.0,0.0,0.0,0.0,0.0,0.0,0.0,0.0,0.0,0.0,0.0,0.0,0.0,0.0,0.0,0.0,0.0,0.0,0.0,0.0,0.0,0.0,0.0,0.0,0.0,0.0,0.0,0.0,0.0,0.0,0.0,0.0,0.0,0.0,0.0,0.0,0.0,0.0,0.0,0.0,0.0,0.0,0.0,0.0,0.0,0.0,0.0,0.0,0.0,0.0,0.0,0.0,0.0,0.0,0.0,0.0,-2.5745,-2.6611,-2.7284,-2.7307,-2.7319,-2.7319,-2.7167,-2.6536,-2.5378,0.0,0.0,0.0,0.0,0.0,0.0,0.0,0.0,0.0,0.0,0.0,0.0,0.0,0.0,0.0,0.0,0.0,0.0,0.0,0.0,0.0,0.0,0.0,0.0,0.0,0.0,0.0,0.0,0.0,0.0,0.0,0.0,0.0,0.0,0.0,0.0,0.0,0.0,-2.1838,-2.2738,0.0,0.0,0.0,0.0,0.0,0.0,0.0,0.0,-2.4773,0.0,0.0,0.0,0.0,0.0,0.0,0.0,0.0,0.0,0.0,0.0,0.0,0.0,0.0,0.0,0.0,0.0,0.0,0.0,0.0,0.0,0.0,0.0,0.0,0.0,0.0,0.0,0.0,0.0,0.0,0.0,0.0,0.0,0.0,0.0,0.0,0.0,0.0,0.0,0.0,0.0,0.0,0.0,0.0,0.0,0.0,0.0,0.0,0.0,0.0,0.0,0.0,0.0,0.0,0.0,0.0,-2.5735,-2.6364,-2.7051,-2.7777,-2.78,-2.7788,-2.78,-2.7938,-2.7482,-2.6379,0.0,0.0,0.0,0.0,0.0,0.0,0.0,0.0,0.0,0.0,0.0,0.0,0.0,0.0,0.0,0.0,0.0,0.0,0.0,0.0,0.0,0.0,0.0,0.0,0.0,0.0,0.0,0.0,0.0,0.0,0.0,0.0,0.0,0.0,0.0,0.0,0.0,0.0,0.0,-2.3942,-2.4504,0.0,0.0,0.0,0.0,0.0,0.0,0.0,0.0,-2.5372,0.0,0.0,0.0,0.0,0.0,0.0,0.0,0.0,0.0,0.0,0.0,0.0,0.0,0.0,0.0,0.0,0.0,0.0,0.0,0.0,0.0,0.0,0.0,0.0,0.0,0.0,0.0,0.0,0.0,0.0,0.0,0.0,0.0,0.0,0.0,0.0,0.0,0.0,0.0,0.0,0.0,0.0,0.0,0.0,0.0,0.0,0.0,0.0,0.0,0.0,0.0,0.0,0.0,0.0,0.0,-2.5871,-2.6798,-2.7616,-2.8315,-2.8379,-2.8419,-2.851,-2.8618,-2.8161,0.0,0.0,0.0,0.0,0.0,0.0,0.0,0.0,0.0,0.0,0.0,0.0,0.0,0.0,0.0,0.0,0.0,0.0,0.0,0.0,0.0,0.0,0.0,0.0,0.0,0.0,0.0,0.0,0.0,0.0,0.0,0.0,0.0,0.0,0.0,0.0,0.0,0.0,0.0,0.0,-2.487,-2.5315,-2.501,0.0,0.0,0.0,0.0,0.0,0.0,-2.6658,-2.6702,0.0,0.0,0.0,0.0,0.0,0.0,0.0,0.0,0.0,0.0,0.0,0.0,0.0,0.0,0.0,0.0,0.0,0.0,0.0,0.0,0.0,0.0,0.0,0.0,0.0,0.0,0.0,0.0,0.0,0.0,0.0,0.0,0.0,0.0,0.0,0.0,0.0,0.0,0.0,0.0,0.0,0.0,0.0,0.0,0.0,0.0,0.0,0.0,0.0,0.0,0.0,0.0,0.0,0.0,0.0,-2.6127,-2.7274,-2.8164,-2.8806,-2.8882,-2.8922,-2.9091,-2.9131,-2.8665,0.0,0.0,0.0,0.0,0.0,0.0,0.0,0.0,0.0,0.0,0.0,0.0,0.0,0.0,0.0,0.0,0.0,0.0,0.0,0.0,0.0,0.0,0.0,0.0,0.0,0.0,0.0,0.0,0.0,0.0,0.0,0.0,0.0,0.0,0.0,0.0,0.0,0.0,0.0,0.0,0.0,-2.6196,-2.6196,-2.6364,0.0,0.0,0.0,0.0,-2.7946,-2.8017,0.0,0.0,0.0,0.0,0.0,0.0,0.0,0.0,0.0,0.0,0.0,0.0,0.0,0.0,0.0,0.0,0.0,0.0,0.0,0.0,0.0,0.0,0.0,0.0,0.0,0.0,0.0,0.0,0.0,0.0,0.0,0.0,0.0,0.0,0.0,0.0,0.0,0.0,0.0,0.0,0.0,0.0,0.0,0.0,0.0,0.0,0.0,0.0,0.0,0.0,0.0,0.0,0.0,0.0,0.0,0.0,-2.7262,-2.7899,-2.85,-2.9015,-2.9052,-2.9091,-2.9091,-2.9275,-2.8883,0.0,0.0,0.0,0.0,0.0,0.0,0.0,0.0,0.0,0.0,0.0,0.0,0.0,0.0,0.0,0.0,0.0,0.0,0.0,0.0,0.0,0.0,0.0,0.0,0.0,0.0,0.0,0.0,0.0,0.0,0.0,0.0,0.0,0.0,0.0,0.0,0.0,0.0,0.0,0.0,0.0,-2.7591,-2.7591,-2.8173,-2.8605,0.0,0.0,0.0,-3.0207,-2.9693,0.0,0.0,0.0,0.0,0.0,0.0,0.0,0.0,0.0,0.0,0.0,0.0,0.0,0.0,0.0,0.0,0.0,0.0,0.0,0.0,0.0,0.0,0.0,0.0,0.0,0.0,0.0,0.0,0.0,0.0,0.0,0.0,0.0,0.0,0.0,0.0,0.0,0.0,0.0,0.0,0.0,0.0,0.0,0.0,0.0,0.0,0.0,0.0,0.0,0.0,0.0,0.0,0.0,0.0,0.0,-2.5669,-2.6992,-2.7569,-2.8468,-2.9747,-2.9797,-2.9836,-2.9955,-3.014,-2.9604,0.0,0.0,0.0,0.0,0.0,0.0,0.0,0.0,0.0,0.0,0.0,0.0,0.0,0.0,0.0,0.0,0.0,0.0,0.0,0.0,0.0,0.0,0.0,0.0,0.0,0.0,0.0,0.0,0.0,0.0,0.0,0.0,0.0,0.0,0.0,0.0,0.0,0.0,0.0,0.0,0.0,0.0,-2.9032,-2.9415,0.0,0.0,0.0,-3.0715,-3.1696,0.0,0.0,0.0,0.0,0.0,0.0,0.0,0.0,0.0,0.0,0.0,0.0,0.0,0.0,0.0,0.0,0.0,0.0,0.0,0.0,0.0,0.0,0.0,0.0,0.0,0.0,0.0,0.0,0.0,0.0,0.0,0.0,0.0,0.0,0.0,0.0,0.0,0.0,0.0,0.0,0.0,0.0,0.0,0.0,0.0,0.0,0.0,0.0,0.0,0.0,0.0,0.0,0.0,0.0,0.0,0.0,0.0,-2.7026,-2.7495,-2.8549,-3.0161,-3.0303,-3.0382,-3.0552,-3.0696,0.0,0.0,0.0,0.0,0.0,0.0,0.0,0.0,0.0,0.0,0.0,0.0,0.0,0.0,0.0,0.0,0.0,0.0,0.0,0.0,0.0,0.0,0.0,0.0,0.0,0.0,0.0,-2.3225,0.0,0.0,0.0,0.0,0.0,0.0,0.0,0.0,0.0,0.0,0.0,0.0,0.0,0.0,-2.9733,-3.062,-3.0833,-3.1041,0.0,0.0,-3.2081,-3.3001,-3.218,-3.1729,0.0,0.0,0.0,0.0,0.0,0.0,0.0,0.0,0.0,0.0,0.0,0.0,0.0,0.0,0.0,0.0,0.0,0.0,0.0,0.0,0.0,0.0,0.0,0.0,0.0,0.0,0.0,0.0,0.0,0.0,0.0,0.0,0.0,0.0,0.0,0.0,0.0,0.0,0.0,0.0,0.0,0.0,0.0,0.0,0.0,0.0,0.0,0.0,0.0,0.0,0.0,0.0,0.0,0.0,0.0,-2.7947,-2.8217,-2.8922,-3.0088,-3.0318,-3.0381,-3.0381,-3.0432,-2.9881,0.0,0.0,0.0,0.0,0.0,0.0,0.0,0.0,0.0,0.0,0.0,0.0,0.0,0.0,0.0,0.0,0.0,0.0,0.0,0.0,0.0,0.0,0.0,0.0,0.0,0.0,0.0,0.0,0.0,0.0,0.0,0.0,0.0,0.0,0.0,0.0,0.0,0.0,0.0,0.0,0.0,-3.1055,-3.2357,-3.2862,-3.3143,0.0,0.0,-3.3984,-3.4225,-3.3333,-3.2694,-3.2926,0.0,0.0,0.0,0.0,0.0,0.0,0.0,0.0,0.0,0.0,0.0,0.0,0.0,0.0,0.0,0.0,0.0,0.0,0.0,0.0,0.0,0.0,0.0,0.0,0.0,0.0,0.0,0.0,0.0,0.0,0.0,0.0,0.0,0.0,0.0,0.0,0.0,0.0,0.0,0.0,0.0,0.0,0.0,0.0,0.0,0.0,0.0,0.0,0.0,0.0,0.0,0.0,0.0,-2.7281,-2.829,-2.8791,-2.9641,-3.0713,-3.0842,-3.0881,-3.0881,-3.0997,-3.0545,0.0,0.0,0.0,0.0,0.0,0.0,0.0,0.0,0.0,0.0,0.0,0.0,0.0,0.0,0.0,0.0,0.0,0.0,0.0,0.0,0.0,0.0,0.0,0.0,0.0,0.0,0.0,0.0,-2.5398,-2.5646,-2.5528,0.0,0.0,0.0,0.0,0.0,0.0,0.0,0.0,0.0,0.0,-3.1656,-3.317,-3.3514,0.0,0.0,-3.4452,-3.4654,-3.4868,-3.394,-3.3253,-3.3423,-3.16,0.0,0.0,0.0,0.0,0.0,0.0,0.0,0.0,0.0,0.0,0.0,0.0,0.0,0.0,0.0,0.0,0.0,0.0,0.0,0.0,0.0,0.0,0.0,0.0,0.0,0.0,0.0,0.0,0.0,0.0,0.0,0.0,0.0,0.0,0.0,0.0,0.0,0.0,0.0,0.0,0.0,0.0,0.0,0.0,0.0,0.0,0.0,0.0,0.0,0.0,0.0,0.0,-2.7888,-2.8484,-2.9204,-3.0072,-3.1061,-3.1113,-3.1151,-3.1151,-3.128,-3.0903,0.0,0.0,0.0,0.0,0.0,0.0,0.0,0.0,0.0,0.0,0.0,0.0,0.0,0.0,0.0,0.0,0.0,0.0,0.0,0.0,0.0,0.0,0.0,0.0,0.0,0.0,0.0,0.0,-2.599,-2.6106,-2.5594,0.0,0.0,0.0,0.0,0.0,0.0,0.0,0.0,0.0,0.0,-3.2312,-3.3892,-3.4167,-3.4404,-3.4902,-3.5133,-3.5297,-3.5394,-3.4415,-3.3713,-3.3774,0.0,0.0,0.0,0.0,0.0,0.0,0.0,0.0,0.0,0.0,0.0,0.0,0.0,0.0,0.0,0.0,0.0,0.0,0.0,0.0,0.0,0.0,0.0,0.0,0.0,0.0,0.0,0.0,0.0,0.0,0.0,0.0,0.0,0.0,0.0,0.0,0.0,0.0,0.0,0.0,0.0,0.0,0.0,0.0,0.0,0.0,0.0,0.0,0.0,0.0,0.0,0.0,0.0,0.0,-2.869,-2.9437,-3.0115,-3.0711,-3.09,-3.1013,-3.1013,-3.1013,-3.0738,-3.01,0.0,0.0,0.0,0.0,0.0,0.0,0.0,0.0,0.0,0.0,0.0,0.0,0.0,0.0,0.0,0.0,0.0,0.0,0.0,0.0,0.0,0.0,0.0,0.0,0.0,0.0,-2.6767,-2.6809,-2.6348,0.0,0.0,0.0,0.0,0.0,0.0,0.0,0.0,0.0,0.0,-3.1968,-3.3063,-3.4629,-3.5037,-3.5267,-3.5623,-3.5831,-3.5988,-3.5973,-3.4865,-3.3985,0.0,0.0,0.0,0.0,0.0,0.0,0.0,0.0,0.0,0.0,0.0,0.0,0.0,0.0,0.0,0.0,0.0,0.0,0.0,0.0,0.0,0.0,0.0,0.0,0.0,0.0,0.0,0.0,-1.9323,0.0,0.0,0.0,0.0,0.0,0.0,0.0,0.0,0.0,0.0,0.0,-2.6113,-2.613,0.0,0.0,0.0,0.0,0.0,0.0,0.0,0.0,0.0,0.0,0.0,0.0,-2.8808,-2.9411,-3.0214,-3.0678,-3.0898,-3.0986,-3.1024,-3.1024,-3.1024,-3.0712,-3.0113,0.0,0.0,0.0,0.0,0.0,0.0,0.0,0.0,0.0,0.0,0.0,0.0,0.0,0.0,0.0,0.0,0.0,0.0,0.0,0.0,0.0,0.0,0.0,0.0,0.0,-2.6606,0.0,0.0,0.0,0.0,0.0,0.0,0.0,0.0,0.0,0.0,0.0,-3.0061,-3.1689,-3.2623,-3.355,-3.4635,-3.5224,-3.5623,0.0,0.0,0.0,0.0,0.0,0.0,0.0,0.0,0.0,0.0,0.0,0.0,0.0,0.0,-3.0215,-3.0015,-2.964,-2.9321,-2.9321,0.0,0.0,0.0,0.0,0.0,0.0,0.0,0.0,0.0,0.0,0.0,0.0,0.0,0.0,0.0,0.0,-2.0669,0.0,0.0,0.0,0.0,0.0,0.0,0.0,0.0,-2.6385,-2.6995,-2.7391,-2.7532,-2.7668,0.0,-2.7938,-2.7272,0.0,0.0,0.0,0.0,0.0,0.0,0.0,0.0,-2.9479,-2.9904,-3.0611,-3.1024,-3.1024,-3.1024,-3.1024,-3.1024,-3.1024,-3.0817,-3.0451,-3.0205,-2.9771,0.0,0.0,0.0,0.0,0.0,0.0,0.0,0.0,0.0,0.0,0.0,0.0,0.0,0.0,0.0,0.0,0.0,0.0,0.0,0.0,0.0,0.0,0.0,-2.7205,0.0,0.0,0.0,0.0,0.0,0.0,0.0,0.0,0.0,-2.9516,-3.003,-3.0873,-3.2303,-3.3171,-3.3969,-3.4773,0.0,0.0,0.0,0.0,0.0,0.0,0.0,-3.5446,-3.5339,-3.4847,-3.4582,-3.4813,-3.4305,-3.3967,-3.4398,0.0,0.0,-3.1641,-3.1124,-3.0834,-3.0834,-3.0834,-3.0834,-3.0834,-3.1353,-3.1827,0.0,0.0,0.0,0.0,0.0,0.0,0.0,0.0,-2.2165,-2.2319,0.0,-2.2778,0.0,0.0,0.0,0.0,0.0,0.0,0.0,0.0,-2.7214,-2.7451,-2.8295,-2.8077,-2.7915,-2.7939,-2.8345,-2.8551,-2.8513,-2.8513,0.0,0.0,0.0,0.0,0.0,0.0,-2.9904,-3.0153,-3.0712,-3.1024,-3.1024,-3.1024,-3.1024,-3.1024,-3.1024,-3.0986,-3.0998,-3.0464,-3.0113,-3.0074,-2.9052,0.0,0.0,0.0,0.0,0.0,0.0,0.0,0.0,0.0,0.0,0.0,0.0,0.0,0.0,0.0,0.0,0.0,0.0,0.0,0.0,-2.7771,0.0,0.0,0.0,0.0,0.0,0.0,0.0,0.0,0.0,0.0,-3.0862,-3.0905,-3.1414,-3.2816,0.0,0.0,0.0,0.0,-3.6274,-3.646,-3.6492,-3.6492,-3.6492,-3.5938,-3.5552,-3.5552,0.0,0.0,-3.5429,-3.6045,-3.6353,-3.6461,-3.5814,-3.486,-3.2936,-3.2552,-3.2459,-3.2459,-3.2459,-3.2444,-3.2505,-3.297,-3.3431,-2.3757,0.0,0.0,0.0,0.0,-2.205,-2.2122,-2.2246,-2.2564,-2.2757,-2.2839,-2.3365,0.0,0.0,0.0,0.0,0.0,0.0,-2.7548,-2.814,-2.8502,-2.8841,-2.9079,-2.9573,-2.988,-3.0035,-3.0582,-3.089,-3.1021,-3.1203,-3.0355,-2.863,0.0,0.0,0.0,0.0,-3.0246,-3.0725,-3.0908,-3.1024,-3.1024,-3.1024,-3.1024,-3.1024,-3.1024,-3.1024,-3.1024,-3.083,-3.0555,-3.0113,-2.9787,0.0,0.0,0.0,0.0,0.0,0.0,0.0,0.0,0.0,0.0,0.0,0.0,0.0,0.0,0.0,0.0,0.0,0.0,0.0,-2.7681,-2.8233,-2.8275,0.0,0.0,0.0,0.0,0.0,0.0,0.0,0.0,0.0,-3.2571,-3.259,-3.2671,0.0,0.0,-3.5124,-3.5385,-3.5999,-3.6414,-3.6492,0.0,0.0,0.0,-3.6322,-3.6199,-3.6215,-3.6045,-3.6014,-3.6168,-3.5968,-3.5953,-3.6399,-3.5938,-3.5399,-3.5337,-3.4506,-3.3966,-3.3904,-3.3919,-3.3904,-3.395,-3.4443,-3.4921,-2.4863,-2.3496,-2.3066,-2.2891,-2.2934,-2.315,-2.3279,-2.3408,-2.39,-2.4187,-2.443,-2.4997,-2.5218,-2.5121,-2.5813,0.0,0.0,0.0,-2.8885,-2.9421,-2.9888,-3.0117,-3.0261,-3.0798,-3.1122,-3.1307,-3.1773,-3.21,-3.2247,-3.242,-3.1772,-3.0337,0.0,0.0,-3.0928,-3.1068,-3.1313,-3.164,-3.1666,-3.1704,-3.1653,-3.1666,-3.1548,-3.1339,-3.1313,-3.1222,-3.0999,-3.1024,-3.0817,-3.049,-3.0218,-2.9774,0.0,0.0,0.0,0.0,0.0,0.0,0.0,0.0,0.0,0.0,0.0,-2.4807,0.0,0.0,0.0,0.0,-2.711,-2.7699,-2.8235,-2.849,0.0,0.0,0.0,0.0,0.0,0.0,0.0,-3.1076,-3.1923,-3.2835,-3.3708,-3.4002,-3.402,-3.3759,-3.4754,-3.5491,-3.5491,0.0,-3.6492,-3.6492,-3.6492,-3.6492,-3.6492,-3.6492,-3.6492,-3.6492,-3.6492,-3.6492,-3.6476,-3.6138,-3.603,-3.6322,-3.6168,-3.6045,-3.6415,-3.5829,-3.5321,-3.5306,-3.5276,-3.5306,-3.5306,-3.5599,-3.5907,-2.5605,-2.5184,-2.4736,-2.4512,-2.446,-2.471,-2.4985,-2.5315,-2.5739,-2.6235,-2.6706,-2.7238,-2.7364,-2.7188,-2.7668,0.0,0.0,-2.9766,-3.0449,-3.1124,-3.1124,-3.1235,-3.1439,-3.1721,-3.1881,-3.1934,-3.2336,-3.2523,-3.2576,-3.2763,-3.2829,-3.2829,-3.2816,-3.2777,-3.2698,-3.2672,-3.2672,-3.2672,-3.2672,-3.2672,-3.2672,-3.2672,-3.2437,-3.1889,-3.1823,-3.1549,-3.1078,-3.1013,-3.1024,-3.0973,-3.049,-3.0153,-3.0074,0.0,0.0,0.0,0.0,0.0,0.0,0.0,0.0,0.0,0.0,0.0,0.0,0.0,0.0,0.0,-2.7913,0.0,-2.8587,-2.8619,0.0,0.0,0.0,-2.9054,-2.8956,-3.0079,-3.1101,-3.1902,0.0,0.0,0.0,0.0,-3.5367,-3.4751,-3.5198,-3.5598,-3.5598,-3.6107,-3.6492,-3.6599,-3.6584,-3.6599,-3.6769,-3.6769,-3.6769,-3.6784,-3.6615,-3.6615,-3.6599,-3.6492,-3.6492,-3.6492,-3.6492,-3.6492,-3.6492,-3.643,-3.6492,-3.643,-3.643,-3.6461,-3.6399,-3.6415,-3.643,-2.6758,-2.6074,-2.5967,-2.5447,-2.4756,-2.4995,-2.5351,-2.5795,-2.647,-2.6916,-2.7282,-2.8073,-2.88,-2.9326,-2.9445,-2.9922,-3.0576,-3.0753,-3.1,-3.1317,-3.1317,-3.148,-3.1749,-3.2209,-3.2618,-3.2985,-3.3426,-3.3757,-3.391,-3.3992,-3.3992,-3.3992,-3.3992,-3.3548,-3.2712,-3.2672,-3.2672,-3.2672,-3.2672,-3.2672,-3.2672,-3.2672,-3.262,-3.2489,-3.2032,-3.1732,-3.1602,-3.1209,-3.1024,-3.1024,-3.0856,-3.0581,-3.0127,-2.9826,0.0,0.0,0.0,0.0,0.0,0.0,0.0,0.0,0.0,-2.6303,-2.6889,0.0,-2.7264,0.0,-2.8317,-2.8554,-2.8587,-2.8844,0.0,0.0,-3.0145,-3.0866,-3.1174,-3.2169,-3.2976,-3.3425,-3.4241,-3.485,-3.5214,-3.583,-3.623,-3.603,-3.6153,-3.6261,-3.6261,-3.6368,-3.6676,-3.7153,-3.7261,-3.7446,-3.7892,-3.8031,-3.8,-3.8031,-3.7615,-3.7261,-3.7261,-3.683,-3.6492,-3.6492,-3.6492,-3.6492,-3.6492,-3.6492,-3.6492,-3.6492,-3.6492,-3.6492,-3.6492,-3.6492,-3.6492,-2.7327,-2.667,-2.6811,-2.6577,-2.6124,-2.6017,-2.6171,-2.6578,-2.746,-2.8005,-2.8388,-2.9323,-3.0008,-3.0465,-3.0518,-3.0888,-3.1444,-3.1568,-3.1789,-3.2127,-3.2252,-3.2377,-3.2526,-3.3053,-3.3389,-3.3664,-3.4059,-3.4285,-3.4397,-3.4397,-3.4397,-3.4397,-3.4397,-3.4071,-3.3483,-3.3456,-3.3456,-3.3443,-3.3456,-3.3456,-3.3443,-3.3456,-3.3339,-3.3091,-3.279,-3.2332,-3.1823,-3.1497,-3.1248,-3.0999,-3.1024,-3.0843,-3.0492,-3.0231,-2.9813,0.0,0.0,0.0,0.0,0.0,0.0,0.0,0.0,0.0,0.0,0.0,-2.7996,0.0,-2.8785,0.0,-2.9111,-2.9534,-3.0012,-3.0481,-3.1211,-3.1917,-3.2505,-3.323,-3.394,-3.4486,-3.5003,-3.5492,-3.5907,-3.6538,-3.6938,-3.6953,-3.72,-3.7277,-3.703,-3.7169,-3.7538,-3.7877,-3.7954,-3.8061,-3.8477,-3.8508,-3.8508,-3.8492,-3.82,-3.7954,-3.7954,-3.7661,-3.7307,-3.703,-3.6953,-3.6815,-3.6553,-3.6492,-3.6492,-3.6492,-3.6492,-3.6492,-3.6492,-3.6492,-3.6492,-2.7542,-2.7141,-2.7377,-2.7662,-2.7854,-2.7408,-2.7369,-2.7666,-2.8596,-2.9265,-2.9829,-3.0643,-3.1062,-3.1155,-3.1267,-3.1597,-3.2045,-3.2256,-3.2591,-3.3111,-3.3313,-3.3398,-3.3484,-3.3907,-3.4118,-3.416,-3.4314,-3.4397,-3.4397,-3.4397,-3.4397,-3.4397,-3.4397,-3.4397,-3.4397,-3.4397,-3.4397,-3.4397,-3.4397,-3.4397,-3.4397,-3.4397,-3.4175,-3.3718,-3.3626,-3.3117,-3.2084,-3.1876,-3.1575,-3.113,-3.1026,-3.1024,-3.1011,-3.0516,-3.0215,0.0,-3.0011,0.0,0.0,0.0,0.0,0.0,0.0,0.0,0.0,-2.8576,-2.8736,-2.8817,-2.9325,-2.9724,-2.9904,-3.0417,-3.1003,-3.1655,-3.209,-3.2664,-3.3324,-3.3909,-3.4547,-3.5355,-3.5631,-3.5999,-3.6692,-3.7277,-3.7631,-3.7677,-3.8185,-3.8385,-3.7938,-3.8154,-3.8446,-3.86,-3.8723,-3.8844,-3.8893,-3.8846,-3.8846,-3.8816,-3.8708,-3.8613,-3.8613,-3.8523,-3.8292,-3.7769,-3.7646,-3.7446,-3.6846,-3.6784,-3.6784,-3.6846,-3.6876,-3.6784,-3.6553,-3.6492,-3.6492,-2.8078,-2.7893,-2.7934,-2.8187,-2.8568,-2.8806,-2.9066,-2.9359,-2.9738,-3.0457,-3.1294,-3.1464,-3.1867,-3.2333,-3.2376,-3.2548,-3.2887,-3.2918,-3.298,-3.3124,-3.3313,-3.3484,-3.367,-3.3949,-3.4202,-3.4356,-3.4397,-3.4397,-3.4397,-3.4397,-3.4397,-3.4397,-3.4397,-3.4397,0.0,0.0,0.0,0.0,-3.4397,-3.4397,-3.4397,-3.4397,-3.4358,-3.4241,-3.3809,0.0,-3.3234,-3.2319,-3.1745,-3.1628,-3.1235,0.0,0.0,0.0,0.0,0.0,0.0,0.0,0.0,0.0,0.0,0.0,-2.9923,-2.949,-2.8649,-2.9021,-2.9509,-3.0011,-3.031,-3.05,-3.0548,-3.0887,-3.1277,-3.1688,-3.2637,-3.3463,-3.4008,-3.4963,-3.5947,-3.6714,-3.6997,-3.7369,-3.7969,-3.8262,-3.8323,-3.8354,-3.8908,-3.9213,-3.9154,-3.88,-3.8739,-3.9231,-3.9674,-4.0059,-4.0105,-4.0059,-3.9982,-4.0043,-3.9647,-3.9336,-3.9259,-3.8877,-3.8539,-3.8323,-3.8323,-3.8292,-3.8108,-3.8138,-3.8046,-3.8123,-3.8108,-3.78,-3.6738,-3.6507,-3.6492,-2.868,0.0,-2.8852,-2.9146,0.0,-3.0144,-3.0726,-3.1081,-3.1016,-3.153,-3.2488,-3.2726,-3.3085,-3.3543,-3.3664,-3.3752,-3.3897,-3.3884,-3.3972,-3.4104,-3.4043,-3.4105,-3.4307,-3.4247,-3.4285,-3.4397,-3.4397,-3.4397,-3.4397,-3.4397,-3.4397,-3.4397,-3.4397,-3.4397,-3.4397,-3.4397,-3.4397,-3.4397,-3.4397,-3.4397,-3.4397,-3.4397,-3.4397,-3.4397,0.0,0.0,0.0,0.0,0.0,0.0,0.0,0.0,0.0,0.0,0.0,-3.085,-3.1143,-3.1056,-3.0613,-3.0734,-3.073,-3.0418,-3.0405,-3.0147,-2.9536,-2.9767,-3.0113,-3.0515,-3.0904,-3.122,-3.1378,-3.1833,-3.2274,-3.2771,-3.348,-3.4153,-3.4755,-3.5825,-3.6709,-3.7238,-3.772,-3.8138,-3.8462,-3.8798,-3.9,-3.9013,-3.9585,-3.9967,-3.9951,-3.9705,-3.9644,-3.9936,-4.0228,-4.0489,-4.0489,-4.0489,-4.0489,-4.0443,-4.0213,-4.0013,-3.9982,-3.9705,-3.9416,-3.9108,-3.8967,-3.889,-3.8585,-3.8508,-3.8508,-3.8508,-3.8508,-3.8338,-3.7615,-3.7492,-3.7477,-2.9347,-2.9063,-2.9823,-3.0223,-3.0423,-3.1354,-3.2167,-3.2805,0.0,0.0,0.0,-3.386,-3.4239,-3.4466,-3.4635,-3.468,-3.468,-3.468,-3.4873,-3.5085,-3.4837,-3.4868,-3.5046,-3.4793,-3.4698,-3.4698,-3.4698,-3.4646,-3.4554,-3.4554,-3.4502,-3.441,-3.4397,-3.4397,-3.4397,-3.4397,-3.4397,-3.4397,-3.4397,-3.4397,-3.4397,-3.4397,-3.4397,-3.4397,-3.4397,-3.4188,-3.3744,-3.3639,-3.3143,-3.2176,-3.2006,-3.1693,-3.1182,-3.1356,-3.1415,-3.136,-3.1693,-3.1675,-3.124,-3.1343,-3.1232,-3.0744,-3.0717,-3.0663,-3.0581,-3.0568,-3.0677,-3.0966,-3.1466,-3.1916,-3.2249,-3.2702,-3.3283,-3.3848,-3.4311,-3.4829,-3.5526,-3.6522,-3.7382,-3.7812,-3.8369,-3.8754,-3.8923,-3.9336,-3.9659,-3.9721,-4.0105,-4.0489,-4.0489,-4.0413,-4.0382,-4.0428,-4.0459,-4.0489,-4.0489,-4.0489,-4.0489,-4.0489,-4.0489,-4.0489,-4.0489,-4.0489,-4.0259,-3.9767,-3.9674,-3.9459,-3.9016,-3.897,-3.8877,-3.8862,-3.8862,-3.8862,-3.8862,-3.8829,-3.8769,-3.0073,-3.0258,-3.0535,-3.101,-3.1654,-3.2101,-3.3124,-3.4374,-3.3899,-3.3763,-3.3919,-3.4193,-3.4466,-3.4635,-3.468,-3.468,-3.468,-3.468,-3.4861,0.0,-3.5232,-3.5447,-3.5686,-3.5813,-3.5861,-3.5861,-3.5874,-3.5626,-3.5208,-3.5168,-3.492,-3.4463,-3.4397,-3.4397,-3.4397,-3.4397,-3.4397,-3.4397,-3.4397,-3.4397,-3.4397,-3.4397,-3.4397,-3.4397,-3.4397,-3.4371,-3.428,-3.3835,-3.3522,-3.3352,-3.2855,-3.2306,-3.1732,-3.1859,-3.1863,-3.1612,-3.178,-3.1923,-3.2024,-3.206,-3.2055,-3.1974,-3.196,-3.1721,-3.1219,-3.1165,-3.1439,-3.2066,-3.2368,-3.265,-3.2862,-3.3101,-3.3431,-3.3905,-3.4701,-3.5556,-3.6264,-3.7231,-3.8187,-3.8995,-3.9308,-3.9567,-3.9997,-4.0228,-4.029,-4.0336,-4.0397,-4.0489,-4.0489,-4.0489,-4.0489,-4.0489,-4.0489,-4.0489,-4.0489,-4.0489,-4.0489,-4.0489,-4.0489,-4.0489,-4.0489,-4.0489,-4.0443,-4.0351,-4.029,-4.0243,-4.0155,-4.0197,-4.009,-4.0043,-4.0043,-4.009,-4.0059,-4.0074,-3.9782,-3.0625,-3.0781,-3.1285,-3.1902,-3.2605,-3.3191,-3.3977,-3.4763,-3.486,-3.4974,-3.5083,-3.5223,-3.5397,-3.5617,-3.5604,-3.5617,-3.5617,-3.5617,-3.5802,-3.6144,-3.5974,-3.6071,-3.6402,-3.6222,-3.6109,-3.6109,-3.6109,-3.5966,-3.5757,-3.573,-3.5443,-3.4894,-3.4567,-3.4397,-3.4397,-3.4397,-3.4397,-3.4397,-3.4397,-3.4397,-3.4397,-3.4397,-3.4397,-3.4397,-3.4397,-3.4397,-3.4397,-3.4162,-3.3888,-3.36,-3.3339,-3.2921,-3.2333,-3.2276,-3.2201,-3.2062,-3.2065,-3.2109,-3.2205,-3.2205,-3.2205,-3.2205,-3.2205,-3.211,-3.1789,-3.1775,-3.2027,-3.2497,-3.2668,-3.281,-3.3122,-3.3241,-3.3579,-3.429,-3.5024,-3.5834,-3.6869,-3.7896,-3.8766,-3.9425,-3.9813,-4.0151,-4.0459,-4.0489,-4.0489,-4.0489,-4.0489,-4.0489,-4.0489,-4.0489,-4.0489,-4.0489,-4.0489,-4.0489,-4.0489,-4.0489,-4.0489,-4.0489,-4.0489,-4.0489,-4.0489,-4.0489,-4.0489,-4.0489,-4.0489,-4.0489,-4.0489,-4.0489,-4.0489,-4.0489,-4.0489,-4.0489,-4.0489,-4.0489,-4.0259,-3.1288,-3.1353,-3.2129,-3.289,-3.3601,-3.4353,-3.488,-3.5199,-3.5525,-3.586,-3.6063,-3.6098,-3.6181,-3.6417,-3.6417,-3.6405,-3.6417,-3.6417,-3.664,-3.7023,-3.666,-3.6741,-3.7123,-3.6724,-3.6515,-3.6515,-3.6515,-3.6436,-3.6332,-3.6305,-3.6018,-3.5469,-3.4894,-3.4607,-3.4593,-3.4463,-3.4397,-3.4397,-3.4397,-3.4397,-3.4397,-3.4397,-3.4397,-3.4397,-3.4397,-3.4397,-3.4397,-3.4397,-3.4201,-3.3809,-3.377,-3.3522,-3.2974,-3.2816,-3.2691,-3.2608,-3.2559,-3.2471,-3.2372,-3.23,-3.2205,-3.2205,-3.2205,-3.2205,-3.2205,-3.2205,-3.2314,-3.2596,-3.2668,-3.2901,-3.3367,-3.3515,-3.3903,-3.4861,-3.5495,-3.6342,-3.7495,-3.856,-3.9329,-3.9699,-4.0182,-4.0489,-4.0489,-4.0489,-4.0489,-4.0489,-4.0489,-4.0489,-4.0489,-4.0489,-4.0489,-4.0489,-4.0489,-4.0489,-4.0489,-4.0489,-4.0489,-4.0489,-4.0489,-4.0489,-4.0489,-4.0489,-4.0489,-4.0489,-4.0489,-4.0489,-4.0489,-4.0489,-4.0489,-4.0489,-4.0489,-4.0489,-4.0489,-4.0489,-4.0489,-3.2031,-3.2556,-3.2997,-3.3863,-3.4988,-3.5355,-3.5754,-3.6174,-3.6034,-3.6098,-3.6323,-3.637,-3.637,-3.6417,-3.6417,-3.6417,-3.6417,-3.6417,-3.664,-3.7062,-3.7057,-3.7335,-3.7736,-3.773,-3.773,-3.7691,-3.7678,-3.7377,-3.6933,-3.6894,-3.6606,-3.6031,-3.5482,-3.5195,-3.5142,-3.4672,-3.441,-3.4397,-3.4397,-3.4397,-3.4397,-3.4397,-3.4397,-3.4397,-3.4397,-3.4397,-3.4397,-3.4397,-3.4371,-3.4319,-3.4319,-3.4071,-3.3615,-3.3673,-3.3595,-3.3274,-3.3361,-3.3338,-3.3023,-3.2517,-3.2223,-3.2205,-3.2236,-3.2273,-3.2273,-3.2246,-3.2277,-3.2485,-3.2638,-3.3074,-3.374,-3.4032,-3.4552,-3.5532,-3.6447,-3.744,-3.8242,-3.9269,-4.0045,-4.0363,-4.0428,-4.0489,-4.0489,-4.0489,-4.0489,-4.0489,-4.0489,-4.0489,-4.0489,-4.0489,-4.0489,-4.0489,-4.0489,-4.0489,-4.0489,-4.0489,-4.0489,-4.0489,-4.0489,-4.0489,-4.0489,-4.0489,-4.0489,-4.0489,-4.0489,-4.0489,-4.0489,-4.0489,-4.0489,-4.0489,-4.0489,-4.0489,-4.0489,-4.0489,-4.0489,-3.2305,-3.3016,-3.358,-3.4481,-3.562,-3.6268,-3.6497,-3.6407,-3.649,-3.642,-3.643,-3.6417,-3.6417,-3.6417,-3.6417,-3.6417,-3.6417,-3.6417,-3.6653,-3.7062,-3.7108,-3.7413,-3.7854,-3.79,-3.79,-3.79,-3.79,-3.7782,-3.7508,-3.7181,-3.6867,-3.6606,-3.6057,-3.5613,-3.5312,-3.5051,-3.4763,-3.441,-3.4397,-3.4397,-3.4397,-3.4397,-3.4397,-3.4397,-3.4397,-3.4397,-3.4397,-3.4397,-3.4397,-3.4397,-3.4397,-3.4293,-3.4084,-3.3974,-3.3873,-3.3833,-3.3774,-3.3736,-3.3555,-3.3311,-3.3227,-3.3176,-3.3189,-3.3213,-3.3189,-3.3189,-3.3213,-3.3271,-3.328,-3.3614,-3.4316,-3.4649,-3.521,-3.6131,-3.6894,-3.7718,-3.8874,-3.9602,-4.0137,-4.0436,-4.0489,-4.0489,-4.0489,-4.0489,-4.0489,-4.0489,-4.0489,-4.0489,-4.0489,-4.0489,-4.0489,-4.0489,-4.0489,-4.0489,-4.0489,-4.0489,-4.0489,-4.0489,-4.0489,-4.0489,-4.0489,-4.0489,-4.0489,-4.0489,-4.0489,-4.0489,-4.0489,-4.0489,-4.0489,-4.0489,-4.0489,-4.0489,-4.0489,-4.0489,-4.0489,-3.242,-3.3388,-3.4289,-3.5308,-3.6302,-3.7096,-3.7095,-3.6665,-3.6811,-3.6728,-3.6443,-3.6417,-3.6417,-3.6417,-3.6417,-3.6417,-3.6417,-3.6417,-3.664,-3.7062,-3.7108,-3.74,-3.7854,-3.79,-3.79,-3.79,-3.79,-3.79,-3.7861,-3.7482,-3.7246,-3.7155,-3.6645,-3.6083,-3.5561,-3.5391,-3.4999,-3.445,-3.4397,-3.4397,-3.4397,-3.4397,-3.4397,-3.4397,-3.4397,-3.4397,-3.4397,-3.4397,-3.4397,-3.4397,-3.4397,-3.4397,-3.4384,-3.4183,-3.4136,-3.4326,-3.4163,-3.4074,-3.4074,-3.3964,-3.3908,-3.3908,-3.3908,-3.3908,-3.3908,-3.3908,-3.3989,-3.4149,-3.4139,-3.4375,-3.4881,-3.5218,-3.5798,-3.6802,-3.7298,-3.8077,-3.9218,-3.9768,-4.0137,-4.0436,-4.0489,-4.0489,-4.0489,-4.0489,-4.0489,-4.0489,-4.0489,-4.0489,-4.0489,-4.0489,-4.0489,-4.0489,-4.0489,-4.0489,-4.0489,-4.0489,-4.0489,-4.0489,-4.0489,-4.0489,-4.0489,-4.0489,-4.0489,-4.0489,-4.0489,-4.0489,-4.0489,-4.0489,-4.0489,-4.0489,-4.0489,-4.0489,-4.0489,-4.0489,-4.0489,-3.2534,-3.3794,-3.5444,-3.646,-3.7115,-3.7693,-3.7671,-3.7145,-3.7206,-3.691,-3.6455,-3.6443,-3.6417,-3.6417,-3.6417,-3.6417,-3.6417,-3.6405,-3.664,-3.7062,-3.7108,-3.74,-3.79,-3.79,-3.79,-3.79,-3.79,-3.79,-3.79,-3.7861,-3.7861,-3.7808,-3.7246,-3.6658,-3.6083,-3.5587,-3.5012,-3.4528,-3.4424,-3.4397,-3.4397,-3.4397,-3.4397,-3.4397,-3.4397,-3.4397,-3.4397,-3.4397,-3.4397,-3.4397,-3.4397,-3.4397,-3.4397,-3.44,-3.4498,-3.4719,-3.4567,-3.4485,-3.4418,-3.4145,-3.3977,-3.3962,-3.4018,-3.3962,-3.4084,-3.4084,-3.4273,-3.4707,-3.4956,-3.5176,-3.5449,-3.5669,-3.629,-3.7334,-3.7866,-3.8465,-3.9277,-3.9768,-4.0121,-4.042,-4.0489,-4.0489,-4.0489,-4.0489,-4.0489,-4.0489,-4.0489,-4.0489,-4.0489,-4.0489,-4.0489,-4.0489,-4.0489,-4.0489,-4.0489,-4.0489,-4.0489,-4.0489,-4.0489,-4.0489,-4.0489,-4.0489,-4.0489,-4.0489,-4.0489,-4.0489,-4.0489,-4.0489,-4.0489,-4.0489,-4.0489,-4.0489,-4.0489,-4.0489,-4.0489,-3.3218,-3.459,-3.5993,-3.6862,-3.7507,-3.8214,-3.8093,-3.7518,-3.8066,-3.7586,-3.6606,-3.6769,-3.6744,-3.6417,-3.6417,-3.6417,-3.6405,-3.6546,-3.6769,-3.7108,-3.7261,-3.7564,-3.7854,-3.79,-3.79,-3.79,-3.79,-3.79,-3.79,-3.79,-3.79,-3.7887,-3.7691,-3.7273,-3.6671,-3.6096,-3.5534,-3.4986,-3.462,-3.4397,-3.4397,-3.4397,-3.4397,-3.4397,-3.4397,-3.4397,-3.4397,-3.4397,-3.4397,-3.4397,-3.4397,-3.4397,-3.4397,-3.4577,-3.4701,-3.4784,-3.4845,-3.4888,-3.4861,-3.4781,-3.4727,-3.4847,-3.4847,-3.4886,-3.5046,-3.5046,-3.5127,-3.5343,-3.5438,-3.565,-3.602,-3.627,-3.6704,-3.7453,-3.7991,-3.8501,-3.9235,-3.9753,-4.0137,-4.042,-4.0489,-4.0489,-4.0489,-4.0489,-4.0489,-4.0489,-4.0489,-4.0489,-4.0489,-4.0489,-4.0489,-4.0489,-4.0489,-4.0489,-4.0489,-4.0489,-4.0489,-4.0489,-4.0489,-4.0489,-4.0489,-4.0489,-4.0489,-4.0489,-4.0489,-4.0489,-4.0489,-4.0489,-4.0489,-4.0489,-4.0489,-4.0489,-4.0489,-4.0489,-4.0489,-3.3942,-3.5191,-3.6266,-3.7078,-3.7809,-3.8473,-3.8428,-3.7966,-3.8592,-3.8077,-3.6945,-3.7023,-3.692,-3.6468,-3.6417,-3.6417,-3.6417,-3.6581,-3.6862,-3.7108,-3.7353,-3.7657,-3.7854,-3.79,-3.79,-3.79,-3.79,-3.79,-3.79,-3.79,-3.79,-3.79,-3.79,-3.7599,-3.7011,-3.6397,-3.5835,-3.5286,-3.4698,-3.4397,-3.4397,-3.4397,-3.4397,-3.4397,-3.4397,-3.4397,-3.4397,-3.4397,-3.4397,-3.4397,-3.4397,-3.4397,-3.4397,-3.4577,-3.466,-3.4701,-3.488,-3.5003,-3.5003,-3.5044,-3.5141,-3.5263,-3.5358,-3.548,-3.5588,-3.5669,-3.571,-3.571,-3.571,-3.5884,-3.6232,-3.6484,-3.6864,-3.751,-3.7901,-3.8412,-3.9199,-3.9661,-4.0051,-4.0401,-4.0489,-4.0489,-4.0489,-4.0489,-4.0489,-4.0489,-4.0489,-4.0489,-4.0489,-4.0489,-4.0489,-4.0489,-4.0489,-4.0489,-4.0489,-4.0489,-4.0489,-4.0489,-4.0489,-4.0489,-4.0489,-4.0489,-4.0489,-4.0489,-4.0489,-4.0489,-4.0489,-4.0489,-4.0489,-4.0489,-4.0489,-4.0489,-4.0489,-4.0489,-4.0489,-3.4624,-3.5488,-3.6363,-3.7239,-3.8027,-3.8518,-3.8652,-3.8476,-3.8742,-3.8191,-3.7161,-3.7211,-3.6948,-3.6493,-3.6417,-3.6417,-3.6452,-3.6628,-3.6875,-3.7108,-3.7413,-3.7657,-3.79,-3.79,-3.79,-3.79,-3.79,-3.79,-3.79,-3.79,-3.79,-3.79,-3.79,-3.7639,-3.7037,-3.6449,-3.5848,-3.5338,-3.475,-3.441,-3.4397,-3.4397,-3.4397,-3.4397,-3.4397,-3.4397,-3.4397,-3.4397,-3.4397,-3.4397,-3.4397,-3.4397,-3.4397,-3.4439,-3.4397,-3.4494,-3.4673,-3.481,-3.4797,-3.4962,-3.5031,-3.5113,-3.5277,-3.5358,-3.544,-3.5588,-3.5669,-3.5723,-3.571,-3.5804,-3.6086,-3.6325,-3.6707,-3.7471,-3.7787,-3.8263,-3.8943,-3.9466,-3.9895,-4.0351,-4.0489,-4.0489,-4.0489,-4.0489,-4.0489,-4.0489,-4.0489,-4.0489,-4.0489,-4.0489,-4.0489,-4.0489,-4.0489,-4.0489,-4.0489,-4.0489,-4.0489,-4.0489,-4.0489,-4.0489,-4.0489,-4.0489,-4.0489,-4.0489,-4.0489,-4.0489,-4.0489,-4.0489,-4.0489,-4.0489,-4.0489,-4.0489,-4.0489,-4.0489,-4.0489,-3.508,-3.5763,-3.658,-3.7495,-3.8202,-3.8292,-3.8421,-3.8767,-3.8868,-3.8278,-3.7387,-3.7588,-3.7249,-3.6568,-3.6417,-3.6417,-3.6452,-3.6781,-3.7015,-3.7155,-3.7551,-3.7795,-3.79,-3.79,-3.79,-3.79,-3.79,-3.79,-3.79,-3.79,-3.79,-3.79,-3.79,-3.7808,-3.756,-3.6645,-3.5992,-3.577,-3.4881,-3.4397,-3.4397,-3.4397,-3.4397,-3.4397,-3.4397,-3.4397,-3.4397,-3.4397,-3.4397,-3.4397,-3.4397,-3.4397,-3.4397,-3.4397,-3.4397,-3.4384,-3.4481,-3.4535,-3.4535,-3.4618,-3.4701,-3.488,-3.4962,-3.5113,-3.5358,-3.548,-3.5548,-3.5683,-3.571,-3.5804,-3.6072,-3.6286,-3.6628,-3.7162,-3.7634,-3.815,-3.8855,-3.961,-4.0156,-4.0436,-4.0489,-4.0489,-4.0489,-4.0489,-4.0489,-4.0489,-4.0489,-4.0489,-4.0489,-4.0489,-4.0489,-4.0489,-4.0489,-4.0489,-4.0489,-4.0489,-4.0489,-4.0489,-4.0489,-4.0489,-4.0489,-4.0489,-4.0489,-4.0489,-4.0489,-4.0489,-4.0489,-4.0489,-4.0489,-4.0489,-4.0489,-4.0489,-4.0489,-4.0489,-4.0489,-3.5566,-3.6188,-3.7066,-3.788,-3.8505,-3.8251,-3.8575,-3.912,-3.9007,-3.8341,-3.7701,-3.7839,-3.74,-3.6581,-3.6417,-3.6417,-3.6452,-3.6875,-3.7108,-3.7214,-3.7657,-3.79,-3.79,-3.79,-3.79,-3.79,-3.79,-3.79,-3.79,-3.79,-3.79,-3.79,-3.79,-3.79,-3.7795,-3.6737,-3.6109,-3.594,-3.4986,-3.4397,-3.4397,-3.4397,-3.4397,-3.4397,-3.4397,-3.4397,-3.4397,-3.4397,-3.4397,-3.4397,-3.4397,-3.4397,-3.4397,-3.4397,-3.4397,-3.4397,-3.4397,-3.4397,-3.4397,-3.4397,-3.4452,-3.4632,-3.4756,-3.488,-3.5154,-3.5277,-3.548,-3.5548,-3.5669,-3.5764,-3.5938,-3.6152,-3.6431,-3.6733,-3.7366,-3.8075,-3.8819,-3.9646,-4.0191,-4.0366,-4.047,-4.0505,-4.0489,-4.0489,-4.0489,-4.0489,-4.0489,-4.0489,-4.0489,-4.0489,-4.0489,-4.0489,-4.0489,-4.0489,-4.0489,-4.0489,-4.0489,-4.0489,-4.0489,-4.0489,-4.0489,-4.0489,-4.0489,-4.0489,-4.0489,-4.0489,-4.0489,-4.0489,-4.0489,-4.0489,-4.0489,-4.0489,-4.0489,-4.0489,-4.0489,-3.5927,-3.6754,-3.7601,-3.8214,-3.8641,-3.8409,-3.8765,-3.9446,-3.9019,-3.8454,-3.804,-3.7977,-3.74,-3.6593,-3.6417,-3.6417,-3.6512,-3.6875,-3.7108,-3.7261,-3.7657,-3.79,-3.79,-3.79,-3.79,-3.79,-3.79,-3.79,-3.79,-3.79,-3.79,-3.79,-3.79,-3.79,-3.7678,-3.6711,-3.6109,-3.5953,-3.4972,-3.441,-3.4397,-3.4397,-3.4397,-3.4397,-3.4397,-3.4397,-3.4397,-3.4397,-3.4397,-3.4397,-3.4397,-3.4397,-3.4397,-3.4397,-3.4397,-3.4397,-3.4397,-3.4397,-3.4397,-3.4397,-3.4397,-3.4452,-3.4618,-3.4797,-3.488,-3.5154,-3.5358,-3.544,-3.5588,-3.571,-3.5764,-3.5978,-3.6232,-3.6496,-3.7226,-3.8052,-3.8943,-3.9625,-4.0016,-4.0277,-4.0401,-4.0489,-4.0489,-4.0489,-4.0489,-4.0489,-4.0489,-4.0489,-4.0489,-4.0489,-4.0489,-4.0489,-4.0489,-4.0489,-4.0489,-4.0489,-4.0489,-4.0489,-4.0489,-4.0489,-4.0489,-4.0489,-4.0489,-4.0489,-4.0489,-4.0489,-4.0489,-4.0489,-4.0489,-4.0489,-4.0489,-4.0489,-4.0489,-4.0489,-4.0489,-3.6091,-3.6754,-3.7655,-3.8073,-3.815,-3.7926,-3.8316,-3.8981,-3.8479,-3.8178,-3.8015,-3.8002,-3.74,-3.648,-3.6417,-3.6417,-3.6499,-3.6875,-3.7108,-3.7201,-3.7657,-3.79,-3.79,-3.79,-3.79,-3.79,-3.79,-3.79,-3.79,-3.79,-3.79,-3.79,-3.79,-3.79,-3.7717,-3.6711,-3.6149,-3.5953,-3.4972,-3.4397,-3.4397,-3.4397,-3.4397,-3.4397,-3.4397,-3.4397,-3.4397,-3.4397,-3.4397,-3.4397,-3.4397,-3.4397,-3.4397,-3.4397,-3.4397,-3.4397,-3.4397,-3.4397,-3.4397,-3.4397,-3.4397,-3.4397,-3.4494,-3.4577,-3.481,-3.5044,-3.5236,-3.5399,-3.5588,-3.571,-3.5723,-3.5938,-3.6312,-3.6797,-3.7366,-3.8075,-3.876,-3.9379,-3.991,-4.0226,-4.0401,-4.0455,-4.0489,-4.0489,-4.0489,-4.0489,-4.0489,-4.0489,-4.0489,-4.0489,-4.0489,-4.0489,-4.0489,-4.0489,-4.0489,-4.0489,-4.0489,-4.0489,-4.0489,-4.0489,-4.0489,-4.0489,-4.0489,-4.0489,-4.0489,-4.0489,-4.0489,-4.0489,-4.0489,-4.0489,-4.0489,-4.0489,-4.0489,-4.0489,-4.0489,-3.6363,-3.6982,-3.7921,-3.8209,-3.7993,-3.7804,-3.8191,-3.868,-3.8266,-3.8002,-3.8002,-3.8002,-3.74,-3.648,-3.6417,-3.6417,-3.6439,-3.6875,-3.7108,-3.7201,-3.7657,-3.79,-3.79,-3.79,-3.79,-3.79,-3.79,-3.79,-3.79,-3.79,-3.79,-3.79,-3.79,-3.79,-3.7821,-3.6737,-3.6109,-3.59,-3.4999,-3.4397,-3.4397,-3.4397,-3.4397,-3.4397,-3.4397,-3.4397,-3.4397,-3.4397,-3.4397,-3.4397,-3.4397,-3.4397,-3.4397,-3.4397,-3.4397,-3.4397,-3.4397,-3.4397,-3.4397,-3.4397,-3.4397,-3.4397,-3.4397,-3.4494,-3.4632,-3.4839,-3.5086,-3.5249,-3.548,-3.5588,-3.5764,-3.6032,-3.6338,-3.6733,-3.7366,-3.8014,-3.8612,-3.9228,-3.9711,-4.0066,-4.0296,-4.042,-4.0505,-4.0489,-4.0489,-4.0489,-4.0489,-4.0489,-4.0489,-4.0489,-4.0489,-4.0489,-4.0489,-4.0489,-4.0489,-4.0489,-4.0489,-4.0489,-4.0489,-4.0489,-4.0489,-4.0489,-4.0489,-4.0489,-4.0489,-4.0489,-4.0489,-4.0489,-4.0489,-4.0489,-4.0489,-4.0489,-4.0489,-4.0489,-4.0489,-3.6646,-3.7173,-3.8303,-3.8445,-3.7945,-3.7992,-3.8278,-3.8592,-3.8115,-3.7927,-3.7965,-3.7952,-3.7274,-3.643,-3.6417,-3.6417,-3.6405,-3.6828,-3.7062,-3.7261,-3.7657,-3.79,-3.79,-3.79,-3.79,-3.79,-3.79,-3.79,-3.79,-3.79,-3.79,-3.79,-3.79,-3.7835,-3.7534,-3.6632,-3.6136,-3.5783,-3.4933,-3.4424,-3.4397,-3.4397,-3.4397,-3.4397,-3.4397,-3.4397,-3.4397,-3.4397,-3.4397,-3.4397,-3.4397,-3.4397,-3.4397,-3.4397,-3.4397,-3.4397,-3.4397,-3.4397,-3.4397,-3.4397,-3.4397,-3.4397,-3.4397,-3.4397,-3.4494,-3.4714,-3.4921,-3.5127,-3.5277,-3.548,-3.5723,-3.6112,-3.6365,-3.6603,-3.7123,-3.7801,-3.8381,-3.901,-3.9517,-3.994,-4.0172,-4.0347,-4.047,-4.0489,-4.0489,-4.0489,-4.0489,-4.0489,-4.0489,-4.0489,-4.0489,-4.0489,-4.0489,-4.0489,-4.0489,-4.0489,-4.0489,-4.0489,-4.0489,-4.0489,-4.0489,-4.0489,-4.0489,-4.0489,-4.0489,-4.0489,-4.0489,-4.0489,-4.0489,-4.0489,-4.0489,-4.0489,-4.0489,-4.0489,-4.0489,-3.6796,-3.7185,-3.8303,-3.8236,-3.7515,-3.7817,-3.8078,-3.814,-3.7613,-3.7663,-3.7839,-3.7563,-3.6998,-3.6417,-3.6417,-3.6417,-3.6465,-3.6734,-3.7015,-3.7459,-3.7749,-3.79,-3.79,-3.79,-3.79,-3.79,-3.79,-3.79,-3.79,-3.79,-3.79,-3.79,-3.7874,-3.7665,-3.7155,-3.6541,-3.5861,-3.543,-3.475,-3.4424,-3.4397,-3.4397,-3.4397,-3.4397,-3.4397,-3.4397,-3.4397,-3.4397,-3.4397,-3.4397,-3.4397,-3.4397,-3.4397,-3.4397,-3.4397,-3.4397,-3.4397,-3.4397,-3.4397,-3.4397,-3.4397,-3.4397,-3.4397,-3.4397,-3.4397,-3.4618,-3.488,-3.5086,-3.529,-3.544,-3.5723,-3.6152,-3.6365,-3.6524,-3.6968,-3.7534,-3.8052,-3.8686,-3.925,-3.9696,-4.0066,-4.0331,-4.0455,-4.0455,-4.0489,-4.0489,-4.0489,-4.0489,-4.0489,-4.0489,-4.0489,-4.0489,-4.0489,-4.0489,-4.0489,-4.0489,-4.0489,-4.0489,-4.0489,-4.0489,-4.0489,-4.0489,-4.0489,-4.0489,-4.0489,-4.0489,-4.0489,-4.0489,-4.0489,-4.0489,-4.0489,-4.0489,-4.0489,-4.0489,-4.0489,-3.6862,-3.7215,-3.8036,-3.7941,-3.7355,-3.7755,-3.7864,-3.7663,-3.7613,-3.7575,-3.7563,-3.7287,-3.692,-3.643,-3.6417,-3.6417,-3.6512,-3.6781,-3.7108,-3.7505,-3.7762,-3.79,-3.79,-3.79,-3.79,-3.79,-3.79,-3.79,-3.79,-3.79,-3.79,-3.79,-3.7887,-3.7586,-3.6998,-3.6397,-3.5835,-3.5299,-3.4711,-3.4397,-3.4397,-3.4397,-3.4397,-3.4397,-3.4397,-3.4397,-3.4397,-3.4397,-3.4397,-3.4397,-3.4397,-3.4397,-3.4397,-3.4397,-3.4397,-3.4397,-3.4397,-3.4397,-3.4397,-3.4397,-3.4397,-3.4397,-3.4397,-3.4397,-3.4397,-3.4535,-3.4784,-3.5031,-3.5195,-3.5358,-3.5683,-3.6032,-3.6246,-3.647,-3.6836,-3.7303,-3.7658,-3.824,-3.8922,-3.9409,-3.9747,-4.0051,-4.0211,-4.0316,-4.042,-4.042,-4.0505,-4.0505,-4.0489,-4.0489,-4.0489,-4.0489,-4.0489,-4.0489,-4.0489,-4.0489,-4.0489,-4.0489,-4.0489,-4.0489,-4.0489,-4.0489,-4.0489,-4.0489,-4.0489,-4.0489,-4.0489,-4.0489,-4.0489,-4.0489,-4.0489,-4.0489,-4.0474,-4.0459,-4.0459,-3.6869,-3.7044,-3.7709,-3.7621,-3.7318,-3.7618,-3.7627,-3.745,-3.76,-3.7437,-3.7224,-3.7123,-3.6782,-3.6493,-3.6417,-3.6417,-3.6512,-3.6781,-3.7121,-3.7413,-3.7657,-3.7808,-3.7854,-3.79,-3.79,-3.79,-3.79,-3.79,-3.79,-3.79,-3.79,-3.7887,-3.7756,-3.7351,-3.6828,-3.6266,-3.5626,-3.5064,-3.4633,-3.4397,-3.4397,-3.4397,-3.4397,-3.4397,-3.4397,-3.4397,-3.4397,-3.4397,-3.4397,-3.4397,-3.4397,-3.4397,-3.4397,-3.4397,-3.4397,-3.4397,-3.4397,-3.4397,-3.4397,-3.4397,-3.4397,-3.4397,-3.4397,-3.4397,-3.4397,-3.4439,-3.466,-3.4949,-3.5195,-3.5399,-3.5683,-3.5978,-3.6152,-3.6351,-3.6733,-3.7031,-3.7289,-3.7749,-3.8352,-3.9083,-3.9373,-3.9646,-3.993,-4.0141,-4.0246,-4.0385,-4.0436,-4.047,-4.047,-4.0489,-4.0489,-4.0489,-4.0489,-4.0489,-4.0489,-4.0489,-4.0489,-4.0489,-4.0489,-4.0489,-4.0489,-4.0489,-4.0489,-4.0489,-4.0489,-4.0489,-4.0489,-4.0489,-4.0489,-4.0489,-4.0489,-4.0489,-4.0459,-4.0397,-4.0305,-3.6831,-3.6573,-3.7356,-3.7468,-3.7194,-3.7084,-3.733,-3.7688,-3.701,-3.692,-3.7098,-3.6769,-3.6543,-3.6417,-3.6417,-3.6417,-3.6452,-3.6675,-3.6922,-3.7168,-3.7459,-3.7657,-3.7854,-3.79,-3.79,-3.79,-3.79,-3.79,-3.79,-3.79,-3.7861,-3.7795,-3.7429,-3.6907,-3.6292,-3.5717,-3.5221,-3.475,-3.4476,-3.441,-3.4397,-3.4397,-3.4397,-3.4397,-3.4397,-3.4397,-3.4397,-3.4397,-3.4397,-3.4397,-3.4397,-3.4397,-3.4397,-3.4397,-3.4397,-3.4397,-3.4397,-3.4397,-3.4397,-3.4397,-3.4397,-3.4397,-3.4397,-3.4397,-3.4397,-3.4397,-3.466,-3.5031,-3.5358,-3.5629,-3.5669,-3.5884,-3.6072,-3.6232,-3.651,-3.6811,-3.7031,-3.7366,-3.7787,-3.8478,-3.8885,-3.925,-3.9538,-3.9788,-3.993,-4.0071,-4.0191,-4.0277,-4.0312,-4.0401,-4.0455,-4.0489,-4.0489,-4.0489,-4.0489,-4.0489,-4.0489,-4.0489,-4.0489,-4.0489,-4.0489,-4.0489,-4.0489,-4.032,-4.0397,-4.0489,-4.0489,-4.0459,-4.0366,-4.0259,-4.0351,-4.0428,-4.012,-3.9813,-3.9674,-3.6162,-3.6032,-3.668,-3.6901,-3.6874,-3.7097,-3.7168,-3.7136,-3.6933,-3.6807,-3.6732,-3.6531,-3.6417,-3.6417,-3.6417,-3.6417,-3.6452,-3.6628,-3.6769,-3.6968,-3.7307,-3.7551,-3.7703,-3.7808,-3.79,-3.79,-3.79,-3.79,-3.79,-3.79,-3.773,-3.7416,-3.7116,-3.6567,-3.5848,-3.5456,-3.4959,-3.4528,-3.4397,-3.4397,-3.4397,-3.4397,-3.4397,-3.4397,-3.4397,-3.4397,-3.4397,-3.4397,-3.4397,-3.4397,-3.4397,-3.4397,-3.4397,-3.4397,-3.4397,-3.4397,-3.4397,-3.4397,-3.4397,-3.4397,-3.4397,-3.4397,-3.4397,-3.4397,-3.4397,-3.4439,-3.466,-3.5031,-3.544,-3.571,-3.571,-3.5844,-3.5938,-3.6112,-3.6351,-3.6628,-3.685,-3.7123,-3.7495,-3.7915,-3.8277,-3.8723,-3.9126,-3.9343,-3.9538,-3.9732,-3.991,-4.0031,-4.0101,-4.0226,-4.0351,-4.0436,-4.047,-4.0489,-4.0489,-4.0489,-4.0489,-4.0489,-4.0366,-4.0382,-4.0351,-4.029,-4.012,-3.992,-4.009,-4.0228,-4.029,-4.0182,-4.0105,-3.9955,-3.9674,-3.9459,-3.9367,-3.9247,-3.9077,-3.5538,-3.562,-3.6105,-3.641,-3.6616,-3.6974,-3.697,-3.6697,-3.6908,-3.6782,-3.6455,-3.6417,-3.6417,-3.6417,-3.6417,-3.6417,-3.6405,-3.6593,-3.6675,-3.6769,-3.7108,-3.7353,-3.7551,-3.7703,-3.7854,-3.79,-3.79,-3.79,-3.7861,-3.7717,-3.7416,-3.7063,-3.6881,-3.6279,-3.5469,-3.5142,-3.4789,-3.4567,-3.4397,-3.4397,-3.4397,-3.4397,-3.4397,-3.4397,-3.4397,-3.4397,-3.4397,-3.4397,-3.4397,-3.4397,-3.4397,-3.4397,-3.4397,-3.4397,-3.4397,-3.4397,-3.4397,-3.4397,-3.4397,-3.4397,-3.4397,-3.4397,-3.4397,-3.4397,-3.4439,-3.4522,-3.4743,-3.5072,-3.544,-3.571,-3.571,-3.571,-3.5804,-3.5992,-3.6232,-3.647,-3.6707,-3.6943,-3.7162,-3.7534,-3.7787,-3.8165,-3.8523,-3.8797,-3.8943,-3.9213,-3.943,-3.9661,-3.9783,-3.998,-4.0106,-4.0296,-4.0401,-4.047,-4.0489,-4.0489,-4.0489,-4.0489,-4.0228,-4.0043,-4.0028,-3.9997,-3.9754,-3.9385,-3.9539,-3.9628,-3.9767,-3.9751,-3.9474,-3.917,-3.8785,-3.8692,-3.8846,-3.8646,-3.8354,-3.5602,-3.562,-3.5939,-3.6464,-3.6861,-3.6284,-3.6402,-3.6998,-3.6694,-3.648,-3.6417,-3.6417,-3.6417,-3.6417,-3.6417,-3.6417,-3.6417,-3.6452,-3.6534,-3.6675,-3.6815,-3.7108,-3.7459,-3.7505,-3.7703,-3.7815,-3.7848,-3.79,-3.773,-3.7364,-3.7077,-3.6776,-3.6031,-3.5391,-3.5195,-3.4829,-3.4476,-3.441,-3.4397,-3.4397,-3.4397,-3.4397,-3.4397,-3.4397,-3.4397,-3.4397,-3.4397,-3.4397,-3.4397,-3.4397,-3.4397,-3.4397,-3.4397,-3.4397,-3.4397,-3.4397,-3.4397,-3.4397,-3.4397,-3.4397,-3.4397,-3.4397,-3.4397,-3.4397,-3.4481,-3.4729,-3.499,-3.5072,-3.548,-3.5669,-3.571,-3.571,-3.571,-3.5884,-3.6152,-3.6351,-3.6524,-3.685,-3.707,-3.7148,-3.7443,-3.7672,-3.7962,-3.815,-3.8389,-3.8649,-3.8922,-3.9192,-3.9445,-3.9646,-3.9895,-4.0086,-4.0331,-4.0436,-4.0317,-4.0347,-4.0259,-4.032,-3.9951,-3.9613,-3.9521,-3.9416,-3.8985,-3.8754,-3.8893,-3.88,-3.8662,-3.86,-3.86,-3.8462,-3.8185,-3.8292,-3.8539,-3.8169,-3.7646,-3.4849,-3.5168,-3.5604,-3.5949,-3.6284,-3.6063,-3.6304,-3.6624,-3.6518,-3.6417,-3.6417,-3.6417,-3.6417,-3.6417,-3.6417,-3.6417,-3.6417,-3.6417,-3.6452,-3.6534,-3.6675,-3.6922,-3.7214,-3.7459,-3.7644,-3.7678,-3.7573,-3.7351,-3.7273,-3.709,-3.6776,-3.6018,-3.5561,-3.5116,-3.4881,-3.4554,-3.4437,-3.4397,-3.4397,-3.4397,-3.4397,-3.4397,-3.4397,-3.4397,-3.4397,-3.4397,-3.4397,-3.4397,-3.4397,-3.4397,-3.4397,-3.4397,-3.4397,-3.4397,-3.4397,-3.4397,-3.4397,-3.4397,-3.4397,-3.4397,-3.4397,-3.4397,-3.4397,-3.4397,-3.4481,-3.4812,-3.5072,-3.5113,-3.548,-3.5669,-3.571,-3.571,-3.571,-3.5844,-3.6098,-3.6272,-3.6484,-3.6811,-3.7017,-3.7056,-3.7095,-3.7327,-3.7519,-3.7711,-3.7938,-3.8188,-3.8427,-3.8664,-3.8958,-3.9286,-3.9574,-3.9874,-4.0121,-4.0366,-4.0186,-4.0082,-3.9813,-3.9705,-3.9228,-3.8952,-3.8875,-3.8692,-3.8262,-3.8015,-3.8031,-3.7861,-3.7569,-3.7677,-3.7908,-3.78,-3.7615,-3.7661,-3.7677,-3.74,-3.6969,-3.436,-3.4812,-3.5227,-3.5549,-3.5793,-3.6124,-3.6279,-3.6395,-3.6417,-3.6417,-3.6417,-3.6417,-3.6417,-3.6417,-3.6417,-3.6417,-3.6417,-3.6417,-3.6417,-3.6452,-3.6581,-3.6781,-3.6951,-3.7171,-3.7292,-3.756,-3.6979,-3.6711,-3.6554,-3.6449,-3.6031,-3.5299,-3.5129,-3.4842,-3.4541,-3.441,-3.4397,-3.4397,-3.4397,-3.4397,-3.4397,-3.4397,-3.4397,-3.4397,-3.4397,-3.4397,-3.4397,-3.4397,-3.4397,-3.4397,-3.4397,-3.4397,-3.4397,-3.4397,-3.4397,-3.4397,-3.4397,-3.4397,-3.4397,-3.4397,-3.4397,-3.4397,-3.4397,-3.4397,-3.4439,-3.4825,-3.5072,-3.5072,-3.548,-3.5629,-3.571,-3.571,-3.571,-3.5844,-3.6098,-3.6272,-3.647,-3.6702,-3.6936,-3.7017,-3.7017,-3.7017,-3.7211,-3.7341,-3.7519,-3.7696,-3.7938,-3.8136,-3.8442,-3.8774,-3.9011,-3.9258,-3.9481,-3.9653,-3.952,-3.9385,-3.9272,-3.9059,-3.8583,-3.8323,-3.8246,-3.7969,-3.7569,-3.74,-3.7323,-3.7153,-3.6999,-3.7138,-3.7246,-3.7153,-3.703,-3.6784,-3.6645,-3.6492,-3.6507,-3.4722,-3.4816,-3.4839,-3.5418,-3.6235,-3.5854,-3.5945,-3.6417,-3.6417,-3.6417,-3.6417,-3.6417,-3.6417,-3.6417,-3.6417,-3.6417,-3.6417,-3.6417,-3.6417,-3.6417,-3.6452,-3.6505,-3.6586,-3.6537,-3.6496,-3.6644,-3.633,-3.594,-3.5574,-3.5587,-3.543,-3.526,-3.4816,-3.4541,-3.441,-3.4397,-3.4397,-3.4397,-3.4397,-3.4397,-3.4397,-3.4397,-3.4397,-3.4397,-3.4397,-3.4397,-3.4397,-3.4397,-3.4397,-3.4397,-3.4397,-3.4397,-3.4397,-3.4397,-3.4397,-3.4397,-3.4397,-3.4397,-3.4397,-3.4397,-3.4397,-3.4397,-3.4397,-3.4397,-3.4397,-3.4825,-3.5072,-3.5154,-3.548,-3.5669,-3.571,-3.571,-3.571,-3.5844,-3.6031,-3.6148,-3.6358,-3.6629,-3.6824,-3.6936,-3.6838,-3.6585,-3.6543,-3.6636,-3.6872,-3.7087,-3.7091,-3.725,-3.7715,-3.8077,-3.8242,-3.846,-3.8637,-3.8693,-3.8498,-3.8415,-3.8402,-3.8238,-3.7904,-3.7691,-3.7569,-3.7246,-3.7015,-3.6892,-3.683,-3.663,-3.6538,-3.6738,-3.6815,-3.663,-3.6492,-3.6492,-3.6492,-3.6492,-3.6492,-3.431,-3.4369,-3.4495,-3.5075,-3.5855,-3.5706,-3.5895,-3.637,-3.6417,-3.6417,-3.6417,-3.6417,-3.6417,-3.6417,-3.6417,-3.6417,-3.6417,-3.6417,-3.6392,-3.6267,-3.6116,-3.602,-3.6011,-3.5947,-3.5872,-3.5978,-3.5757,-3.5561,-3.5351,-3.4986,-3.4776,-3.4633,-3.4515,-3.445,-3.4397,-3.4397,-3.4397,-3.4397,-3.4397,-3.4397,-3.4397,-3.4397,-3.4397,-3.4397,-3.4397,-3.4397,-3.4397,-3.4397,-3.4397,-3.4397,-3.4397,-3.4397,-3.4397,-3.4397,-3.4397,-3.4397,-3.4397,-3.4397,-3.4397,-3.4397,-3.4397,-3.4397,-3.4397,-3.4397,-3.4397,-3.4825,-3.5031,-3.5236,-3.548,-3.5669,-3.571,-3.571,-3.571,-3.5804,-3.5895,-3.5969,-3.6106,-3.6266,-3.6304,-3.6234,-3.6019,-3.5766,-3.578,-3.5822,-3.6127,-3.6414,-3.6391,-3.6459,-3.6921,-3.7193,-3.7331,-3.7461,-3.761,-3.7753,-3.7594,-3.7567,-3.7549,-3.7405,-3.7178,-3.7104,-3.7014,-3.6861,-3.6661,-3.6507,-3.6492,-3.6507,-3.6507,-3.6492,-3.6492,-3.6492,-3.6492,-3.6492,-3.6492,-3.6492,-3.6492,-3.4032,-3.4136,-3.4396,-3.4884,-3.5464,-3.5572,-3.5847,-3.6228,-3.637,-3.6417,-3.6417,-3.6417,-3.6417,-3.6417,-3.6417,-3.6417,-3.6355,-3.6194,-3.6119,-3.5893,-3.5579,-3.5432,-3.5421,-3.5341,-3.5249,-3.5339,-3.521,-3.4999,-3.4946,-3.458,-3.4489,-3.4463,-3.4397,-3.4397,-3.4397,-3.4397,-3.4397,-3.4397,-3.4397,-3.4397,-3.4397,-3.4397,-3.4397,-3.4397,-3.4397,-3.4397,-3.4397,-3.4397,-3.4397,-3.4397,-3.4397,-3.4397,-3.4397,-3.4397,-3.4397,-3.4397,-3.4397,-3.4397,-3.4397,-3.4397,-3.4397,-3.4397,-3.4397,-3.4397,-3.4481,-3.4825,-3.5072,-3.5154,-3.548,-3.5696,-3.5669,-3.5547,-3.5384,-3.5329,-3.5384,-3.5438,-3.5415,-3.5519,-3.5513,-3.547,-3.5316,-3.5316,-3.5217,-3.5287,-3.5372,-3.5677,-3.5794,-3.5838,-3.6059,-3.6222,-3.6202,-3.6335,-3.6461,-3.6591,-3.6701,-3.664,-3.6617,-3.6787,-3.6639,-3.6628,-3.6537,-3.646,-3.6492,-3.6492,-3.6492,-3.6492,-3.6492,-3.6492,-3.6492,-3.6492,-3.6492,-3.6492,-3.6492,-3.6492,-3.6492,-3.4064,-3.4174,-3.4568,-3.4957,-3.5223,-3.5464,-3.5764,-3.6051,-3.6275,-3.6417,-3.6417,-3.6417,-3.6417,-3.6392,-3.6355,-3.6267,-3.6153,-3.578,-3.552,-3.5382,-3.5014,-3.4788,-3.4716,-3.4635,-3.4553,-3.4555,-3.4558,-3.4538,-3.4502,-3.445,-3.4397,-3.4397,-3.4397,-3.4397,-3.4397,-3.4397,-3.4397,-3.4397,-3.4397,-3.4397,-3.4397,-3.4397,-3.4397,-3.4397,-3.4397,-3.4397,-3.4397,-3.4397,-3.4397,-3.4397,-3.4397,-3.4397,-3.4397,-3.4397,-3.4397,-3.4397,-3.4397,-3.4397,-3.4397,-3.4397,-3.4397,-3.4397,-3.4397,-3.4397,-3.4494,-3.4784,-3.5072,-3.5113,-3.5386,-3.5588,-3.5439,-3.5168,-3.4924,-3.4838,-3.4849,-3.483,-3.4857,-3.4906,-3.491,-3.4674,-3.4936,-3.5105,-3.4908,-3.4759,-3.4702,-3.4894,-3.5119,-3.5243,-3.5271,-3.5245,-3.5182,-3.5245,-3.5407,-3.5531,-3.5628,-3.5651,-3.5692,-3.5923,-3.6177,-3.6241,-3.6352,-3.646,-3.6492,-3.6492,-3.6492,-3.6492,-3.6492,-3.6492,-3.6492,-3.6492,-3.6492,-3.6492,-3.6492,-3.6492,-3.6492,-3.3265,-3.362,-3.4066,-3.4511,-3.4957,-3.5223,-3.5572,-3.6015,-3.6288,-3.6417,-3.6417,-3.6417,-3.6417,-3.6329,-3.5994,-3.5843,-3.5705,-3.5265,-3.4956,-3.4926,-3.4424,-3.4248,-3.4111,-3.4002,-3.3943,-3.4024,-3.4072,-3.4285,-3.4424,-3.4397,-3.4397,-3.4397,-3.4397,-3.4397,-3.4397,-3.4397,-3.4397,-3.4397,-3.4397,-3.4397,-3.4397,-3.4397,-3.4397,-3.4397,-3.4397,-3.4397,-3.4397,-3.4397,-3.4397,-3.4397,-3.4397,-3.4397,-3.4397,-3.4397,-3.4397,-3.4397,-3.4397,-3.4397,-3.4397,-3.4397,-3.4397,-3.4397,-3.4397,-3.4397,-3.4439,-3.4825,-3.5044,-3.5034,-3.5117,-3.5169,-3.4978,-3.4517,-3.426,-3.4283,-3.432,-3.4248,-3.4256,-3.4385,-3.4407,-3.3958,-3.3916,-3.4056,-3.3986,-3.4112,-3.4126,-3.4056,-3.4239,-3.4169,-3.4157,-3.4151,-3.4157,-3.4233,-3.4327,-3.4515,-3.4641,-3.4913,-3.5228,-3.5587,-3.5893,-3.6132,-3.6258,-3.6383,-3.6492,-3.6476,-3.6492,-3.6492,-3.6492,-3.6492,-3.6492,-3.6492,-3.6492,-3.6492,-3.6492,-3.6492,-3.6492,-3.2641,-3.3078,-3.347,-3.3863,-3.433,-3.4921,-3.5524,-3.5968,-3.6181,-3.6323,-3.637,-3.6417,-3.6279,-3.6019,-3.5696,-3.532,-3.5182,-3.4655,-3.4437,-3.4361,-3.3872,-3.3671,-3.3557,-3.3498,-3.3628,-3.3725,-3.3992,-3.4202,-3.4397,-3.4397,-3.4397,-3.4397,-3.4397,-3.4397,-3.4397,-3.4397,-3.4397,-3.4397,-3.4397,-3.4397,-3.4397,-3.4397,-3.4397,-3.4397,-3.4397,-3.4397,-3.4397,-3.4397,-3.4397,-3.4397,-3.4397,-3.4397,-3.4397,-3.4397,-3.4397,-3.4397,-3.4397,-3.4397,-3.4397,-3.4397,-3.4397,-3.4397,-3.4397,-3.4397,-3.4481,-3.4825,-3.4872,-3.4834,-3.4766,-3.4628,-3.4436,-3.3948,-3.3688,-3.371,-3.3639,-3.3588,-3.3647,-3.3734,-3.3894,-3.3431,-3.3304,-3.329,-3.3276,-3.3333,-3.3522,-3.3403,-3.3347,-3.3276,-3.3276,-3.3431,-3.3536,-3.364,-3.3724,-3.3965,-3.4239,-3.4496,-3.485,-3.5213,-3.5572,-3.591,-3.6148,-3.6305,-3.6383,-3.6476,-3.6492,-3.6492,-3.6492,-3.6492,-3.6492,-3.6492,-3.6492,-3.6492,-3.6492,-3.6492,-3.6492,-3.2206,-3.2453,-3.2746,-3.3074,-3.3477,-3.4545,-3.5354,-3.593,-3.6003,-3.6133,-3.6417,-3.6367,-3.6056,-3.5571,-3.5433,-3.5082,-3.4663,-3.4135,-3.3935,-3.3771,-3.3407,-3.3244,-3.3255,-3.3308,-3.3471,-3.3683,-3.3937,-3.4105,-3.4356,-3.4397,-3.4397,-3.4397,-3.4397,-3.4397,-3.4397,-3.4397,-3.4397,-3.4397,-3.4397,-3.4397,-3.4397,-3.4397,-3.4397,-3.4397,-3.4397,-3.4397,-3.4397,-3.4397,-3.4397,-3.4397,-3.4397,-3.4397,-3.4397,-3.4397,-3.4397,-3.4397,-3.4397,-3.4397,-3.4397,-3.4397,-3.4397,-3.4384,-3.4306,-3.4358,-3.443,-3.4573,-3.4592,-3.4406,-3.4255,-3.4142,-3.3921,-3.3498,-3.305,-3.3018,-3.2942,-3.2922,-3.2933,-3.3092,-3.3332,-3.329,-3.329,-3.3276,-3.3276,-3.3276,-3.3276,-3.3276,-3.3276,-3.3276,-3.3276,-3.3276,-3.3396,-3.3396,-3.3501,-3.3605,-3.3833,-3.4176,-3.4481,-3.4883,-3.5359,-3.5701,-3.5973,-3.6211,-3.6352,-3.6414,-3.6492,-3.6492,-3.6492,-3.6492,-3.6492,-3.6492,-3.6492,-3.6492,-3.6492,-3.6492,-3.6492,-3.1274,-3.1763,-3.2179,-3.2623,-3.3039,-3.3597,-3.4358,-3.5162,-3.5722,-3.6146,-3.638,-3.5956,-3.5633,-3.5445,-3.4738,-3.4361,-3.3997,-3.3633,-3.3382,-3.3219,-3.3224,-3.3149,-3.3124,-3.3197,-3.3398,-3.3641,-3.3839,-3.4008,-3.4314,-3.4397,-3.4397,-3.4397,-3.4397,-3.4397,-3.4397,-3.4397,-3.4397,-3.4397,-3.4397,-3.4397,-3.4397,-3.4397,-3.4397,-3.4397,-3.4397,-3.4397,-3.4397,-3.4397,-3.4397,-3.4397,-3.4397,-3.4397,-3.4397,-3.4397,-3.4397,-3.4397,-3.4397,-3.4397,-3.4397,-3.4397,-3.4358,-3.4228,-3.4031,-3.3849,-3.3945,-3.4084,-3.414,-3.3858,-3.3703,-3.3585,-3.3363,-3.2942,-3.268,-3.255,-3.2576,-3.2737,-3.2775,-3.3016,-3.3241,-3.3276,-3.3276,-3.3276,-3.3276,-3.3276,-3.3276,-3.3276,-3.3276,-3.3276,-3.3276,-3.3276,-3.3276,-3.3312,-3.3361,-3.3466,-3.3675,-3.3971,-3.4244,-3.4549,-3.503,-3.5457,-3.5782,-3.6022,-3.6258,-3.6383,-3.646,-3.6492,-3.6492,-3.6492,-3.6492,-3.6492,-3.6492,-3.6492,-3.6492,-3.6492,-3.6492,-3.0548,-3.0996,-3.1476,-3.1984,-3.244,-3.2829,-3.3453,-3.4234,-3.511,-3.5628,-3.5705,-3.5558,-3.5257,-3.4756,-3.4223,-3.3822,-3.3558,-3.3319,-3.3174,-3.3174,-3.3124,-3.3124,-3.3124,-3.3167,-3.3356,-3.3543,-3.3755,-3.3979,-3.4272,-3.4397,-3.4397,-3.4397,-3.4397,-3.4397,-3.4397,-3.4397,-3.4397,-3.4397,-3.4397,-3.4397,-3.4397,-3.4397,-3.4397,-3.4397,-3.4397,-3.4397,-3.4397,-3.4397,-3.4397,-3.4397,-3.4397,-3.4397,-3.4397,-3.4397,-3.4397,-3.4397,-3.4397,-3.4397,-3.4371,-3.4136,-3.411,-3.394,-3.3561,-3.3236,-3.3251,-3.3423,-3.3289,-3.3138,-3.3095,-3.3033,-3.2735,-3.2463,-3.2341,-3.2218,-3.2431,-3.2654,-3.2881,-3.3086,-3.3206,-3.3276,-3.3276,-3.3276,-3.3276,-3.3276,-3.3276,-3.3276,-3.3276,-3.3276,-3.3276,-3.3276,-3.3276,-3.3312,-3.3312,-3.3347,-3.3556,-3.3764,-3.4005,-3.4312,-3.4716,-3.5148,-3.5509,-3.5894,-3.6163,-3.6352,-3.6492,-3.6492,-3.6492,-3.6492,-3.6492,-3.6492,-3.6492,-3.6492,-3.6492,-3.6492,-3.6492,-3.0011,-3.0239,-3.0793,-3.1345,-3.1745,-3.2238,-3.2713,-3.3216,-3.4207,-3.4684,-3.4823,-3.5144,-3.4813,-3.4198,-3.3809,-3.3508,-3.3307,-3.3162,-3.3124,-3.3124,-3.3124,-3.3124,-3.3124,-3.3124,-3.3356,-3.3543,-3.3755,-3.3937,-3.4272,-3.4397,-3.4397,-3.4397,-3.4397,-3.4397,-3.4397,-3.4397,-3.4397,-3.4397,-3.4397,-3.4397,-3.4397,-3.4397,-3.4397,-3.4397,-3.4397,-3.4397,-3.4397,-3.4397,-3.4397,-3.4397,-3.4397,-3.4397,-3.4397,-3.4397,-3.4397,-3.4319,-3.428,-3.4201,-3.4058,-3.377,-3.3561,-3.3326,-3.2973,-3.2607,-3.2633,-3.2919,-3.2849,-3.2642,-3.2631,-3.2657,-3.2449,-3.2354,-3.2259,-3.2277,-3.2467,-3.2618,-3.2761,-3.3002,-3.3241,-3.3276,-3.3276,-3.3276,-3.3276,-3.3276,-3.3276,-3.3276,-3.3276,-3.3276,-3.3276,-3.3276,-3.3276,-3.3276,-3.3312,-3.3326,-3.3396,-3.3605,-3.3764,-3.4059,-3.4448,-3.485,-3.5264,-3.5686,-3.6132,-3.6289,-3.6429,-3.6492,-3.6492,-3.6492,-3.6492,-3.6492,-3.6492,-3.6492,-3.6492,-3.6492,-3.6492,-2.9737,-3.0023,-3.0703,-3.1273,-3.1685,-3.1849,-3.2055,-3.2381,-3.3183,-3.4012,-3.4547,-3.4424,-3.4186,-3.3859,-3.347,-3.3206,-3.3174,-3.3124,-3.3124,-3.3124,-3.3124,-3.3124,-3.3124,-3.3124,-3.3368,-3.3598,-3.3755,-3.3979,-3.4314,-3.4397,-3.4397,-3.4397,-3.4397,-3.4397,-3.4397,-3.4397,-3.4397,-3.4397,-3.4397,-3.4397,-3.4397,-3.4397,-3.4397,-3.4397,-3.4397,-3.4397,-3.4397,-3.4397,-3.4397,-3.4397,-3.4397,-3.4397,-3.4397,-3.4397,-3.4384,-3.4332,-3.3992,-3.3822,-3.3613,-3.3273,-3.2973,-3.2738,-3.2463,-3.2214,-3.2197,-3.2455,-3.2524,-3.231,-3.2216,-3.2268,-3.2286,-3.2246,-3.2241,-3.2372,-3.2503,-3.2596,-3.269,-3.2966,-3.3276,-3.3276,-3.3276,-3.3276,-3.3276,-3.3276,-3.3276,-3.3276,-3.3276,-3.3276,-3.3276,-3.3276,-3.3276,-3.3276,-3.3276,-3.3326,-3.3361,-3.3431,-3.3591,-3.3819,-3.4176,-3.4568,-3.4983,-3.5524,-3.6005,-3.6195,-3.6352,-3.6383,-3.646,-3.6492,-3.6492,-3.6492,-3.6492,-3.6492,-3.6492,-3.6492,-3.6492,-2.9485,-2.9817,-3.0658,-3.1196,-3.1484,-3.1661,-3.1805,-3.2042,-3.2499,-3.3079,-3.3808,-3.3809,-3.3771,-3.3583,-3.3237,-3.3124,-3.3124,-3.3124,-3.3124,-3.3124,-3.3124,-3.3124,-3.3124,-3.3124,-3.3398,-3.3641,-3.3937,-3.4189,-3.4356,-3.4397,-3.4397,-3.4397,-3.4397,-3.4397,-3.4397,-3.4397,-3.4397,-3.4397,-3.4397,-3.4397,-3.4397,-3.4397,-3.4397,-3.4397,-3.4397,-3.4397,-3.4397,-3.4397,-3.4397,-3.4397,-3.4397,-3.4397,-3.4319,-3.4136,-3.4031,-3.3862,-3.3561,-3.3195,-3.3025,-3.2725,-3.2346,-3.215,-3.181,-3.1533,-3.1796,-3.2062,-3.2123,-3.1974,-3.2168,-3.2246,-3.2246,-3.2218,-3.2264,-3.2359,-3.2574,-3.2704,-3.2895,-3.3171,-3.329,-3.3276,-3.3276,-3.3276,-3.3276,-3.3276,-3.3276,-3.3276,-3.3276,-3.3276,-3.3276,-3.3276,-3.3276,-3.3276,-3.3276,-3.3276,-3.3326,-3.3396,-3.3501,-3.3695,-3.3902,-3.4366,-3.4835,-3.5427,-3.5878,-3.6037,-3.6148,-3.6305,-3.6352,-3.6429,-3.6492,-3.6492,-3.6492,-3.6492,-3.6492,-3.6492,-3.6492,-2.9255,-2.968,-3.0612,-3.1095,-3.1362,-3.1572,-3.1805,-3.195,-3.2006,-3.2225,-3.2729,-3.3421,-3.3401,-3.3219,-3.3124,-3.3124,-3.3124,-3.3124,-3.3124,-3.3124,-3.3124,-3.3124,-3.3124,-3.3124,-3.3398,-3.3725,-3.4092,-3.4272,-3.4397,-3.4397,-3.4397,-3.4397,-3.4397,-3.4397,-3.4397,-3.4397,-3.4397,-3.4397,-3.4397,-3.4397,-3.4397,-3.4397,-3.4397,-3.4397,-3.4397,-3.4397,-3.4397,-3.4397,-3.4397,-3.4319,-3.428,-3.4201,-3.4018,-3.3744,-3.3535,-3.3326,-3.2921,-3.2659,-3.2476,-3.2071,-3.1797,-3.1562,-3.1182,-3.1176,-3.1487,-3.1673,-3.1733,-3.194,-3.2146,-3.2205,-3.2205,-3.2205,-3.23,-3.2431,-3.2646,-3.286,-3.31,-3.329,-3.329,-3.3276,-3.3276,-3.3276,-3.3276,-3.3276,-3.3276,-3.3276,-3.3276,-3.3276,-3.3276,-3.3276,-3.3276,-3.3276,-3.3276,-3.3276,-3.3276,-3.3312,-3.3396,-3.3501,-3.3764,-3.4196,-3.4654,-3.5133,-3.5524,-3.5718,-3.5863,-3.6053,-3.6226,-3.632,-3.6398,-3.6429,-3.6492,-3.6492,-3.6492,-3.6492,-3.6492,-2.9231,-2.9886,-3.0658,-3.1095,-3.1306,-3.1572,-3.1749,-3.1805,-3.1937,-3.2069,-3.2281,-3.2643,-3.2959,-3.3124,-3.3124,-3.3124,-3.3124,-3.3124,-3.3124,-3.3124,-3.3124,-3.3124,-3.3124,-3.3197,-3.3343,-3.3713,-3.4134,-3.4356,-3.4397,-3.4397,-3.4397,-3.4397,-3.4397,-3.4397,-3.4397,-3.4397,-3.4397,-3.4397,-3.4397,-3.4397,-3.4397,-3.4397,-3.4397,-3.4397,-3.4397,-3.4397,-3.4397,-3.4397,-3.4397,-3.428,-3.4018,-3.3849,-3.3548,-3.3221,-3.296,-3.2738,-3.2319,-3.2071,-3.1784,-3.1535,-3.1314,-3.1274,-3.1037,-3.12,-3.1437,-3.1585,-3.1757,-3.2036,-3.2205,-3.2205,-3.2205,-3.2205,-3.2277,-3.2503,-3.2704,-3.298,-3.3241,-3.329,-3.329,-3.3276,-3.3276,-3.3276,-3.3276,-3.3276,-3.3276,-3.3276,-3.3276,-3.3276,-3.3276,-3.3276,-3.3276,-3.3276,-3.3276,-3.3276,-3.3276,-3.3276,-3.3361,-3.3431,-3.357,-3.3937,-3.4332,-3.4735,-3.5052,-3.5297,-3.5574,-3.5799,-3.5958,-3.61,-3.6226,-3.6258,-3.6429,-3.6492,-3.6492,-3.6492,-3.6492]}]]